[[{"header":{"parameterUnit":"m.s-1","parameterCategory":1,"la1":30.6,"la2":28.766,"lo1":-90.7593,"lo2":-88.6598,"dy":0.0162,"dx":0.0183,"nx":116,"ny":114,"refTime":"2023-07-23T06:00:00:Z","depth":0,"parameterNumber":2,"parameterNumberName":"U-component_of_WINDS"},"data":[0.0,0.0,0.0,0.0,0.0,0.0,0.0,0.0,0.0,0.0,0.0,0.0,0.0,0.0,0.0,0.0,0.0,0.0,0.0,0.0,0.0,0.0,0.0,0.0,0.0,0.0,0.0,0.0,0.0,0.0,0.0,0.0,0.0,0.0,0.0,0.0,0.0,0.0,0.0,0.0,0.0,0.0,0.0,0.0,0.0,0.0,0.0,0.0,0.0,0.0,0.0,0.0,0.0,0.0,0.0,0.0,0.0,0.0,0.0,0.0,0.0,0.0,0.0,0.0,0.0,0.0,0.0,0.0,0.0,0.0,0.0,0.0,0.0,0.0,0.0,0.0,0.0,0.0,0.0,0.0,0.0,0.0,0.0,0.0,0.0,0.0,0.0,0.0,0.0,0.0,0.0,0.0,0.0,0.0,0.0,0.0,0.0,0.0,0.0,0.0,0.0,0.0,0.0,0.0,0.0,0.0,0.0,0.0,0.0,0.0,0.0,0.0,0.0,0.0,0.0,0.0,0.0,0.0,0.0,0.0,0.0,0.0,0.0,0.0,0.0,0.0,0.0,0.0,0.0,0.0,0.0,0.0,0.0,0.0,0.0,0.0,0.0,0.0,0.0,0.0,0.0,0.0,0.0,0.0,0.0,0.0,0.0,0.0,0.0,0.0,0.0,0.0,0.0,0.0,0.0,0.0,0.0,0.0,0.0,0.0,0.0,0.0,0.0,0.0,0.0,0.0,0.0,0.0,0.0,0.0,0.0,0.0,0.0,0.0,0.0,0.0,0.0,0.0,0.0,0.0,0.0,0.0,0.0,0.0,0.0,0.0,0.0,0.0,0.0,0.0,0.0,0.0,0.0,0.0,0.0,0.0,0.0,0.0,0.0,0.0,0.0,0.0,0.0,0.0,0.0,0.0,0.0,0.0,0.0,0.0,0.0,0.0,0.0,0.0,0.0,0.0,0.0,0.0,0.0,0.0,0.0,0.0,0.0,0.0,0.0,0.0,0.0,0.0,0.0,0.0,0.0,0.0,0.0,0.0,0.0,0.0,0.0,0.0,0.0,0.0,0.0,0.0,0.0,0.0,0.0,0.0,0.0,0.0,0.0,0.0,0.0,0.0,0.0,0.0,0.0,0.0,0.0,0.0,0.0,0.0,0.0,0.0,0.0,0.0,0.0,0.0,0.0,0.0,0.0,0.0,0.0,0.0,0.0,0.0,0.0,0.0,0.0,0.0,0.0,0.0,0.0,0.0,0.0,0.0,0.0,0.0,0.0,0.0,0.0,0.0,0.0,0.0,0.0,0.0,0.0,0.0,0.0,0.0,0.0,0.0,0.0,0.0,0.0,0.0,0.0,0.0,0.0,0.0,0.0,0.0,0.0,0.0,0.0,0.0,0.0,0.0,0.0,0.0,0.0,0.0,0.0,0.0,0.0,0.0,0.0,0.0,0.0,0.0,0.0,0.0,0.0,0.0,0.0,0.0,0.0,0.0,0.0,0.0,0.0,0.0,0.0,0.0,0.0,0.0,0.0,0.0,0.0,0.0,0.0,0.0,0.0,0.0,0.0,0.0,0.0,0.0,0.0,0.0,0.0,0.0,0.0,0.0,0.0,0.0,0.0,0.0,0.0,0.0,0.0,0.0,0.0,0.0,0.0,0.0,0.0,0.0,0.0,0.0,0.0,0.0,0.0,0.0,0.0,0.0,0.0,0.0,0.0,0.0,0.0,0.0,0.0,0.0,0.0,0.0,0.0,0.0,0.0,0.0,0.0,0.0,0.0,0.0,0.0,0.0,0.0,0.0,0.0,0.0,0.0,0.0,0.0,0.0,0.0,0.0,0.0,0.0,0.0,0.0,0.0,0.0,0.0,0.0,0.0,0.0,0.0,0.0,0.0,0.0,0.0,0.0,0.0,0.0,0.0,0.0,0.0,0.0,0.0,0.0,0.0,0.0,0.0,0.0,0.0,0.0,0.0,0.0,0.0,0.0,0.0,0.0,0.0,0.0,0.0,0.0,0.0,0.0,0.0,0.0,0.0,0.0,0.0,0.0,0.0,0.0,0.0,0.0,0.0,0.0,0.0,0.0,0.0,0.0,0.0,0.0,0.0,0.0,0.0,0.0,0.0,0.0,0.0,0.0,0.0,0.0,0.0,0.0,0.0,0.0,0.0,0.0,0.0,0.0,0.0,0.0,0.0,0.0,0.0,0.0,0.0,0.0,0.0,0.0,0.0,0.0,0.0,0.0,0.0,0.0,0.0,0.0,0.0,0.0,0.0,0.0,0.0,0.0,0.0,0.0,0.0,0.0,0.0,0.0,0.0,0.0,0.0,0.0,0.0,0.0,0.0,0.0,0.0,0.0,0.0,0.0,0.0,0.0,0.0,0.0,0.0,0.0,0.0,0.0,0.0,0.0,0.0,0.0,0.0,0.0,0.0,0.0,0.0,0.0,0.0,0.0,0.0,0.0,0.0,0.0,0.0,0.0,0.0,0.0,0.0,0.0,0.0,0.0,0.0,0.0,0.0,0.0,0.0,0.0,0.0,0.0,0.0,0.0,0.0,0.0,0.0,0.0,0.0,0.0,0.0,0.0,0.0,0.0,0.0,0.0,0.0,0.0,0.0,0.0,0.0,0.0,0.0,0.0,0.0,0.0,0.0,0.0,0.0,0.0,0.0,0.0,0.0,0.0,0.0,0.0,0.0,0.0,0.0,0.0,0.0,0.0,0.0,0.0,0.0,0.0,0.0,0.0,0.0,0.0,0.0,0.0,0.0,0.0,0.0,0.0,0.0,0.0,0.0,0.0,0.0,0.0,0.0,0.0,0.0,0.0,0.0,0.0,0.0,0.0,0.0,0.0,0.0,0.0,0.0,0.0,0.0,0.0,0.0,0.0,0.0,0.0,0.0,0.0,0.0,0.0,0.0,0.0,0.0,0.0,0.0,0.0,0.0,0.0,0.0,0.0,0.0,0.0,0.0,0.0,0.0,0.0,0.0,0.0,0.0,0.0,0.0,0.0,0.0,0.0,0.0,0.0,0.0,0.0,0.0,0.0,0.0,0.0,0.0,0.0,0.0,0.0,0.0,0.0,0.0,0.0,0.0,0.0,0.0,0.0,0.0,0.0,0.0,0.0,0.0,0.0,0.0,0.0,0.0,0.0,0.0,0.0,0.0,0.0,0.0,0.0,0.0,0.0,0.0,0.0,0.0,0.0,0.0,0.0,0.0,0.0,0.0,0.0,0.0,0.0,0.0,0.0,0.0,0.0,0.0,0.0,0.0,0.0,0.0,0.0,0.0,0.0,0.0,0.0,0.0,0.0,0.0,0.0,0.0,0.0,0.0,0.0,0.0,0.0,0.0,0.0,0.0,0.0,0.0,0.0,0.0,0.0,0.0,0.0,0.0,0.0,0.0,0.0,0.0,0.0,0.0,0.0,0.0,0.0,0.0,0.0,0.0,0.0,0.0,0.0,0.0,0.0,0.0,0.0,0.0,0.0,0.0,0.0,0.0,0.0,0.0,0.0,0.0,0.0,0.0,0.0,0.0,0.0,0.0,0.0,0.0,0.0,0.0,0.0,0.0,0.0,0.0,0.0,0.0,0.0,0.0,0.0,0.0,0.0,0.0,0.0,0.0,0.0,0.0,0.0,0.0,0.0,0.0,0.0,0.0,0.0,0.0,0.0,0.0,0.0,0.0,0.0,0.0,0.0,0.0,0.0,0.0,0.0,0.0,0.0,0.0,0.0,0.0,0.0,0.0,0.0,0.0,0.0,0.0,0.0,0.0,0.0,0.0,0.0,0.0,0.0,0.0,0.0,0.0,0.0,0.0,0.0,0.0,0.0,0.0,0.0,0.0,0.0,0.0,0.0,0.0,0.0,0.0,0.0,0.0,0.0,0.0,0.0,0.0,0.0,0.0,0.0,0.0,0.0,0.0,0.0,0.0,0.0,0.0,0.0,0.0,0.0,0.0,0.0,0.0,0.0,0.0,0.0,0.0,0.0,0.0,0.0,0.0,0.0,0.0,0.0,0.0,0.0,0.0,0.0,0.0,0.0,0.0,0.0,0.0,0.0,0.0,0.0,0.0,0.0,0.0,0.0,0.0,0.0,0.0,0.0,0.0,0.0,0.0,0.0,0.0,0.0,0.0,0.0,0.0,0.0,0.0,0.0,0.0,0.0,0.0,0.0,0.0,0.0,0.0,0.0,0.0,0.0,0.0,0.0,0.0,0.0,0.0,0.0,0.0,0.0,0.0,0.0,0.0,0.0,0.0,0.0,0.0,0.0,0.0,0.0,0.0,0.0,0.0,0.0,0.0,0.0,0.0,0.0,0.0,0.0,0.0,0.0,0.0,0.0,0.0,0.0,0.0,0.0,0.0,0.0,0.0,0.0,0.0,0.0,0.0,0.0,0.0,0.0,0.0,0.0,0.0,0.0,0.0,0.0,0.0,0.0,0.0,0.0,0.0,0.0,0.0,0.0,0.0,0.0,0.0,0.0,0.0,0.0,0.0,0.0,0.0,0.0,0.0,0.0,0.0,0.0,0.0,0.0,0.0,0.0,0.0,0.0,0.0,0.0,0.0,0.0,0.0,0.0,0.0,0.0,0.0,0.0,0.0,0.0,0.0,0.0,0.0,0.0,0.0,0.0,0.0,0.0,0.0,0.0,0.0,0.0,0.0,0.0,0.0,0.0,0.0,0.0,0.0,0.0,0.0,0.0,0.0,0.0,0.0,0.0,0.0,0.0,0.0,0.0,0.0,0.0,0.0,0.0,0.0,0.0,0.0,0.0,0.0,0.0,0.0,0.0,0.0,0.0,0.0,0.0,0.0,0.0,0.0,0.0,0.0,0.0,0.0,0.0,0.0,0.0,0.0,0.0,0.0,0.0,0.0,0.0,0.0,0.0,0.0,0.0,0.0,0.0,0.0,0.0,0.0,0.0,0.0,0.0,0.0,0.0,0.0,0.0,0.0,0.0,0.0,0.0,0.0,0.0,0.0,0.0,0.0,0.0,0.0,0.0,0.0,0.0,0.0,0.0,0.0,0.0,0.0,0.0,0.0,0.0,0.0,0.0,0.0,0.0,0.0,0.0,0.0,0.0,0.0,0.0,0.0,0.0,0.0,0.0,0.0,0.0,0.0,0.0,0.0,0.0,0.0,0.0,0.0,0.0,0.0,0.0,0.0,0.0,0.0,0.0,0.0,0.0,0.0,0.0,0.0,0.0,0.0,0.0,0.0,0.0,0.0,0.0,0.0,0.0,0.0,0.0,0.0,0.0,0.0,0.0,0.0,0.0,0.0,0.0,0.0,0.0,0.0,0.0,0.0,0.0,0.0,0.0,0.0,0.0,0.0,0.0,0.0,0.0,0.0,0.0,0.0,0.0,0.0,0.0,0.0,0.0,0.0,0.0,0.0,0.0,0.0,0.0,0.0,0.0,0.0,0.0,0.0,0.0,0.0,0.0,0.0,0.0,0.0,0.0,0.0,0.0,0.0,0.0,0.0,0.0,0.0,0.0,0.0,0.0,0.0,0.0,0.0,0.0,0.0,0.0,0.0,0.0,0.0,0.0,0.0,0.0,0.0,0.0,0.0,0.0,0.0,0.0,0.0,0.0,0.0,0.0,0.0,0.0,0.0,0.0,0.0,0.0,0.0,0.0,0.0,0.0,0.0,0.0,0.0,0.0,0.0,0.0,0.0,0.0,0.0,0.0,0.0,0.0,0.0,0.0,0.0,0.0,0.0,0.0,0.0,0.0,0.0,0.0,0.0,0.0,0.0,0.0,0.0,0.0,0.0,0.0,0.0,0.0,0.0,0.0,0.0,0.0,0.0,0.0,0.0,0.0,0.0,0.0,0.0,0.0,0.0,0.0,0.0,0.0,0.0,0.0,0.0,0.0,0.0,0.0,0.0,0.0,0.0,0.0,0.0,0.0,0.0,0.0,0.0,0.0,0.0,0.0,0.0,0.0,0.0,0.0,0.0,0.0,0.0,0.0,0.0,0.0,0.0,0.0,0.0,0.0,0.0,0.0,0.0,0.0,0.0,0.0,0.0,0.0,0.0,0.0,0.0,0.0,0.0,0.0,0.0,0.0,0.0,0.0,0.0,0.0,0.0,0.0,-4.01,0.0,0.0,0.0,0.0,0.0,0.0,0.0,0.0,0.0,0.0,0.0,0.0,0.0,0.0,0.0,0.0,0.0,0.0,0.0,0.0,0.0,0.0,0.0,0.0,0.0,0.0,0.0,0.0,0.0,0.0,0.0,0.0,0.0,0.0,0.0,0.0,0.0,0.0,0.0,0.0,0.0,0.0,0.0,0.0,0.0,0.0,0.0,0.0,0.0,0.0,0.0,0.0,0.0,0.0,0.0,0.0,0.0,0.0,0.0,0.0,0.0,0.0,0.0,0.0,0.0,0.0,0.0,0.0,0.0,0.0,0.0,0.0,0.0,0.0,0.0,0.0,0.0,0.0,0.0,0.0,0.0,0.0,0.0,0.0,0.0,0.0,0.0,0.0,0.0,0.0,0.0,0.0,0.0,0.0,0.0,0.0,0.0,0.0,0.0,0.0,0.0,0.0,0.0,0.0,0.0,0.0,0.0,0.0,0.0,0.0,0.0,0.0,0.0,0.0,0.0,0.0,-4.1253,0.0,0.0,0.0,0.0,0.0,0.0,0.0,0.0,0.0,0.0,0.0,0.0,0.0,0.0,0.0,0.0,0.0,0.0,0.0,0.0,0.0,0.0,0.0,0.0,0.0,0.0,0.0,0.0,0.0,0.0,0.0,0.0,0.0,0.0,0.0,0.0,0.0,0.0,0.0,0.0,0.0,0.0,0.0,0.0,0.0,0.0,0.0,0.0,0.0,0.0,0.0,0.0,0.0,0.0,0.0,0.0,0.0,0.0,0.0,0.0,0.0,0.0,0.0,0.0,0.0,0.0,0.0,0.0,0.0,0.0,0.0,0.0,0.0,0.0,0.0,0.0,0.0,0.0,0.0,0.0,0.0,0.0,0.0,0.0,0.0,0.0,0.0,0.0,0.0,0.0,0.0,0.0,0.0,0.0,0.0,0.0,0.0,0.0,0.0,0.0,0.0,0.0,0.0,0.0,0.0,0.0,0.0,0.0,-4.7532,-4.7676,-4.8141,-4.7345,-4.7306,-4.7775,-4.6009,-4.5479,-4.5568,0.0,0.0,0.0,0.0,0.0,0.0,0.0,0.0,0.0,0.0,0.0,0.0,0.0,0.0,0.0,0.0,0.0,0.0,0.0,0.0,0.0,0.0,0.0,0.0,0.0,0.0,0.0,0.0,0.0,0.0,0.0,0.0,0.0,0.0,0.0,0.0,0.0,0.0,0.0,-3.0796,-3.235,-3.3091,-3.3115,0.0,0.0,0.0,0.0,0.0,0.0,0.0,0.0,0.0,0.0,0.0,0.0,0.0,0.0,0.0,0.0,0.0,0.0,0.0,0.0,0.0,0.0,0.0,0.0,0.0,0.0,0.0,0.0,0.0,0.0,0.0,0.0,0.0,0.0,0.0,0.0,0.0,0.0,0.0,0.0,0.0,0.0,0.0,0.0,-3.6642,-3.6069,0.0,0.0,0.0,0.0,0.0,0.0,0.0,0.0,0.0,0.0,0.0,0.0,0.0,-4.4904,-4.5773,-4.7506,-4.8465,-4.8675,-5.0835,-5.1484,-5.0783,-5.0608,-5.0557,-5.0491,-4.8676,0.0,-4.5703,-4.4501,0.0,0.0,0.0,0.0,0.0,0.0,0.0,0.0,0.0,0.0,0.0,0.0,0.0,0.0,0.0,0.0,0.0,0.0,0.0,0.0,0.0,0.0,0.0,0.0,0.0,0.0,0.0,0.0,0.0,0.0,0.0,0.0,0.0,0.0,0.0,0.0,-2.9859,-3.1155,-3.1723,-3.3523,-3.4371,-3.4467,-3.4674,-3.4205,-3.3291,-3.2679,0.0,0.0,0.0,0.0,0.0,0.0,0.0,0.0,0.0,0.0,0.0,0.0,0.0,0.0,0.0,0.0,0.0,0.0,0.0,0.0,0.0,0.0,0.0,0.0,0.0,0.0,0.0,0.0,0.0,0.0,0.0,0.0,0.0,0.0,0.0,0.0,0.0,0.0,0.0,-3.5897,-3.7559,-3.7215,-3.6905,-3.6439,0.0,0.0,0.0,0.0,0.0,0.0,0.0,0.0,0.0,-4.5265,-4.6502,-4.7556,-4.8427,-4.969,-5.0535,-5.1003,-5.1657,-5.1991,-5.2007,-5.144,-5.1152,-5.1035,-4.9702,-4.8701,-4.7811,-4.5467,-4.4066,-4.3168,0.0,0.0,0.0,0.0,-4.07,-4.0277,0.0,0.0,0.0,0.0,0.0,0.0,0.0,0.0,0.0,0.0,0.0,0.0,0.0,0.0,0.0,0.0,0.0,0.0,0.0,0.0,0.0,0.0,0.0,0.0,0.0,0.0,0.0,0.0,-3.0678,-3.1807,-3.2261,-3.3952,-3.4765,-3.4924,-3.5914,-3.5576,-3.4203,-3.348,-3.2386,0.0,0.0,0.0,0.0,0.0,0.0,0.0,0.0,0.0,0.0,0.0,0.0,0.0,0.0,0.0,0.0,0.0,0.0,0.0,0.0,0.0,0.0,0.0,0.0,0.0,0.0,0.0,0.0,0.0,0.0,0.0,0.0,0.0,0.0,0.0,0.0,0.0,0.0,-3.7196,-3.9088,-3.8438,-3.8972,-3.8942,0.0,0.0,0.0,0.0,0.0,0.0,-4.3665,-4.5155,-4.6677,-4.8193,-4.904,-4.9781,-5.0438,-5.1073,-5.1726,-5.2355,-5.1717,-5.1599,-5.1902,-5.118,-5.0704,-5.0375,-4.9451,-4.9165,-4.9146,-4.6302,-4.5017,-4.4562,-4.2167,-4.1212,-4.1219,-4.1643,-4.1527,-4.147,0.0,0.0,0.0,0.0,0.0,0.0,0.0,0.0,0.0,0.0,0.0,0.0,0.0,0.0,0.0,0.0,0.0,0.0,0.0,0.0,0.0,0.0,0.0,0.0,0.0,0.0,0.0,-2.8963,-3.0048,-3.1352,-3.2854,-3.3619,-3.4199,-3.4675,-3.5553,-3.5771,-3.5428,-3.4188,-3.3365,-3.2668,0.0,0.0,0.0,0.0,0.0,0.0,0.0,0.0,0.0,0.0,0.0,0.0,0.0,0.0,0.0,0.0,0.0,0.0,0.0,0.0,0.0,0.0,0.0,0.0,0.0,0.0,0.0,0.0,0.0,0.0,0.0,0.0,0.0,0.0,0.0,0.0,0.0,0.0,0.0,-4.0463,-4.2259,0.0,0.0,0.0,0.0,-4.1877,-4.3714,-4.5558,-4.7256,-4.8154,-4.9032,-4.995,-5.0828,-5.1297,-5.1336,-5.1372,-5.1418,-5.1457,-5.1425,-5.0953,-5.0122,-5.0011,-4.9478,-4.8588,-4.7649,-4.7695,-4.8392,-4.731,-4.6375,-4.5468,-4.3657,-4.297,-4.2874,-4.2085,-4.2297,-4.3104,0.0,0.0,0.0,0.0,0.0,0.0,0.0,0.0,0.0,0.0,0.0,0.0,0.0,0.0,0.0,0.0,0.0,0.0,0.0,0.0,0.0,0.0,0.0,0.0,0.0,0.0,-2.746,-2.8659,-3.0198,-3.1022,-3.117,-3.2177,-3.2633,-3.2585,-3.3395,-3.3864,-3.4054,-3.4252,-3.4072,-3.3468,-3.1651,-3.0952,0.0,0.0,0.0,0.0,0.0,0.0,0.0,0.0,0.0,0.0,0.0,0.0,0.0,0.0,0.0,0.0,0.0,0.0,0.0,0.0,0.0,0.0,0.0,0.0,0.0,0.0,0.0,0.0,0.0,0.0,0.0,0.0,0.0,0.0,0.0,0.0,0.0,-4.4341,-4.5583,0.0,-4.468,-4.5098,-4.5473,-4.5488,-4.7664,-4.9048,-4.9204,-5.0008,-5.0614,-5.0926,-5.1238,-5.1121,-5.0575,-5.1115,-5.0867,-4.9797,-5.0369,-5.0115,-4.9165,-4.9094,-4.8855,-4.8433,-4.6913,-4.6438,-4.6612,-4.5167,-4.5333,-4.6356,-4.4562,-4.3874,-4.3778,-4.2951,-4.2835,-4.3143,0.0,0.0,0.0,0.0,0.0,0.0,0.0,0.0,0.0,0.0,0.0,0.0,0.0,0.0,0.0,0.0,0.0,0.0,0.0,0.0,0.0,0.0,0.0,0.0,0.0,-2.5745,-2.6849,-2.8064,-2.9176,-2.9663,-2.9627,-3.0054,-3.0251,-3.0179,-3.0905,-3.1535,-3.2128,-3.2945,-3.3525,-3.3719,-3.2564,-3.198,-3.1728,0.0,0.0,0.0,0.0,0.0,0.0,0.0,0.0,0.0,0.0,0.0,0.0,0.0,0.0,0.0,0.0,0.0,0.0,0.0,0.0,0.0,0.0,0.0,0.0,0.0,0.0,0.0,0.0,0.0,0.0,0.0,0.0,0.0,0.0,0.0,-4.6137,-4.6099,-4.7857,-4.8573,-4.73,-4.8507,-4.9019,-4.8111,-5.0286,-5.1296,-5.0508,-5.1054,-5.1277,-5.0965,-5.0965,-5.0535,-4.9677,-5.0234,-4.9985,-4.8899,-4.9196,-4.8965,-4.8323,-4.793,-4.7568,-4.7184,-4.5938,-4.522,-4.4871,-4.368,-4.4191,-4.5565,-4.4042,-4.3643,-4.3758,-4.2643,-4.2412,-4.2624,0.0,0.0,0.0,0.0,0.0,0.0,0.0,0.0,0.0,0.0,0.0,0.0,0.0,0.0,0.0,0.0,0.0,0.0,0.0,0.0,0.0,0.0,0.0,0.0,-2.2962,-2.4272,-2.5647,-2.7028,-2.6751,-2.7208,-2.8293,-2.7277,-2.7073,-2.7582,-2.8075,-2.8834,-2.9708,-3.0241,-3.1605,-3.3334,-3.2836,-3.2263,-3.1758,0.0,0.0,0.0,0.0,0.0,0.0,0.0,0.0,0.0,0.0,0.0,0.0,0.0,0.0,0.0,0.0,0.0,0.0,0.0,0.0,0.0,0.0,0.0,0.0,0.0,0.0,0.0,0.0,0.0,0.0,0.0,0.0,0.0,-4.1779,-4.5199,-4.7242,-4.5679,-4.9117,-5.0669,-4.8247,-5.0375,-5.1275,-4.9663,-5.1381,-5.213,-5.1242,-5.1327,-5.1004,-5.0126,-5.0106,-4.9677,-4.8779,-4.8786,-4.8814,-4.8801,-4.7985,-4.7577,-4.748,-4.6509,-4.5599,-4.4754,-4.4591,-4.404,-4.3247,-4.3167,-4.3106,-4.3038,-4.2156,-4.2316,-4.2854,-4.1123,-4.1027,-4.1643,0.0,0.0,0.0,0.0,0.0,0.0,0.0,0.0,0.0,0.0,0.0,0.0,0.0,0.0,0.0,0.0,0.0,0.0,0.0,0.0,0.0,0.0,0.0,0.0,-2.0857,-2.1856,-2.289,-2.3793,-2.4096,-2.423,-2.4293,-2.4253,-2.4189,-2.4184,-2.4624,-2.5463,-2.6614,-2.7622,-2.906,-3.0751,-3.2483,-3.2842,-3.2436,0.0,0.0,0.0,0.0,0.0,0.0,0.0,0.0,0.0,0.0,0.0,0.0,0.0,0.0,0.0,0.0,0.0,0.0,0.0,0.0,0.0,0.0,0.0,0.0,0.0,0.0,0.0,0.0,0.0,0.0,0.0,0.0,-4.4165,-4.4749,-4.689,-4.8751,-4.9744,-5.0894,-5.1334,-5.065,-5.188,-5.2049,-5.0501,-5.1612,-5.2018,-5.1234,-5.1327,-5.1004,-5.0126,-5.0106,-4.9403,-4.7939,-4.8509,-4.8203,-4.7024,-4.7415,-4.6931,-4.5703,-4.5389,-4.4724,-4.3819,-4.3093,-4.2617,-4.2318,-4.166,-4.1382,-4.1407,-4.1759,-4.2002,-4.2027,-4.0912,-4.0642,-4.0816,0.0,0.0,0.0,0.0,0.0,0.0,0.0,0.0,0.0,0.0,0.0,0.0,0.0,0.0,0.0,0.0,0.0,0.0,0.0,0.0,0.0,0.0,0.0,-1.8291,-1.8966,-1.9501,-2.0123,-2.0888,-2.11,-2.1226,-2.1348,-2.1552,-2.1643,-2.1503,-2.1941,-2.2796,-2.399,-2.5212,-2.6553,-2.8053,-3.0407,-3.1544,-3.1936,-3.2896,-3.2867,-3.2424,-3.3102,-3.3986,-3.4766,-3.4449,0.0,0.0,0.0,0.0,0.0,0.0,0.0,0.0,0.0,0.0,0.0,0.0,0.0,0.0,0.0,0.0,0.0,0.0,0.0,0.0,0.0,0.0,0.0,0.0,-4.32,-4.537,-4.6542,-4.8409,-5.0005,-5.0947,-5.1391,-5.1334,-5.0627,-5.1411,-5.1293,-4.9682,-5.0558,-5.0848,-5.0111,-5.0199,-4.9894,-4.9087,-4.9052,-4.8232,-4.6534,-4.6963,-4.6541,-4.5226,-4.5714,-4.5445,-4.4453,-4.4382,-4.3868,0.0,-4.2361,-4.1897,-4.1501,-4.0965,-4.0733,0.0,0.0,0.0,0.0,0.0,-4.0489,-4.045,0.0,0.0,0.0,0.0,0.0,0.0,0.0,0.0,0.0,0.0,0.0,0.0,0.0,0.0,0.0,0.0,0.0,0.0,0.0,0.0,0.0,-1.6267,-1.6486,-1.6809,-1.7164,-1.7137,-1.7474,-1.8092,-1.7972,-1.8265,-1.8935,-1.9074,-1.9181,-1.9331,-1.9724,-2.0498,-2.1523,-2.282,-2.4013,-2.5205,-2.722,-2.908,-3.0745,-3.1824,-3.1918,-3.1645,-3.3206,-3.455,-3.5685,-3.6096,0.0,0.0,0.0,0.0,0.0,0.0,0.0,0.0,0.0,0.0,0.0,0.0,0.0,0.0,0.0,0.0,0.0,0.0,0.0,0.0,0.0,0.0,0.0,0.0,-4.4837,-4.6267,-4.7315,-4.9258,-5.0456,-5.0135,-5.0713,-5.0603,-4.9232,-4.9765,-4.9599,-4.8103,-4.8885,-4.9127,-4.8371,0.0,0.0,0.0,0.0,-4.6417,-4.4875,-4.4855,-4.4468,-4.3696,-4.37,-4.3647,-4.3553,-4.3488,-4.2985,-4.2162,-4.2038,-4.1567,-4.0898,-4.0843,-4.0713,-4.0552,-4.0598,-4.0607,-4.0588,-4.0408,-4.0354,-4.0239,0.0,0.0,0.0,0.0,0.0,0.0,0.0,0.0,0.0,0.0,0.0,0.0,0.0,0.0,0.0,0.0,0.0,0.0,0.0,0.0,-1.2118,-1.3119,-1.3534,-1.3987,-1.454,-1.4865,-1.5061,-1.5034,-1.5383,-1.5734,-1.6069,-1.6097,-1.6372,-1.6788,-1.6934,-1.7406,-1.8164,-1.9863,-2.0955,-2.1789,-2.4276,-2.6989,-2.9813,-3.171,-3.2451,-3.2574,-3.3693,-3.5045,-3.6199,-3.5442,-3.5826,-3.6515,-3.5892,0.0,0.0,0.0,0.0,0.0,0.0,0.0,0.0,0.0,0.0,0.0,0.0,0.0,0.0,0.0,0.0,0.0,0.0,0.0,0.0,-4.3277,-4.4784,-4.6029,-4.6572,-4.6983,-4.7641,-4.8768,-4.8504,-4.8446,-4.9037,-4.8668,-4.8271,-4.7945,-4.8255,-4.8145,-4.7342,-4.6844,0.0,-4.5364,-4.4762,-4.4289,-4.3957,-4.3957,-4.3866,-4.3696,0.0,0.0,-4.2655,-4.2637,-4.2165,-4.1322,-4.1308,-4.1149,-4.0907,-4.0888,-4.0397,-3.9702,-4.0347,-4.0607,-4.0511,-3.9792,-3.9527,-3.9411,0.0,0.0,0.0,0.0,0.0,0.0,0.0,0.0,0.0,0.0,0.0,0.0,0.0,0.0,0.0,0.0,0.0,0.0,0.0,-1.053,-1.0998,-1.175,-1.1764,-1.1888,-1.2066,-1.2339,-1.2301,-1.2028,-1.273,-1.3113,-1.3237,-1.3569,-1.3824,-1.41,-1.4209,-1.4834,-1.5977,-1.699,-1.8208,-1.9615,-2.1355,-2.3253,-2.5353,-2.8722,-3.0209,-3.0695,-3.2547,-3.3881,-3.4853,-3.5513,-3.6273,-3.6898,-3.6642,-3.6576,-3.6287,0.0,0.0,0.0,0.0,0.0,0.0,0.0,0.0,0.0,0.0,0.0,0.0,0.0,0.0,-3.9774,0.0,0.0,-4.4307,-4.5022,-4.5461,-4.5791,-4.5955,-4.5274,-4.5222,-4.6542,-4.674,-4.6706,-4.6555,-4.6621,-4.6642,-4.6642,-4.6358,-4.6053,-4.5723,-4.5045,-4.451,-4.4215,-4.3836,-4.347,-4.306,-4.304,-4.2829,-4.2405,-4.2407,-4.2175,-4.1751,-4.1753,-4.1503,-4.111,-4.1026,-4.0972,-4.091,-4.0413,-3.9638,-3.8839,-3.9232,-3.9364,-3.9259,-3.8806,-3.8657,-3.8527,0.0,0.0,0.0,0.0,0.0,0.0,0.0,0.0,0.0,0.0,0.0,0.0,0.0,0.0,0.0,0.0,0.0,0.0,0.0,-0.986,-1.0126,-1.0532,-1.0269,-1.0086,-0.9946,-1.0009,-0.9883,-0.9681,-1.0311,-1.0695,-1.0965,-1.1265,-1.1589,-1.1819,-1.19,-1.2681,-1.4041,-1.4447,-1.5598,-1.734,-1.8482,-1.9278,-2.0157,-2.4197,-2.6424,-2.7756,-3.0213,-3.1522,-3.2406,-3.4513,-3.5741,-3.647,-3.6518,-3.673,-3.6448,-3.4126,-3.3933,0.0,0.0,0.0,0.0,0.0,0.0,0.0,0.0,0.0,-3.8528,-3.9265,-4.094,-4.2469,-4.2996,-4.4418,-4.5633,-4.6124,-4.5651,-4.5124,-4.4947,-4.378,-4.3177,-4.3804,-4.4827,-4.5171,-4.4319,-4.4631,-4.4977,-4.511,-4.4384,-4.3901,-4.3852,-4.312,-4.2768,-4.298,-4.2882,-4.259,-4.2104,-4.2135,-4.1788,-4.1108,-4.1094,-4.1097,-4.1099,-4.1103,-4.1108,-4.1073,-4.0789,-4.0596,-4.0402,-3.9596,-3.8733,-3.7967,-3.7962,-3.7778,-3.7558,-3.7698,-3.7781,-3.7637,0.0,0.0,0.0,0.0,0.0,0.0,0.0,0.0,0.0,0.0,0.0,0.0,0.0,0.0,0.0,0.0,0.0,0.0,-0.7838,-0.7944,-0.8145,-0.8353,-0.8127,-0.8136,-0.8238,-0.8503,-0.8738,-0.8923,-0.86,-0.894,-0.9961,-0.9356,-0.9709,-1.0753,-1.0585,-1.0972,-1.1732,-1.2741,-1.3309,-1.3671,-1.5581,-1.6318,-1.6568,-1.8573,-2.1588,-2.4963,-2.6567,-2.7858,-2.8982,-2.9863,-3.1282,-3.2695,-3.3128,-3.4126,-3.4737,-3.2507,0.0,-3.2531,-3.1442,-3.2282,-3.3946,-3.5866,-3.6236,-3.6999,0.0,0.0,-4.2062,-4.3523,-4.4337,-4.4812,-4.4901,-4.4645,-4.4285,-4.4088,-4.3904,-4.3502,-4.2523,-4.2195,-4.1661,-4.0681,-4.2202,-4.3792,-4.496,-4.3881,-4.3386,-4.4093,-4.3407,-4.2642,-4.1932,-4.1216,-4.0814,-4.0849,-4.0335,-4.0381,-4.1057,-4.1184,-4.1191,-4.1094,-4.1104,-4.1094,-4.1099,-4.1099,-4.1103,-4.1051,-4.0196,-3.9369,-3.858,-3.8422,-3.7865,-3.713,-3.7058,-3.6571,-3.5956,-3.6672,-3.6922,-3.6799,0.0,0.0,0.0,0.0,0.0,0.0,0.0,0.0,0.0,0.0,0.0,0.0,0.0,0.0,0.0,0.0,0.0,0.0,-0.7498,-0.7524,-0.7467,-0.7335,-0.724,-0.6968,-0.6623,-0.7099,-0.7269,-0.7058,-0.7345,-0.7637,-0.7917,-0.7723,-0.8062,-0.8858,-0.8694,-0.9362,-1.0638,-1.0864,-1.146,-1.2346,-1.3331,-1.3901,-1.4313,-1.5565,-1.7233,-1.9369,-2.2894,-2.4851,0.0,0.0,-2.8148,-2.9291,-2.9524,-3.0381,-3.0958,-2.9215,-2.9565,0.0,-3.1456,-3.2076,-3.3093,0.0,-3.6842,-3.7969,-4.04,-4.1077,-4.1619,-4.3031,-4.4156,-4.4734,-4.4183,-4.4501,-4.4707,0.0,-4.3823,-4.3266,-4.2613,-4.2087,-4.1321,-4.0055,-4.064,-4.153,-4.2385,-4.245,-4.2582,-4.2924,-4.239,-4.1896,-4.1628,-4.0835,-4.0415,-4.0511,-4.0261,-4.0341,-4.0781,-4.0914,-4.0974,-4.0974,-4.1057,-4.084,-4.0336,-4.0336,-4.0042,-3.9511,-3.9151,-3.8478,-3.7595,-3.7575,-3.7036,-3.6231,-3.6221,-3.5678,-3.493,-3.523,-3.5316,-3.5156,0.0,0.0,0.0,0.0,0.0,0.0,0.0,0.0,0.0,0.0,0.0,0.0,0.0,0.0,0.0,0.0,0.0,0.0,0.0,-0.7245,-0.7047,-0.6445,-0.6391,0.0,-0.5611,-0.594,-0.6046,-0.5931,-0.6233,-0.6478,-0.6601,-0.6447,-0.6722,-0.7255,-0.7265,-0.7995,-0.9198,-0.9205,-0.9897,-1.1066,-1.1409,-1.1997,-1.2655,-1.3535,-1.4234,-1.5323,-1.9639,-2.1716,0.0,0.0,-2.536,-2.6244,-2.6397,-2.7055,-2.748,-2.6334,-2.7026,-2.8598,-3.0457,0.0,0.0,-3.4899,-3.6632,-3.7915,-3.911,-3.9901,-4.0663,-4.1623,-4.2774,-4.3439,-4.2737,-4.3239,-4.3675,-4.35,-4.2785,-4.2179,-4.1998,-4.1301,-4.0492,-3.9695,-3.9666,-3.979,-4.0108,-4.0985,-4.16,-4.185,-4.139,-4.1151,-4.1227,-4.0634,-4.0341,-4.0446,-4.0241,-4.0307,-4.0629,-4.0315,-4.0282,-4.054,-4.0409,-3.9911,-3.9087,-3.9087,-3.8573,-3.7734,-3.8026,-3.7471,-3.6378,-3.6372,-3.5842,-3.502,-3.501,-3.4613,-3.4023,-3.3749,-3.3751,-3.3812,0.0,0.0,0.0,0.0,0.0,0.0,0.0,0.0,0.0,0.0,0.0,0.0,0.0,0.0,0.0,0.0,0.0,0.0,0.0,-0.6542,-0.6389,-0.5505,-0.5456,-0.5467,-0.5615,-0.5174,-0.5333,-0.6203,-0.5159,-0.5342,-0.657,-0.5739,-0.5712,-0.6375,-0.6688,-0.6863,-0.7046,-0.7767,-0.8425,-0.9163,-0.9796,-1.0626,-1.1623,-1.2315,-1.3259,-1.4515,-1.6896,0.0,0.0,0.0,-2.2685,-2.3493,-2.3975,-2.4597,0.0,-2.4601,-2.5183,0.0,0.0,0.0,-3.1082,-3.3321,-3.4969,-3.6287,-3.6999,-3.8684,-4.0028,-4.0077,-4.0513,-4.0906,-4.0889,-4.0318,-3.9986,-4.0485,-3.9932,-3.9468,-3.9582,-3.8965,-3.864,-3.9085,-3.9122,-3.9157,0.0,-3.9575,-4.0136,-4.098,-4.049,-4.0195,-4.033,-4.0253,-4.0234,-4.0291,-3.9621,-3.9657,-4.0504,-3.903,-3.8734,-3.9621,-3.8855,-3.8065,-3.7277,-3.7277,-3.6794,-3.6014,-3.6874,-3.6223,-3.4583,-3.4586,-3.4056,-3.3272,-3.3275,-3.3266,-3.3121,-3.2289,-3.2474,-3.3137,0.0,0.0,0.0,0.0,0.0,0.0,0.0,0.0,0.0,0.0,0.0,0.0,0.0,0.0,0.0,0.0,0.0,0.0,0.0,-0.6042,-0.5589,-0.4482,-0.442,-0.425,-0.3658,-0.3527,-0.3748,-0.4417,-0.414,-0.4378,-0.5143,-0.4907,-0.5043,-0.55,-0.5634,-0.6149,-0.7034,-0.7376,-0.8077,-0.8904,-0.9656,-1.0341,-1.1019,-1.1654,-1.2345,-1.3243,0.0,0.0,0.0,0.0,-2.077,-2.1394,-2.1542,-2.1946,0.0,-2.2525,-2.3096,-2.4119,-2.6019,0.0,-2.8965,-3.1493,-3.3098,-3.4271,-3.5134,-3.6226,-3.7012,-3.6909,-3.7143,-3.7298,-3.7127,-3.7302,-3.7814,-3.867,-3.9084,-3.9215,-3.9058,-3.9535,-3.9625,-3.8747,-3.9351,0.0,0.0,0.0,0.0,-3.9491,-3.9688,-3.9848,-3.9892,-3.9486,-3.928,-3.93,-3.8554,-3.8284,-3.857,-3.8185,-3.8157,-3.8466,-3.7201,-3.6506,-3.6294,-3.5134,-3.4471,-3.4267,-3.4546,-3.4332,-3.3763,-3.3761,-3.3574,-3.3278,-3.327,-3.2882,-3.2244,-3.1416,-3.0909,-3.0709,0.0,0.0,0.0,0.0,0.0,0.0,0.0,0.0,0.0,0.0,0.0,0.0,0.0,0.0,0.0,0.0,0.0,0.0,0.0,0.0,-0.4948,-0.374,-0.3812,-0.3617,-0.2949,-0.273,-0.2834,-0.3284,-0.3481,-0.3737,-0.4052,-0.4382,-0.4579,-0.4648,-0.4865,-0.5538,-0.6523,-0.674,-0.7492,-0.8553,-0.9335,-1.0055,-1.0872,-1.162,-1.241,0.0,0.0,0.0,0.0,0.0,-1.9448,-2.0042,-1.9876,-2.0167,-2.0658,-2.1258,-2.1899,-2.2941,-2.5,-2.6121,-2.7179,-2.9486,-3.0743,-3.1612,-3.2327,-3.2998,-3.3552,-3.3824,-3.3879,-3.3949,-3.4226,-3.5165,-3.6041,-3.6417,-3.7345,-3.797,-3.7905,-3.8425,-3.8874,-3.8966,-3.9749,-4.0167,0.0,0.0,0.0,-3.8695,-3.9397,-3.9808,-3.9712,-3.9015,-3.8665,-3.8784,-3.7719,-3.73,-3.7604,-3.7135,-3.6773,-3.6488,-3.5005,-3.4356,-3.4393,-3.333,-3.2861,-3.2927,-3.3225,-3.3184,-3.2884,-3.2555,-3.2225,-3.1884,-3.1581,-3.1086,-3.0475,-2.9985,-2.9255,-2.8625,0.0,0.0,0.0,0.0,0.0,0.0,0.0,0.0,0.0,0.0,0.0,0.0,0.0,0.0,0.0,0.0,0.0,0.0,0.0,0.0,0.0,-0.331,-0.3513,-0.3506,-0.3288,-0.27,-0.2547,-0.2825,-0.3167,-0.3351,-0.3438,-0.397,-0.4092,-0.3869,-0.43,-0.4944,-0.5504,-0.5803,-0.6676,-0.8051,-0.8819,-0.9856,-1.1112,-1.2147,0.0,0.0,0.0,0.0,0.0,0.0,0.0,0.0,-1.8995,-1.9291,-1.9917,-2.0851,-2.1622,-2.2634,-2.471,-2.5315,-2.573,-2.7298,-2.7925,-2.8311,-2.8897,-2.9312,-2.9819,-3.0917,-3.0922,-3.1025,0.0,0.0,-3.4607,-3.388,-3.4866,-3.5876,-3.6269,-3.5907,-3.669,0.0,0.0,0.0,0.0,0.0,0.0,-3.8541,0.0,-3.99,-3.9642,-3.8733,-3.8376,-3.8669,-3.7091,-3.6596,-3.7376,-3.5759,-3.4606,-3.3911,-3.2469,-3.1767,-3.1805,-3.1883,-3.1889,-3.1903,-3.2733,-3.26,-3.1744,-3.0914,-3.0085,-2.9255,-2.8489,-2.8166,-2.8108,-2.8125,-2.7601,-2.7,0.0,0.0,0.0,0.0,0.0,0.0,0.0,0.0,0.0,0.0,0.0,0.0,0.0,0.0,0.0,0.0,0.0,0.0,0.0,0.0,0.0,0.0,0.0,0.0,0.0,0.0,0.0,0.0,0.0,-0.2503,-0.3409,-0.3421,-0.3691,0.0,-0.3997,-0.4545,-0.58,-0.5469,-0.6214,-0.7722,0.0,-0.9771,-1.0937,0.0,0.0,0.0,0.0,0.0,0.0,0.0,0.0,0.0,0.0,-2.0002,-2.0366,-2.1107,-2.1578,-2.2092,-2.3296,-2.4019,-2.4647,-2.5472,-2.6112,-2.6643,-2.6998,-2.7611,-2.8111,-2.804,-2.8385,-2.8659,0.0,0.0,0.0,-3.3082,-3.5441,0.0,-3.6718,-3.7945,0.0,-3.7866,0.0,-3.96,-3.8653,-3.9124,0.0,0.0,-3.8361,-3.8731,-3.8663,-3.7776,-3.7234,-3.7234,-3.5899,-3.4962,-3.4486,-3.345,-3.2952,-3.2938,-3.1828,-3.145,-3.17,-3.1052,-3.049,-3.0088,-3.0295,-2.9907,-2.9082,-2.8855,-2.8621,-2.841,-2.8218,-2.8123,-2.8039,-2.7459,-2.7122,-2.6827,0.0,0.0,0.0,0.0,0.0,0.0,0.0,0.0,0.0,0.0,0.0,0.0,0.0,0.0,0.0,0.0,0.0,0.0,0.0,0.0,0.0,0.0,0.0,0.0,0.0,0.0,0.0,0.0,0.0,0.0,0.0,-0.3149,-0.364,-0.4246,-0.3889,-0.4443,-0.5613,0.0,0.0,0.0,0.0,0.0,0.0,0.0,0.0,0.0,0.0,0.0,0.0,0.0,0.0,-1.996,-2.0241,-2.0465,-2.0686,-2.1398,0.0,-2.185,-2.2464,-2.2943,-2.3354,-2.3563,-2.4003,-2.448,-2.5032,-2.5381,-2.5798,-2.6368,-2.6214,0.0,0.0,0.0,0.0,0.0,0.0,0.0,-3.6253,-3.727,-3.7894,0.0,-3.8066,0.0,-3.8148,-3.838,-3.831,0.0,-3.8151,-3.8393,-3.8277,-3.722,-3.6619,-3.6714,-3.5402,-3.4292,-3.3402,-3.2221,-3.1713,-3.1849,-3.0947,-3.0479,-3.041,-2.9936,-2.938,-2.8788,0.0,-2.8481,-2.802,-2.7651,-2.7485,-2.7451,-2.7098,-2.6958,-2.6861,-2.6064,-2.5779,-2.5624,0.0,0.0,0.0,0.0,0.0,0.0,0.0,0.0,0.0,0.0,0.0,0.0,0.0,0.0,0.0,0.0,0.0,0.0,0.0,0.0,0.0,0.0,0.0,0.0,0.0,0.0,0.0,0.0,0.0,0.0,0.0,0.0,0.0,0.0,0.0,0.0,0.0,0.0,0.0,0.0,0.0,0.0,0.0,0.0,0.0,0.0,0.0,0.0,0.0,0.0,-1.8983,-2.0382,-2.0616,-2.0803,-2.1119,-2.1614,-2.1734,-2.1685,-2.186,-2.2035,-2.2096,-2.18,-2.2047,-2.2411,-2.3036,-2.3111,-2.3434,-2.5113,0.0,-2.3945,-2.5529,-2.8139,-2.9867,-2.95,0.0,-3.5759,-3.541,-3.5559,-3.6118,-3.7253,-3.7014,-3.7067,-3.8019,-3.7611,-3.7369,-3.7574,-3.7954,-3.8094,-3.7987,-3.6595,-3.5911,-3.611,-3.4741,-3.373,-3.313,-3.1502,-3.064,-3.0527,-2.9886,-2.9228,-2.8584,-2.8708,-2.8426,-2.7767,0.0,0.0,-2.7572,-2.6829,-2.6455,-2.6302,-2.5691,-2.5337,-2.5078,-2.4487,-2.4208,-2.4007,0.0,0.0,0.0,0.0,0.0,0.0,0.0,0.0,0.0,0.0,0.0,0.0,0.0,0.0,0.0,0.0,0.0,0.0,0.0,0.0,0.0,0.0,0.0,0.0,0.0,0.0,0.0,0.0,0.0,0.0,0.0,0.0,0.0,0.0,0.0,0.0,0.0,0.0,0.0,0.0,0.0,0.0,0.0,0.0,0.0,0.0,0.0,0.0,0.0,0.0,-1.9939,-2.1454,-2.1478,-2.1737,-2.191,-2.156,-2.1255,-2.0961,-2.1019,-2.1145,-2.1349,-2.1518,-2.1592,-2.1602,-2.1545,-2.1925,0.0,0.0,-2.3111,-2.3782,-2.4367,-2.6092,-2.8054,-3.0002,0.0,0.0,0.0,0.0,-3.6144,0.0,0.0,0.0,0.0,0.0,0.0,0.0,0.0,-3.5994,-3.6215,-3.4595,-3.3455,-3.3075,-3.1704,-3.1186,-3.1666,-3.0287,-2.926,-2.8651,-2.8483,-2.8035,-2.7403,-2.7578,-2.7279,-2.6596,-2.6771,0.0,-2.5755,-2.562,-2.5139,-2.461,-2.5119,-2.4524,-2.3405,-2.3941,-2.3717,-2.3034,0.0,0.0,0.0,0.0,0.0,0.0,0.0,0.0,0.0,0.0,0.0,0.0,0.0,0.0,0.0,0.0,0.0,0.0,0.0,0.0,0.0,0.0,0.0,0.0,0.0,0.0,0.0,0.0,0.0,0.0,0.0,0.0,0.0,0.0,0.0,0.0,0.0,0.0,0.0,0.0,0.0,0.0,0.0,0.0,0.0,0.0,0.0,0.0,0.0,0.0,-2.0745,-2.1741,-2.1419,-2.1533,-2.1728,-2.1476,-2.1066,-2.0701,-2.0713,-2.0633,-2.052,-2.0335,-2.037,-2.0391,-2.042,0.0,0.0,0.0,-2.2508,-2.3239,-2.3973,0.0,0.0,0.0,0.0,0.0,0.0,0.0,0.0,0.0,0.0,0.0,0.0,0.0,0.0,0.0,0.0,-3.3407,-3.4491,-3.3143,-3.2067,-3.1547,-3.042,-2.9904,-3.0009,-2.8906,-2.8043,-2.7414,-2.7818,-2.7435,-2.6391,-2.6889,-2.6559,-2.5571,-2.5671,0.0,-2.5209,-2.5209,-2.4971,-2.4617,-2.4579,-2.4081,-2.3322,-2.2898,-2.2458,-2.1951,0.0,0.0,0.0,0.0,0.0,0.0,0.0,0.0,0.0,0.0,0.0,0.0,0.0,0.0,0.0,0.0,0.0,0.0,0.0,0.0,0.0,0.0,0.0,0.0,0.0,0.0,0.0,0.0,0.0,0.0,0.0,0.0,0.0,0.0,0.0,0.0,0.0,0.0,0.0,0.0,0.0,0.0,0.0,0.0,0.0,0.0,0.0,0.0,0.0,0.0,-2.1118,-2.1756,-2.1043,-2.1283,-2.1825,-2.1368,-2.1079,-2.0875,-2.067,-2.0366,-2.0043,-1.9631,-1.9617,-1.9679,-1.962,-1.9888,0.0,0.0,-2.2083,-2.2727,-2.3845,0.0,-2.6517,0.0,0.0,0.0,0.0,0.0,0.0,0.0,0.0,0.0,0.0,0.0,0.0,0.0,0.0,0.0,-3.2248,-3.1291,-3.048,-3.0062,-2.9133,-2.8522,-2.8311,-2.7659,-2.6995,-2.6319,-2.7145,-2.6751,-2.5356,-2.6043,-2.5772,-2.4762,-2.479,0.0,0.0,-2.4745,-2.4548,-2.4228,-2.3763,-2.3328,-2.2818,-2.179,-2.1225,-2.091,0.0,0.0,0.0,0.0,0.0,0.0,0.0,0.0,0.0,0.0,0.0,0.0,0.0,0.0,0.0,0.0,0.0,0.0,0.0,0.0,0.0,0.0,0.0,0.0,0.0,0.0,0.0,0.0,0.0,0.0,0.0,0.0,0.0,0.0,0.0,0.0,0.0,0.0,0.0,0.0,0.0,0.0,0.0,0.0,0.0,0.0,0.0,0.0,0.0,0.0,0.0,-2.1747,-2.0665,-2.1846,-2.3183,-2.126,0.0,0.0,-2.0875,-2.0586,-2.0583,-2.0637,-2.0682,-2.036,-1.9154,0.0,0.0,-2.0322,-2.1445,-2.2698,-2.3742,-2.3746,0.0,0.0,0.0,0.0,0.0,0.0,0.0,0.0,0.0,0.0,0.0,0.0,0.0,0.0,0.0,0.0,-2.8765,-2.8103,-2.7712,-2.7718,-2.6437,-2.6064,-2.6727,-2.6801,-2.6265,-2.5081,-2.5882,-2.5514,-2.4147,-2.4432,-2.4467,-2.4356,-2.4403,0.0,0.0,-2.3583,-2.2771,-2.1623,-2.228,-2.1573,-2.0247,-2.0895,-2.063,-1.993,0.0,0.0,0.0,0.0,0.0,0.0,0.0,0.0,0.0,0.0,0.0,0.0,0.0,0.0,0.0,0.0,0.0,0.0,0.0,0.0,0.0,0.0,0.0,0.0,0.0,0.0,0.0,0.0,0.0,0.0,0.0,0.0,0.0,0.0,0.0,0.0,0.0,0.0,0.0,0.0,0.0,0.0,0.0,0.0,0.0,0.0,0.0,0.0,0.0,0.0,0.0,0.0,-2.1081,-2.1812,0.0,0.0,-2.1163,-2.1296,-2.15,-2.156,-2.1416,-2.0824,-2.0483,-2.0098,-1.9334,0.0,-1.9901,-2.0447,-2.1493,-2.263,-2.3683,-2.3813,-2.4097,0.0,0.0,0.0,0.0,0.0,0.0,0.0,0.0,0.0,0.0,0.0,0.0,0.0,0.0,0.0,-2.5855,-2.5744,-2.5716,-2.5842,-2.531,-2.5038,-2.4985,-2.5032,-2.4601,-2.3786,-2.473,-2.4626,-2.3606,-2.4372,-2.426,-2.3474,-2.3492,0.0,0.0,-2.2563,-2.2233,-2.1722,-2.1606,-2.111,-2.0444,-2.0358,-2.0013,-1.9636,0.0,0.0,0.0,0.0,0.0,0.0,0.0,0.0,0.0,0.0,0.0,0.0,0.0,0.0,0.0,0.0,0.0,0.0,0.0,0.0,0.0,0.0,0.0,0.0,0.0,0.0,0.0,0.0,0.0,0.0,0.0,0.0,0.0,0.0,0.0,0.0,0.0,0.0,0.0,0.0,0.0,0.0,0.0,0.0,0.0,0.0,0.0,0.0,0.0,0.0,0.0,0.0,0.0,0.0,0.0,0.0,-2.1127,-2.1211,-2.1801,-2.2077,-2.2017,-2.1272,-2.0786,-2.0268,0.0,0.0,-1.9874,-2.0471,-2.1553,-2.2713,-2.3638,-2.3949,-2.4112,0.0,0.0,0.0,0.0,0.0,0.0,0.0,0.0,0.0,0.0,0.0,0.0,0.0,0.0,0.0,0.0,-2.3521,-2.3809,-2.4184,-2.4058,-2.3847,-2.3488,-2.3612,-2.3384,-2.2822,-2.3829,-2.3837,-2.2957,-2.375,-2.3458,-2.2389,0.0,0.0,0.0,-2.1359,-2.1279,-2.11,-2.0589,-2.0385,-2.0329,-1.9811,-1.9564,-1.9512,0.0,0.0,0.0,0.0,0.0,0.0,0.0,0.0,0.0,0.0,0.0,0.0,0.0,0.0,0.0,0.0,0.0,0.0,0.0,0.0,0.0,0.0,0.0,0.0,0.0,0.0,0.0,0.0,0.0,0.0,0.0,0.0,0.0,0.0,0.0,0.0,0.0,0.0,0.0,0.0,0.0,0.0,0.0,0.0,0.0,0.0,0.0,0.0,0.0,0.0,0.0,0.0,0.0,0.0,0.0,0.0,-2.1368,-2.2065,-2.1548,-2.1789,-2.2197,-2.2173,-2.1886,-2.118,0.0,0.0,-2.1154,-2.0037,-2.1524,-2.3121,-2.3526,-2.3878,-2.4112,-2.4112,0.0,0.0,0.0,0.0,0.0,0.0,0.0,0.0,0.0,0.0,0.0,0.0,0.0,0.0,0.0,-2.1309,-2.1837,-2.2698,-2.2391,-2.2214,-2.2237,-2.2878,-2.2946,-2.2439,-2.3215,-2.3084,-2.2109,-2.2,-2.1684,0.0,0.0,0.0,0.0,-1.9929,-1.9522,-1.8931,-1.8913,-1.9034,-1.9219,-1.9219,-1.9329,-1.9501,0.0,0.0,0.0,0.0,0.0,0.0,0.0,0.0,0.0,0.0,0.0,0.0,0.0,0.0,0.0,0.0,0.0,0.0,0.0,0.0,0.0,0.0,0.0,0.0,0.0,0.0,0.0,0.0,0.0,0.0,0.0,0.0,0.0,0.0,0.0,0.0,0.0,0.0,0.0,0.0,0.0,0.0,0.0,0.0,0.0,0.0,0.0,0.0,0.0,0.0,0.0,0.0,0.0,0.0,0.0,0.0,0.0,0.0,-2.1628,-2.2067,-2.2299,-2.1567,-2.1096,-2.0582,-1.9723,-2.0047,-2.0522,-2.0534,-2.186,-2.3179,-2.3715,-2.3949,-2.4112,-2.4112,-2.4112,0.0,0.0,0.0,0.0,0.0,0.0,0.0,0.0,0.0,0.0,0.0,0.0,0.0,0.0,-2.0696,-2.1022,-2.1866,-2.2015,-2.2044,-2.1986,-2.2149,-2.2178,-2.1998,-2.2406,-2.215,-2.1361,-2.1478,0.0,0.0,0.0,0.0,0.0,-1.8939,-1.8873,-1.8753,-1.8717,-1.8753,-1.8877,-1.8998,-1.9066,-1.9117,0.0,0.0,0.0,0.0,0.0,0.0,0.0,0.0,0.0,0.0,0.0,0.0,0.0,0.0,0.0,0.0,0.0,0.0,0.0,0.0,0.0,0.0,0.0,0.0,0.0,0.0,0.0,0.0,0.0,0.0,0.0,0.0,0.0,0.0,0.0,0.0,0.0,0.0,0.0,0.0,0.0,0.0,-1.7641,0.0,0.0,0.0,0.0,0.0,0.0,0.0,0.0,0.0,0.0,0.0,0.0,0.0,-2.0158,0.0,0.0,-2.1562,-2.182,-2.1145,-2.0693,-2.0308,-2.0055,-2.0353,-2.0818,-2.1227,-2.2364,-2.345,-2.3826,-2.4008,-2.4112,-2.4112,-2.4112,0.0,0.0,0.0,0.0,0.0,0.0,0.0,0.0,0.0,0.0,0.0,0.0,0.0,0.0,-2.0264,-2.0483,-2.0991,-2.1321,-2.1552,-2.1631,-2.1554,-2.1453,-2.1354,-2.1454,-2.1016,-2.017,-2.0255,0.0,0.0,0.0,0.0,0.0,-1.7997,-1.8108,-1.8413,-1.8079,-1.8033,-1.818,-1.8592,-1.8431,-1.8154,0.0,0.0,0.0,0.0,0.0,0.0,0.0,0.0,0.0,0.0,0.0,0.0,0.0,0.0,0.0,0.0,0.0,0.0,0.0,0.0,0.0,0.0,0.0,0.0,0.0,0.0,0.0,-1.8903,-1.8543,-1.8035,-1.7379,0.0,0.0,0.0,0.0,0.0,0.0,0.0,0.0,0.0,0.0,0.0,0.0,0.0,0.0,0.0,0.0,0.0,0.0,0.0,0.0,0.0,0.0,0.0,0.0,0.0,0.0,0.0,0.0,-2.0563,0.0,-2.0969,-2.0699,-2.049,-2.0769,-2.1306,0.0,-2.2056,-2.3057,-2.3891,-2.3891,-2.4008,-2.4112,-2.4112,-2.4151,0.0,0.0,0.0,0.0,0.0,0.0,0.0,0.0,0.0,0.0,0.0,0.0,0.0,0.0,-1.9934,-2.0112,-2.0112,-2.0356,-2.0686,-2.1086,-2.0943,-2.0731,-2.048,-2.041,-1.9811,-1.8749,-1.8568,0.0,0.0,0.0,0.0,0.0,-1.7173,-1.7373,-1.7936,-1.7236,-1.7053,-1.7263,-1.8012,-1.7559,-1.6774,0.0,0.0,0.0,0.0,0.0,0.0,0.0,0.0,0.0,0.0,0.0,0.0,0.0,0.0,0.0,0.0,0.0,0.0,0.0,0.0,0.0,0.0,0.0,0.0,0.0,0.0,0.0,-1.923,-1.9125,-1.8756,-1.8221,-1.8167,0.0,0.0,0.0,0.0,0.0,0.0,0.0,0.0,0.0,0.0,0.0,0.0,0.0,0.0,-1.9962,-2.0219,0.0,0.0,0.0,0.0,0.0,0.0,0.0,0.0,-1.9759,-1.9872,-2.0448,0.0,-2.0195,-2.0781,-2.0848,-2.0927,0.0,-2.2223,-2.2691,-2.2747,0.0,0.0,-2.4067,-2.4054,-2.4112,-2.4112,-2.4491,0.0,0.0,0.0,0.0,0.0,0.0,0.0,0.0,0.0,0.0,0.0,0.0,0.0,0.0,-1.9281,-1.903,-1.8981,-1.85,-1.8768,-1.9893,-1.9814,-1.9624,-1.9299,-1.9228,-1.8905,-1.8332,-1.8245,0.0,0.0,0.0,0.0,-1.7618,-1.7434,-1.7603,-1.7966,-1.7691,-1.7309,-1.7004,-1.789,-1.7314,-1.6308,0.0,0.0,0.0,0.0,0.0,0.0,0.0,0.0,0.0,0.0,0.0,0.0,0.0,0.0,0.0,0.0,0.0,0.0,0.0,0.0,0.0,0.0,0.0,0.0,0.0,0.0,0.0,0.0,0.0,-2.0617,0.0,0.0,0.0,0.0,0.0,0.0,0.0,0.0,0.0,0.0,-2.0195,0.0,0.0,0.0,0.0,0.0,-2.0283,-2.0296,0.0,-2.0182,-2.0182,-2.008,0.0,0.0,0.0,0.0,-1.9862,-2.004,-2.0714,-2.0721,-2.0769,-2.15,-2.1708,-2.1903,-2.2691,0.0,0.0,0.0,0.0,0.0,0.0,0.0,0.0,0.0,-2.4818,0.0,0.0,0.0,0.0,0.0,0.0,0.0,0.0,0.0,0.0,0.0,0.0,0.0,0.0,-1.8582,-1.8327,-1.8153,-1.7692,-1.7861,-1.8762,-1.8714,-1.8486,-1.8158,-1.8247,-1.8023,-1.7507,-1.7523,-1.7313,0.0,0.0,0.0,-1.7207,-1.6903,-1.707,-1.7476,-1.6837,-1.6596,-1.661,-1.6891,-1.6272,-1.5485,0.0,0.0,0.0,0.0,0.0,0.0,0.0,0.0,0.0,0.0,0.0,0.0,0.0,0.0,0.0,0.0,0.0,0.0,0.0,0.0,0.0,0.0,0.0,0.0,0.0,0.0,0.0,0.0,0.0,0.0,0.0,0.0,-2.2133,0.0,0.0,0.0,0.0,0.0,0.0,0.0,-2.1622,0.0,0.0,0.0,0.0,0.0,0.0,0.0,0.0,-2.0283,-2.0182,-2.0093,-2.0093,0.0,0.0,0.0,0.0,0.0,-2.1014,-2.1517,-2.1945,-2.2522,-2.2745,-2.2981,-2.3748,0.0,0.0,0.0,0.0,0.0,0.0,0.0,0.0,0.0,0.0,0.0,0.0,0.0,0.0,0.0,0.0,0.0,0.0,0.0,0.0,0.0,0.0,0.0,0.0,-1.7805,-1.7641,-1.7418,-1.7199,-1.7238,-1.7496,-1.7552,-1.7378,-1.7049,-1.7296,-1.7121,-1.6617,-1.6686,-1.6712,0.0,0.0,0.0,-1.6716,-1.6208,-1.6394,-1.6888,-1.5872,-1.5819,-1.6249,-1.5841,-1.5276,-1.481,0.0,0.0,0.0,0.0,0.0,0.0,0.0,0.0,0.0,0.0,0.0,0.0,0.0,0.0,0.0,0.0,0.0,0.0,0.0,0.0,0.0,0.0,0.0,0.0,0.0,0.0,0.0,0.0,0.0,0.0,-2.2512,-2.2466,-2.2751,0.0,0.0,0.0,-2.2763,-2.2714,-2.2586,-2.2437,-2.2793,0.0,0.0,0.0,0.0,0.0,0.0,0.0,0.0,-2.0599,-2.0599,-2.0549,-2.0461,0.0,0.0,0.0,0.0,0.0,-2.1488,-2.2495,-2.3211,-2.2987,-2.3302,-2.3748,-2.4028,0.0,0.0,0.0,0.0,0.0,0.0,0.0,0.0,0.0,0.0,0.0,0.0,0.0,0.0,0.0,0.0,0.0,0.0,0.0,0.0,0.0,0.0,0.0,0.0,-1.6694,-1.6442,-1.6576,-1.6019,-1.5696,-1.571,-1.6191,-1.6273,-1.5946,-1.5975,-1.6072,-1.6191,-1.6382,-1.6355,0.0,0.0,-1.6517,-1.6607,-1.6522,-1.6693,-1.6986,-1.68,-1.6506,-1.6225,-1.6132,-1.5766,-1.5227,0.0,0.0,0.0,0.0,0.0,0.0,0.0,0.0,0.0,0.0,0.0,0.0,0.0,0.0,0.0,0.0,0.0,0.0,0.0,0.0,0.0,0.0,0.0,0.0,0.0,0.0,0.0,0.0,0.0,-2.4112,-2.3791,-2.3391,-2.345,-2.3926,0.0,0.0,-2.4226,-2.4226,-2.4129,-2.3963,0.0,0.0,0.0,0.0,0.0,0.0,0.0,0.0,0.0,0.0,-2.0662,-2.0562,-2.0511,0.0,0.0,0.0,0.0,0.0,-2.1457,-2.2299,-2.3036,-2.3501,-2.4429,-2.5299,-2.5497,0.0,0.0,0.0,0.0,0.0,0.0,0.0,0.0,0.0,0.0,0.0,0.0,0.0,0.0,0.0,0.0,0.0,0.0,0.0,0.0,0.0,0.0,0.0,0.0,0.0,-1.5327,-1.5297,-1.5153,-1.498,-1.4777,-1.5705,-1.5956,-1.5492,-1.601,-1.6113,-1.5854,-1.639,-1.6359,-1.5853,0.0,-1.5503,-1.5622,-1.5664,-1.5822,-1.5997,-1.5766,-1.5735,-1.5798,-1.5228,-1.4924,-1.4716,0.0,0.0,0.0,0.0,0.0,0.0,0.0,0.0,0.0,0.0,0.0,0.0,0.0,0.0,0.0,0.0,0.0,0.0,0.0,0.0,0.0,0.0,0.0,0.0,0.0,0.0,-2.5689,-2.5689,-2.5615,-2.5389,-2.5075,-2.455,-2.4544,0.0,0.0,0.0,-2.5667,-2.5619,-2.5571,-2.549,0.0,0.0,0.0,0.0,0.0,0.0,0.0,0.0,0.0,0.0,0.0,0.0,0.0,0.0,0.0,-2.0511,-2.0562,-2.0692,-2.1303,-2.1943,-2.2648,-2.3655,0.0,-2.5999,-2.6582,0.0,0.0,0.0,0.0,0.0,0.0,0.0,0.0,0.0,0.0,0.0,0.0,0.0,0.0,0.0,0.0,0.0,0.0,0.0,0.0,0.0,0.0,0.0,0.0,0.0,-1.4865,-1.4733,-1.4819,-1.4764,-1.4504,-1.5314,-1.5561,-1.5192,-1.6123,-1.6157,-1.5492,-1.5995,-1.5921,-1.5298,-1.4676,-1.4463,-1.4554,-1.4799,-1.5008,-1.5108,-1.4965,-1.5057,-1.5216,-1.446,-1.41,-1.3922,0.0,0.0,0.0,0.0,0.0,0.0,0.0,0.0,0.0,0.0,0.0,0.0,0.0,0.0,0.0,0.0,0.0,0.0,0.0,0.0,0.0,0.0,0.0,0.0,0.0,-2.6724,-2.6349,-2.6349,-2.598,-2.5726,-2.5626,-2.5823,-2.6235,-2.6785,0.0,0.0,-2.669,-2.6627,-2.6434,-2.6149,-2.6292,0.0,0.0,0.0,0.0,0.0,0.0,0.0,0.0,0.0,0.0,0.0,0.0,0.0,-2.0662,-2.0662,-2.0712,-2.078,-2.1355,-2.193,-2.2518,-2.3132,-2.3799,0.0,-2.6308,-2.6203,0.0,0.0,0.0,0.0,0.0,0.0,0.0,0.0,0.0,0.0,0.0,0.0,0.0,0.0,0.0,0.0,0.0,0.0,0.0,0.0,0.0,0.0,0.0,0.0,0.0,-1.578,-1.5316,-1.508,-1.5046,-1.4645,-1.4552,-1.4839,-1.5716,-1.5768,-1.5015,-1.4732,-1.4485,-1.4284,-1.3903,-1.3767,-1.3838,-1.4577,-1.4913,-1.5,-1.5783,-1.5381,-1.4413,-1.4665,-1.3994,-1.3071,0.0,0.0,0.0,0.0,0.0,0.0,0.0,0.0,0.0,0.0,0.0,0.0,0.0,0.0,0.0,0.0,0.0,0.0,0.0,0.0,0.0,0.0,0.0,-2.9755,-2.8237,-2.7422,-2.7002,-2.7002,-2.6437,-2.6656,-2.757,-2.7414,0.0,0.0,0.0,0.0,-2.7687,-2.7859,-2.7576,-2.6985,-2.7205,-2.6807,0.0,0.0,0.0,0.0,0.0,0.0,0.0,0.0,-2.0799,-2.0699,0.0,0.0,0.0,0.0,-2.0699,-2.0751,-2.0974,-2.1668,-2.2439,-2.2635,-2.3406,0.0,0.0,0.0,0.0,0.0,0.0,0.0,0.0,0.0,0.0,0.0,0.0,0.0,0.0,0.0,0.0,0.0,0.0,0.0,0.0,0.0,0.0,0.0,0.0,0.0,0.0,0.0,0.0,-1.4779,-1.4432,-1.4143,-1.3917,-1.4185,-1.4241,-1.4059,-1.5216,-1.5417,-1.469,-1.4738,-1.4484,-1.3955,-1.3039,-1.2722,-1.2852,-1.3212,-1.3627,-1.4117,-1.4554,-1.4531,-1.4163,-1.3552,-1.3359,-1.3351,0.0,0.0,0.0,0.0,0.0,0.0,0.0,0.0,0.0,0.0,0.0,0.0,0.0,0.0,0.0,0.0,0.0,0.0,0.0,0.0,0.0,0.0,0.0,-3.0236,-2.9143,-2.8227,-2.7678,-2.7487,-2.6939,-2.7198,-2.8195,0.0,0.0,0.0,0.0,0.0,0.0,-2.8322,-2.8139,-2.7597,-2.7896,-2.7564,0.0,0.0,0.0,0.0,0.0,0.0,0.0,0.0,0.0,0.0,0.0,0.0,0.0,0.0,-2.083,-2.0935,-2.0751,-2.1368,-2.2165,0.0,0.0,0.0,0.0,0.0,0.0,0.0,0.0,0.0,0.0,0.0,0.0,0.0,0.0,0.0,0.0,0.0,0.0,0.0,0.0,0.0,0.0,0.0,0.0,0.0,0.0,0.0,0.0,0.0,0.0,0.0,-1.4008,-1.3625,-1.3198,-1.35,-1.3415,-1.2967,-1.3931,-1.4333,-1.4194,-1.4002,-1.3698,-1.3235,-1.2181,-1.1791,-1.1942,-1.2264,-1.2902,-1.3612,-1.354,-1.3606,-1.3644,-1.2681,-1.2742,-1.3182,0.0,0.0,0.0,0.0,0.0,0.0,0.0,0.0,0.0,0.0,0.0,0.0,0.0,0.0,0.0,0.0,0.0,0.0,0.0,0.0,0.0,0.0,0.0,-3.0191,-3.0191,-2.9143,-2.8299,-2.7701,-2.7421,-2.725,-2.7154,-2.8941,0.0,0.0,0.0,0.0,0.0,0.0,-2.8015,-2.8018,-2.8373,-2.7966,-2.7131,0.0,0.0,0.0,0.0,0.0,0.0,0.0,-2.0848,0.0,0.0,0.0,0.0,0.0,-2.1054,-2.1381,-2.0856,-2.108,-2.1668,0.0,0.0,0.0,0.0,0.0,0.0,0.0,0.0,0.0,0.0,0.0,0.0,0.0,0.0,0.0,0.0,0.0,0.0,0.0,0.0,0.0,0.0,0.0,0.0,0.0,0.0,0.0,0.0,0.0,0.0,0.0,-1.4362,-1.3808,-1.3198,-1.2581,-1.2013,-1.151,-1.1695,-1.2367,-1.3454,-1.217,-1.1743,-1.197,-1.1366,-1.1099,-1.1165,-1.2043,-1.2902,-1.3619,-1.3094,-1.2862,-1.2749,-1.2335,-1.2236,-1.2287,0.0,0.0,0.0,0.0,0.0,0.0,0.0,0.0,0.0,0.0,0.0,0.0,0.0,0.0,0.0,0.0,0.0,0.0,0.0,0.0,0.0,0.0,0.0,0.0,0.0,0.0,-2.8299,-2.7701,-2.7421,-2.7816,0.0,0.0,0.0,-2.9706,0.0,0.0,0.0,0.0,-2.7483,-2.6949,-2.7813,-2.7904,-2.7519,0.0,0.0,0.0,0.0,0.0,0.0,0.0,0.0,0.0,0.0,0.0,0.0,-2.0699,-2.083,-2.0922,-2.0751,-2.1655,0.0,0.0,0.0,0.0,0.0,0.0,0.0,0.0,0.0,0.0,0.0,0.0,0.0,0.0,0.0,0.0,0.0,0.0,0.0,0.0,0.0,0.0,0.0,0.0,0.0,0.0,0.0,0.0,0.0,0.0,0.0,0.0,-1.3664,-1.3151,-1.2568,-1.1881,-1.1443,-1.1271,-1.0542,-1.0938,-1.2272,-1.1626,-1.1468,-1.1689,-1.1086,-1.1169,-1.1788,-1.2524,-1.2716,-1.2495,-1.2482,-1.2483,-1.2395,-1.2103,-1.1933,-1.1897,0.0,0.0,0.0,0.0,0.0,0.0,0.0,0.0,0.0,0.0,0.0,0.0,0.0,0.0,0.0,0.0,0.0,0.0,0.0,0.0,0.0,0.0,0.0,0.0,0.0,-2.929,-2.9088,0.0,0.0,0.0,0.0,0.0,0.0,-2.9368,0.0,-2.888,0.0,0.0,-2.7222,-2.674,-2.756,-2.7783,-2.7567,0.0,0.0,0.0,0.0,0.0,0.0,0.0,0.0,0.0,0.0,0.0,0.0,-2.0699,-2.0869,-2.1002,-2.1002,-2.1747,0.0,0.0,0.0,0.0,0.0,0.0,0.0,0.0,0.0,0.0,0.0,0.0,0.0,0.0,0.0,0.0,0.0,0.0,0.0,0.0,0.0,0.0,0.0,0.0,0.0,0.0,0.0,0.0,0.0,0.0,0.0,0.0,-1.3309,-1.2765,-1.2222,-1.176,-1.1417,-1.1198,-1.0408,-1.0549,-1.1417,-1.0928,-1.0939,-1.1389,-1.117,-1.1176,-1.1465,-1.2269,-1.2183,-1.1598,-1.1842,-1.1914,-1.1847,-1.174,-1.1615,-1.1505,0.0,0.0,0.0,0.0,0.0,0.0,0.0,0.0,0.0,0.0,0.0,0.0,0.0,0.0,0.0,0.0,0.0,0.0,0.0,0.0,0.0,0.0,0.0,0.0,0.0,0.0,0.0,0.0,0.0,0.0,0.0,0.0,-2.8677,-2.7351,0.0,-2.8151,0.0,-2.7047,-2.709,-2.7064,-2.7476,-2.7542,-2.7332,-2.7668,0.0,0.0,0.0,0.0,0.0,0.0,0.0,0.0,-2.1033,0.0,-2.0699,-2.0699,-2.1028,-2.1446,-2.1498,0.0,0.0,0.0,0.0,0.0,0.0,0.0,0.0,0.0,0.0,0.0,0.0,0.0,0.0,0.0,0.0,0.0,0.0,0.0,0.0,0.0,0.0,0.0,0.0,0.0,0.0,0.0,0.0,0.0,0.0,0.0,0.0,0.0,-1.3178,-1.2638,-1.2111,-1.2,-1.1713,0.0,-1.0982,-1.0912,-1.0955,-1.0285,-1.0413,-1.1143,-1.1522,-1.1267,-1.0643,-1.1603,-1.1565,-1.0897,-1.1215,-1.1262,-1.1178,-1.131,-1.1279,-1.1192,0.0,0.0,0.0,0.0,0.0,0.0,0.0,0.0,0.0,0.0,0.0,0.0,0.0,0.0,0.0,0.0,0.0,0.0,0.0,0.0,0.0,0.0,0.0,0.0,0.0,0.0,0.0,0.0,0.0,0.0,0.0,0.0,0.0,-2.7299,0.0,-2.7511,-2.7186,-2.7111,-2.6894,-2.6614,-2.7147,-2.7026,-2.6614,-2.7259,-2.6576,0.0,0.0,0.0,0.0,0.0,0.0,0.0,-2.1131,-2.0997,-2.0898,-2.0749,-2.0791,-2.0936,0.0,-2.1732,0.0,0.0,0.0,0.0,0.0,0.0,0.0,0.0,0.0,0.0,0.0,0.0,0.0,0.0,0.0,0.0,0.0,0.0,0.0,0.0,0.0,0.0,0.0,0.0,0.0,0.0,0.0,0.0,0.0,0.0,0.0,-1.363,-1.3118,-1.2548,-1.2013,-1.1947,-1.1616,0.0,-1.0919,-1.1101,-1.1446,-1.0841,-1.0834,-1.1285,-1.1997,-1.1861,-1.1176,-1.1828,-1.1562,-1.0753,-1.0825,-1.0825,-1.0825,-1.1015,-1.1038,-1.0991,0.0,0.0,0.0,0.0,0.0,0.0,0.0,0.0,0.0,0.0,0.0,0.0,0.0,0.0,0.0,0.0,0.0,0.0,0.0,0.0,0.0,0.0,0.0,0.0,0.0,0.0,0.0,0.0,0.0,0.0,0.0,0.0,0.0,-2.7299,0.0,-2.7345,-2.739,-2.707,-2.6791,-2.6555,-2.6643,-2.6384,-2.6053,-2.676,-2.6349,-2.5325,-2.5121,0.0,0.0,0.0,0.0,0.0,0.0,0.0,-2.0947,-2.0749,-2.0699,-2.083,0.0,0.0,0.0,0.0,0.0,0.0,0.0,0.0,0.0,0.0,0.0,0.0,0.0,0.0,0.0,0.0,0.0,0.0,0.0,0.0,0.0,0.0,0.0,0.0,0.0,0.0,0.0,0.0,0.0,0.0,0.0,-1.3869,-1.3313,-1.3518,-1.3011,-1.26,-1.2241,-1.2207,-1.2007,-1.1633,-1.1554,-1.1628,-1.1803,-1.137,-1.1157,-1.1094,-1.1728,-1.153,-1.0818,-1.1447,-1.1163,-1.0323,-1.0608,-1.0608,-1.0472,-1.0681,-1.0705,-1.0632,0.0,0.0,0.0,0.0,0.0,0.0,0.0,0.0,0.0,0.0,0.0,0.0,0.0,0.0,0.0,0.0,0.0,0.0,0.0,0.0,0.0,0.0,0.0,0.0,0.0,0.0,0.0,0.0,0.0,0.0,0.0,0.0,0.0,-2.7566,0.0,0.0,-2.7434,-2.7117,-2.6873,-2.6725,-2.6332,-2.5974,-2.5761,-2.6302,-2.6057,-2.5358,-2.5378,-2.4874,-2.4063,-2.3143,0.0,0.0,0.0,0.0,-2.1033,-2.0799,-2.0749,-2.083,0.0,0.0,0.0,0.0,0.0,0.0,0.0,0.0,0.0,0.0,0.0,0.0,0.0,0.0,0.0,0.0,0.0,0.0,0.0,0.0,0.0,0.0,0.0,0.0,0.0,0.0,0.0,0.0,0.0,0.0,-1.4977,-1.354,-1.295,-1.3481,-1.2987,-1.2639,-1.2544,-1.2544,-1.2473,-1.2413,-1.2246,-1.2138,-1.2102,-1.1815,-1.1427,-1.0935,-1.1238,-1.0937,-1.0269,-1.0862,-1.0623,-0.9905,-1.0361,-1.0373,-1.0198,-1.0311,-1.0349,-1.0299,0.0,0.0,0.0,0.0,0.0,0.0,0.0,0.0,0.0,0.0,0.0,0.0,0.0,0.0,0.0,0.0,0.0,0.0,-3.0406,0.0,0.0,-3.1708,-3.1688,0.0,0.0,0.0,0.0,0.0,0.0,0.0,0.0,0.0,0.0,-2.8684,0.0,0.0,0.0,-2.7509,-2.7352,-2.7021,-2.6922,-2.6556,-2.6104,-2.5909,-2.5702,-2.5502,-2.5013,-2.471,-2.4511,-2.3752,-2.3246,0.0,0.0,0.0,-2.1277,-2.1033,-2.0848,-2.083,0.0,0.0,0.0,0.0,0.0,0.0,0.0,0.0,0.0,0.0,0.0,0.0,0.0,0.0,0.0,0.0,0.0,0.0,0.0,0.0,0.0,0.0,0.0,0.0,0.0,0.0,0.0,0.0,0.0,0.0,-1.4977,-1.354,-1.295,-1.3481,-1.2987,-1.2709,-1.2662,-1.2662,-1.2591,-1.2413,-1.2222,-1.2113,-1.2113,-1.2044,-1.1815,-1.1407,-1.1328,-1.0911,-1.0305,-1.0281,-1.0052,-0.9736,-0.9802,-0.9905,-1.0021,-0.9854,-1.0021,-1.0287,0.0,0.0,0.0,0.0,0.0,0.0,0.0,0.0,0.0,0.0,0.0,0.0,0.0,0.0,0.0,-3.0499,-3.0469,-3.0417,-3.0297,-3.0032,-3.0366,-3.1374,-3.1654,-3.2117,0.0,0.0,0.0,0.0,0.0,0.0,0.0,-3.1265,-3.0415,0.0,0.0,0.0,0.0,0.0,-2.8812,-2.8667,-2.8553,-2.8152,0.0,0.0,-2.6738,-2.6724,-2.5495,-2.529,-2.5464,-2.4405,-2.3879,-2.3551,-2.2785,0.0,0.0,0.0,-2.0947,0.0,-2.1303,0.0,0.0,0.0,0.0,0.0,0.0,0.0,0.0,0.0,0.0,0.0,0.0,0.0,0.0,0.0,0.0,0.0,0.0,0.0,0.0,0.0,0.0,0.0,0.0,0.0,0.0,0.0,0.0,-1.4397,-1.4586,-1.3371,-1.2818,-1.3047,-1.283,-1.2639,-1.252,-1.252,-1.2449,-1.2222,-1.215,-1.2113,-1.2113,-1.2113,-1.1837,-1.1387,-1.1044,-1.0567,-0.9997,-0.9789,-0.9568,-0.9378,-0.9605,-0.9672,-0.9659,-0.9684,-0.9892,-1.011,0.0,0.0,0.0,0.0,0.0,0.0,0.0,0.0,0.0,0.0,0.0,0.0,0.0,0.0,0.0,0.0,-3.0519,-3.0428,-3.0285,-3.0061,-3.0338,-3.1242,-3.1663,-3.1939,-3.2098,0.0,0.0,0.0,0.0,0.0,-3.1796,-3.12,-3.0463,0.0,-2.9057,0.0,0.0,0.0,0.0,0.0,0.0,0.0,0.0,0.0,0.0,0.0,-2.6607,-2.6251,-2.6286,-2.5249,-2.4601,-2.409,-2.3319,-2.2725,0.0,0.0,0.0,0.0,0.0,0.0,0.0,0.0,0.0,0.0,0.0,0.0,0.0,0.0,0.0,0.0,0.0,0.0,0.0,0.0,0.0,0.0,0.0,0.0,0.0,0.0,0.0,0.0,0.0,0.0,0.0,0.0,0.0,-1.4353,-1.4221,-1.3297,-1.2735,-1.2639,-1.2627,-1.2556,-1.2413,-1.2377,-1.2258,-1.2138,-1.2113,-1.2113,-1.2102,-1.1975,-1.1606,-1.1091,-1.0757,-1.0229,-0.9597,-0.9411,-0.9232,-0.9147,-0.9563,-0.9581,-0.942,-0.9644,-0.9809,-0.9931,0.0,0.0,0.0,0.0,0.0,0.0,0.0,0.0,0.0,0.0,0.0,0.0,0.0,-3.0598,-3.0598,-3.0598,-3.055,-3.05,-3.0499,-3.0247,-3.0773,-3.2272,-3.2105,0.0,-3.2915,0.0,0.0,0.0,0.0,0.0,-3.2599,-3.15,-3.1189,-3.151,-3.0409,-2.9739,-2.9471,0.0,0.0,0.0,0.0,0.0,0.0,0.0,0.0,0.0,0.0,-2.7646,-2.6737,-2.6334,-2.552,-2.4592,-2.4147,-2.3406,-2.2558,0.0,0.0,0.0,0.0,0.0,0.0,0.0,0.0,0.0,0.0,0.0,0.0,0.0,0.0,0.0,0.0,0.0,0.0,0.0,0.0,0.0,0.0,0.0,0.0,0.0,0.0,0.0,0.0,0.0,0.0,0.0,0.0,-1.4446,-1.3952,-1.3373,-1.2894,-1.2425,-1.2413,-1.2413,-1.2413,-1.2282,-1.221,-1.221,-1.2138,-1.2113,-1.209,-1.1572,-1.1068,-1.0642,-1.0619,-1.0045,-0.9127,-0.912,-0.9108,-0.9138,-0.9615,-0.9641,-0.9441,-0.9701,-0.9753,-0.971,0.0,0.0,0.0,0.0,0.0,0.0,0.0,0.0,0.0,0.0,0.0,0.0,0.0,-3.0598,-3.0598,-3.0598,-3.0588,-3.0559,-3.055,-3.0279,-3.0552,-3.1599,-3.1862,-3.2061,-3.2232,0.0,0.0,0.0,0.0,-3.0212,-3.0396,-3.0497,-3.0658,-3.0873,-3.0779,-3.0707,-3.0642,-3.1165,0.0,0.0,0.0,0.0,0.0,0.0,0.0,0.0,0.0,0.0,0.0,-2.7888,-2.6821,-2.5647,-2.5321,-2.4468,-2.3317,-2.1846,0.0,0.0,0.0,0.0,0.0,0.0,0.0,0.0,0.0,0.0,0.0,0.0,0.0,0.0,0.0,0.0,0.0,0.0,0.0,0.0,0.0,0.0,0.0,0.0,0.0,0.0,0.0,0.0,0.0,0.0,0.0,0.0,-1.3912,-1.3396,-1.288,-1.2425,-1.2413,-1.2365,-1.2282,-1.2174,-1.2138,-1.2138,-1.1744,-1.1595,-1.1583,-1.1411,-1.1055,-1.0619,-1.0929,-1.0309,-0.9058,-0.8713,-0.8966,-0.9529,-0.9402,-0.9482,-0.9666,-0.9764,-0.9681,-0.9514,0.0,0.0,0.0,0.0,0.0,0.0,0.0,0.0,0.0,0.0,0.0,0.0,0.0,0.0,-3.0598,-3.0598,-3.0598,-3.0598,-3.0598,-3.0352,-3.0499,-3.1175,-3.1789,-3.2019,-3.1805,0.0,0.0,0.0,0.0,0.0,0.0,-3.0452,-3.0943,-3.1381,-3.1625,-3.1597,0.0,0.0,0.0,-3.2705,0.0,0.0,-3.2435,0.0,0.0,0.0,0.0,0.0,0.0,0.0,0.0,0.0,0.0,0.0,0.0,0.0,0.0,0.0,0.0,0.0,0.0,0.0,0.0,0.0,0.0,0.0,0.0,0.0,0.0,0.0,0.0,0.0,0.0,0.0,0.0,0.0,0.0,0.0,0.0,0.0,0.0,0.0,0.0,0.0,0.0,0.0,0.0,0.0,-1.3842,-1.3481,-1.298,-1.2317,-1.2294,-1.2258,-1.2174,-1.2113,-1.2113,-1.2102,-1.1733,-1.1572,-1.1572,-1.1366,-1.1114,-1.0849,-1.1009,-1.0412,-0.9299,-0.8943,-0.9104,-0.9551,-0.9391,-0.9529,-0.9827,-1.0011,-0.9834,-0.956,0.0,0.0,0.0,0.0,0.0,0.0,0.0,0.0,0.0,0.0,0.0,0.0,0.0,0.0,0.0,-3.0675,-3.0675,-3.0675,-3.0675,-3.0518,-3.0676,-3.1191,-3.1915,-3.2144,-3.1805,0.0,0.0,0.0,0.0,0.0,0.0,0.0,-3.2161,-3.3255,-3.2952,-3.2419,-3.18,0.0,-3.1984,-3.2283,0.0,-3.2521,-3.2884,0.0,0.0,0.0,-3.2162,-3.1446,0.0,-3.0413,0.0,0.0,0.0,0.0,0.0,0.0,0.0,0.0,0.0,0.0,0.0,0.0,0.0,0.0,0.0,0.0,0.0,0.0,0.0,0.0,0.0,0.0,0.0,0.0,0.0,0.0,0.0,0.0,0.0,0.0,0.0,0.0,0.0,0.0,0.0,0.0,0.0,-1.4672,-1.3673,-1.3581,-1.311,-1.2171,-1.2113,-1.2113,-1.2113,-1.2113,-1.2113,-1.2113,-1.209,-1.209,-1.2067,-1.1549,-1.1285,-1.1296,-1.0849,-1.0344,-0.985,-0.9804,-0.9529,-0.9173,-0.9632,-0.9827,-0.9919,-1.0435,-1.0275,-0.9833,0.0,0.0,0.0,0.0,0.0,0.0,0.0,0.0,0.0,0.0,0.0,0.0,0.0,0.0,-3.2416,-3.2416,-3.2416,-3.2416,-3.2416,-3.1733,-3.1335,-3.1336,-3.195,-3.2202,-3.1952,0.0,0.0,0.0,0.0,0.0,0.0,0.0,0.0,0.0,-3.2701,-3.2553,-3.2161,-3.2073,0.0,0.0,-3.2454,-3.2588,0.0,0.0,0.0,0.0,0.0,-3.2244,-3.1655,0.0,-3.0084,-2.789,0.0,0.0,0.0,0.0,0.0,0.0,-2.0161,0.0,0.0,0.0,0.0,0.0,0.0,0.0,0.0,0.0,0.0,0.0,0.0,0.0,0.0,0.0,0.0,0.0,0.0,0.0,0.0,0.0,0.0,0.0,0.0,0.0,0.0,0.0,-1.5326,-1.4832,-1.4201,-1.3478,-1.2988,-1.2701,-1.2309,-1.2113,-1.2113,-1.2113,-1.2113,-1.2102,-1.171,-1.1526,-1.1526,-1.1388,-1.1285,-1.1297,-1.1572,-1.1377,-1.0782,-0.9735,-0.9643,-1.016,-0.9907,-1.0252,-1.0885,-1.1034,-1.0562,-0.9833,0.0,0.0,0.0,0.0,0.0,0.0,0.0,0.0,0.0,0.0,0.0,0.0,0.0,0.0,0.0,-3.3102,-3.3441,-3.3634,-3.3634,-3.28,-3.2177,-3.1985,-3.2273,-3.2449,0.0,0.0,0.0,0.0,0.0,0.0,0.0,0.0,0.0,0.0,0.0,0.0,0.0,0.0,0.0,0.0,-3.2404,0.0,0.0,-3.2802,-3.2916,0.0,0.0,0.0,-3.2453,-3.2453,-3.089,0.0,0.0,0.0,0.0,0.0,0.0,0.0,0.0,0.0,0.0,0.0,0.0,0.0,-1.9927,-1.9584,0.0,0.0,0.0,0.0,0.0,0.0,0.0,0.0,0.0,0.0,0.0,0.0,0.0,0.0,0.0,0.0,0.0,0.0,0.0,-1.5923,-1.5406,-1.4901,-1.4419,-1.3461,-1.2908,-1.2908,-1.239,-1.2113,-1.2113,-1.2113,-1.2113,-1.2113,-1.1779,-1.1641,-1.1641,-1.1641,-1.1641,-1.1652,-1.1939,-1.179,-1.1205,-1.016,-0.9942,-1.0263,-1.0171,-1.0504,-1.1011,-1.1217,-1.0826,-1.0137,0.0,0.0,0.0,0.0,0.0,0.0,0.0,0.0,0.0,0.0,0.0,0.0,0.0,0.0,0.0,0.0,-3.4292,-3.4717,-3.4814,-3.4021,0.0,-3.3109,-3.2958,-3.3063,0.0,0.0,0.0,0.0,0.0,0.0,0.0,0.0,0.0,0.0,0.0,0.0,0.0,0.0,0.0,-3.2073,-3.2232,-3.2386,0.0,0.0,-3.2916,0.0,-3.2916,-3.2916,-3.2866,-3.2745,-3.1361,0.0,0.0,0.0,0.0,0.0,-2.3482,0.0,0.0,0.0,0.0,0.0,0.0,0.0,-2.024,-1.9594,-1.8896,0.0,0.0,0.0,0.0,0.0,0.0,0.0,0.0,0.0,0.0,0.0,0.0,0.0,0.0,0.0,0.0,-1.6922,-1.6428,-1.5946,-1.5406,-1.4924,-1.4488,-1.3558,-1.3058,-1.2988,-1.247,-1.2171,-1.2113,-1.2113,-1.2113,-1.2113,-1.2113,-1.2113,-1.2113,-1.2113,-1.2113,-1.2113,-1.2113,-1.1825,-1.1331,-1.0883,-1.0401,-1.0011,-1.0435,-1.0677,-1.0814,-1.1251,-1.1067,-1.0608,-3.1165,0.0,0.0,0.0,0.0,0.0,0.0,0.0,0.0,0.0,0.0,0.0,0.0,0.0,0.0,0.0,0.0,-3.6709,-3.7406,-3.6651,-3.5794,-3.5014,-3.4745,-3.4579,-3.4507,0.0,0.0,0.0,0.0,0.0,0.0,0.0,0.0,0.0,0.0,0.0,0.0,0.0,0.0,-3.1856,-3.2197,0.0,-3.2386,-3.277,-3.2916,-3.2916,-3.2916,-3.2916,-3.2745,0.0,-3.0723,-2.96,0.0,0.0,0.0,0.0,0.0,0.0,0.0,0.0,0.0,0.0,0.0,0.0,-1.9495,-1.9053,-1.8686,0.0,0.0,0.0,0.0,0.0,0.0,0.0,0.0,0.0,0.0,0.0,0.0,0.0,0.0,0.0,0.0,-1.6922,-1.6428,-1.5946,-1.5406,-1.5062,-1.497,-1.4408,-1.3902,-1.3466,-1.3011,-1.2551,-1.2113,-1.2113,-1.2113,-1.2113,-1.2113,-1.2113,-1.2113,-1.2113,-1.2113,-1.2113,-1.2113,-1.2056,-1.1882,-1.1388,-1.1091,-1.0965,-1.0711,-1.109,-1.1837,-1.1893,-1.1365,-1.0576,-3.1238,0.0,0.0,0.0,0.0,0.0,0.0,0.0,0.0,0.0,0.0,0.0,0.0,0.0,0.0,0.0,0.0,0.0,0.0,0.0,-3.73,-3.6768,-3.5825,-3.5324,-3.5397,-3.5273,0.0,0.0,0.0,0.0,0.0,0.0,0.0,0.0,0.0,0.0,0.0,0.0,-3.2369,-3.2055,-3.2161,0.0,-3.2318,-3.2639,-3.2802,-3.2916,-3.2916,-3.2916,-3.2759,-3.1717,-3.1108,0.0,0.0,-2.7742,-2.6859,0.0,-2.4837,-2.4143,0.0,0.0,0.0,-2.1776,0.0,0.0,0.0,-1.9243,-1.8768,-1.8557,0.0,0.0,0.0,0.0,0.0,0.0,0.0,0.0,0.0,0.0,0.0,0.0,0.0,0.0,0.0,-1.6143,-1.571,-1.531,-1.5027,-1.4971,-1.5108,-1.4649,-1.427,-1.3994,-1.326,-1.2781,-1.2516,-1.224,-1.2113,-1.2113,-1.2113,-1.2113,-1.2113,-1.2113,-1.2113,-1.2113,-1.2113,-1.2113,-1.2067,-1.1526,-1.1469,-1.1652,-1.1159,-1.1262,-1.1733,-1.1985,-1.1446,-1.0596,-3.1099,0.0,0.0,0.0,0.0,0.0,0.0,0.0,0.0,0.0,0.0,0.0,0.0,0.0,0.0,0.0,0.0,0.0,0.0,0.0,0.0,0.0,-3.7057,-3.6255,-3.6309,-3.6097,0.0,0.0,0.0,0.0,0.0,0.0,0.0,0.0,0.0,0.0,0.0,0.0,0.0,-3.2369,0.0,-3.2266,-3.2301,-3.2488,-3.2705,-3.2852,-3.2884,-3.2916,-3.2809,-3.2135,0.0,-3.1044,-2.9488,-2.8511,0.0,0.0,0.0,0.0,0.0,0.0,0.0,0.0,0.0,-1.9599,0.0,0.0,0.0,-1.8983,0.0,0.0,0.0,0.0,0.0,0.0,0.0,0.0,0.0,0.0,0.0,0.0,0.0,0.0,0.0,-1.5351,-1.4906,-1.4638,-1.4697,-1.4789,-1.5017,-1.4696,-1.4488,-1.4396,-1.3593,-1.3115,-1.2908,-1.2482,-1.2217,-1.2113,-1.2113,-1.2113,-1.2113,-1.2113,-1.2113,-1.2113,-1.2113,-1.2113,-1.2067,-1.1526,-1.1583,-1.1984,-1.148,-1.1343,-1.1434,-1.1778,-1.1297,-1.0489,-3.0276,-3.0266,0.0,0.0,0.0,0.0,0.0,0.0,0.0,0.0,0.0,0.0,0.0,0.0,0.0,0.0,0.0,0.0,-4.1622,0.0,0.0,0.0,0.0,0.0,-3.7448,-3.6502,-3.5859,0.0,0.0,0.0,0.0,0.0,0.0,0.0,-3.3998,0.0,0.0,0.0,-3.3105,0.0,-3.2777,-3.2519,0.0,-3.2472,-3.2588,-3.2672,-3.2852,-3.2916,-3.2898,0.0,-3.1813,-3.0558,0.0,-2.9147,-2.7806,0.0,0.0,0.0,0.0,0.0,0.0,0.0,-2.1373,0.0,0.0,0.0,-1.886,-1.8098,0.0,0.0,0.0,0.0,0.0,0.0,0.0,0.0,0.0,0.0,0.0,0.0,0.0,0.0,0.0,0.0,-1.4485,-1.443,-1.4616,-1.4708,-1.4754,-1.4915,-1.4832,-1.4408,-1.4281,-1.3788,-1.2919,-1.285,-1.2585,-1.2113,-1.2113,-1.2113,-1.2113,-1.2113,-1.2113,-1.2113,-1.2113,-1.2113,-1.2067,-1.1526,-1.1513,-1.1802,-1.1445,-1.149,-1.1687,-1.1351,-1.0777,-1.0069,-3.0254,-3.0188,0.0,0.0,0.0,0.0,0.0,0.0,0.0,0.0,0.0,0.0,0.0,0.0,0.0,0.0,0.0,-4.0773,0.0,0.0,0.0,0.0,0.0,0.0,0.0,-3.7604,-3.6744,0.0,-3.5459,0.0,0.0,0.0,0.0,0.0,-3.4049,0.0,-3.3671,0.0,0.0,0.0,0.0,0.0,0.0,-3.2719,-3.2802,-3.2787,-3.2884,-3.2612,-3.2188,0.0,-3.1439,0.0,0.0,0.0,0.0,0.0,0.0,0.0,0.0,0.0,0.0,0.0,0.0,0.0,-1.9788,0.0,-1.9347,0.0,0.0,0.0,0.0,0.0,0.0,0.0,0.0,0.0,0.0,0.0,0.0,0.0,0.0,0.0,0.0,0.0,0.0,0.0,0.0,-1.4651,-1.4926,-1.5017,-1.5016,-1.4809,-1.4534,-1.4189,-1.3753,-1.3207,-1.2793,-1.2574,-1.2263,-1.2113,-1.2113,-1.2113,-1.2113,-1.2113,-1.2113,-1.2113,-1.209,-1.1848,-1.1846,-1.1945,-1.1693,-1.1595,-1.1605,-1.155,-1.0921,-1.0069,-3.1069,0.0,0.0,0.0,0.0,0.0,0.0,0.0,0.0,0.0,0.0,0.0,-3.9913,-3.9874,0.0,0.0,-4.0796,-4.1172,0.0,0.0,-4.2247,0.0,0.0,0.0,0.0,0.0,-3.787,0.0,0.0,0.0,0.0,0.0,0.0,0.0,0.0,-3.4178,-3.4255,0.0,0.0,-3.3771,-3.3979,-3.3597,-3.2943,-3.2912,-3.2898,-3.288,-3.2634,-3.2188,-3.1671,-3.1439,-3.085,0.0,-2.9583,0.0,0.0,0.0,0.0,0.0,-2.6922,0.0,0.0,0.0,0.0,0.0,0.0,0.0,0.0,0.0,0.0,0.0,0.0,0.0,0.0,0.0,0.0,0.0,0.0,0.0,0.0,0.0,0.0,0.0,0.0,0.0,0.0,0.0,-1.4554,-1.4558,-1.4971,-1.5062,-1.5108,-1.5108,-1.4775,-1.4522,-1.4396,-1.3661,-1.3184,-1.2908,-1.2516,-1.2252,-1.2113,-1.2113,-1.2113,-1.2113,-1.2113,-1.2113,-1.2113,-1.2113,-1.2077,-1.1993,-1.1847,-1.1638,-1.1409,-1.1184,-1.0619,-0.9864,-3.2978,-3.2318,0.0,0.0,0.0,0.0,0.0,0.0,0.0,0.0,0.0,0.0,0.0,0.0,0.0,0.0,0.0,-4.1176,-4.2036,0.0,-4.2034,0.0,0.0,-4.1961,0.0,0.0,0.0,0.0,0.0,0.0,0.0,0.0,0.0,0.0,0.0,-3.4537,-3.511,-3.4334,-3.4373,-3.488,-3.4191,-3.3834,-3.368,0.0,-3.2737,-3.2809,-3.201,0.0,0.0,-3.0814,-3.0047,0.0,0.0,0.0,0.0,0.0,0.0,0.0,0.0,0.0,0.0,-2.4734,0.0,0.0,0.0,0.0,-1.9995,0.0,0.0,0.0,0.0,0.0,0.0,0.0,0.0,0.0,0.0,0.0,0.0,0.0,0.0,0.0,0.0,0.0,0.0,-1.5083,-1.4646,-1.4466,-1.4708,-1.4971,-1.5108,-1.5108,-1.5096,-1.4867,-1.4396,-1.4362,-1.3845,-1.2908,-1.2896,-1.2608,-1.2113,-1.2113,-1.2113,-1.2113,-1.2113,-1.2113,-1.2113,-1.2113,-1.2004,-1.1811,-1.1811,-1.1575,-1.1052,-0.9756,-0.9393,-0.9262,0.0,0.0,0.0,0.0,0.0,0.0,0.0,-3.9231,0.0,0.0,0.0,0.0,0.0,0.0,-4.0826,0.0,0.0,-4.1296,-4.2189,-4.2703,0.0,0.0,0.0,-4.2961,0.0,0.0,0.0,0.0,0.0,0.0,0.0,0.0,0.0,0.0,0.0,-3.429,0.0,0.0,0.0,0.0,0.0,-3.3726,-3.3698,0.0,0.0,-3.3266,-3.2469,-3.1751,0.0,-3.024,-2.9357,-2.862,-2.862,-2.8441,-2.8182,-2.8042,-2.8014,0.0,0.0,0.0,-2.7043,-2.5624,0.0,0.0,0.0,0.0,0.0,0.0,0.0,0.0,0.0,0.0,0.0,0.0,0.0,0.0,0.0,0.0,0.0,0.0,0.0,0.0,0.0,0.0,0.0,-1.5116,-1.4797,-1.4708,0.0,-1.5062,-1.5108,-1.5108,-1.5108,-1.5028,-1.4867,-1.4545,-1.388,-1.2908,-1.2908,-1.2422,-1.1583,-1.1928,-1.2113,-1.2113,-1.2113,-1.2113,-1.2113,-1.2113,-1.2077,-1.1968,-1.17,-1.1516,-1.1291,-1.0398,-0.9812,-0.9334,-3.6693,0.0,0.0,0.0,0.0,0.0,0.0,0.0,0.0,0.0,-4.2009,0.0,-4.1601,0.0,-4.0837,0.0,-4.0926,-4.1304,-4.2207,-4.2743,0.0,-4.285,-4.3595,0.0,0.0,0.0,0.0,0.0,0.0,-3.6779,0.0,0.0,0.0,0.0,0.0,0.0,-3.4478,0.0,-3.4602,0.0,0.0,-3.3726,0.0,0.0,-3.3168,-3.3002,0.0,-3.1284,-3.0333,-2.9458,-2.873,-2.8182,-2.8182,-2.8182,-2.8182,-2.8099,-2.8071,-2.7971,-2.7501,-2.7384,0.0,-2.5559,-2.5128,0.0,-2.3506,0.0,0.0,0.0,0.0,0.0,0.0,0.0,0.0,0.0,0.0,0.0,0.0,0.0,0.0,0.0,0.0,0.0,0.0,0.0,-1.5683,-1.5464,-1.5152,-1.5026,0.0,0.0,-1.5108,-1.5108,-1.5108,-1.5108,-1.5108,-1.4798,-1.4132,-1.3133,-1.3133,-1.2594,-1.1606,-1.1928,-1.2113,-1.2113,-1.2113,-1.2113,-1.2113,-1.2113,-1.2113,-1.2077,-1.1664,-1.1516,-1.138,-1.0308,-0.9339,-0.8499,0.0,0.0,0.0,0.0,-4.0304,0.0,0.0,0.0,-4.2931,0.0,-4.2009,-4.1667,-4.0942,-4.0839,-4.0854,-4.098,-4.0878,0.0,-4.2034,-4.217,0.0,0.0,-4.2976,-4.2636,-4.084,0.0,0.0,0.0,0.0,0.0,0.0,0.0,0.0,0.0,-3.4269,0.0,-3.5198,-3.4349,-3.4381,-3.489,-3.4119,-3.385,-3.3869,-3.3018,-3.2444,-3.1992,-3.1184,-3.0369,-2.9575,-2.8586,-2.8237,-2.8237,-2.8237,-2.8209,-2.8209,-2.8174,-2.8156,-2.7923,-2.7014,-2.6747,-2.6348,-2.469,0.0,0.0,0.0,0.0,-2.34,0.0,0.0,0.0,0.0,0.0,0.0,0.0,0.0,0.0,0.0,0.0,0.0,0.0,0.0,0.0,0.0,-1.6528,-1.6234,-1.6114,-1.5722,0.0,0.0,0.0,-1.5085,-1.5108,-1.5108,-1.5108,-1.5108,-1.5108,-1.4603,-1.3593,-1.3593,-1.3053,-1.2113,-1.2113,-1.2113,-1.2113,-1.2113,-1.2113,-1.2113,-1.2113,-1.2113,-1.2077,-1.1664,-1.1505,-1.1246,-0.9551,-0.8073,-0.7069,-4.022,-4.1091,-4.1572,0.0,-4.1198,-4.1817,0.0,0.0,0.0,0.0,-4.2315,-4.1269,-4.1718,-4.1236,-4.0888,-4.0926,-4.0988,0.0,0.0,0.0,0.0,-4.0473,-4.2257,-4.2493,-4.0829,-4.1497,0.0,-3.9886,0.0,0.0,-3.6942,0.0,0.0,0.0,0.0,0.0,-3.4388,-3.4116,-3.4076,-3.4163,-3.3907,-3.3493,0.0,0.0,-3.1937,-3.0846,-3.0667,-3.0399,-3.0033,-2.9156,-2.8767,-2.8644,-2.8644,-2.8543,-2.8324,-2.7713,-2.743,-2.7121,-2.6284,-2.6071,-2.5913,-2.5367,-2.5172,-2.4993,0.0,0.0,0.0,0.0,0.0,0.0,0.0,0.0,0.0,0.0,0.0,0.0,0.0,0.0,0.0,0.0,0.0,0.0,-1.6325,-1.6253,-1.6207,-1.6126,-1.5519,0.0,0.0,0.0,0.0,-1.539,-1.5379,-1.5334,-1.5255,-1.5267,-1.469,-1.3593,-1.3593,-1.3053,-1.2113,-1.2113,-1.2113,-1.2113,-1.2113,-1.2113,-1.2113,-1.2113,-1.2113,-1.2077,-1.1811,-1.1344,-1.063,-0.9693,-0.9117,-0.8798,-4.1415,0.0,0.0,-4.3371,0.0,0.0,-4.3966,0.0,0.0,-4.3993,-4.2532,0.0,-4.21,-4.1063,-4.0362,-4.0416,-4.0116,0.0,-3.976,0.0,0.0,-4.0324,-4.1226,-4.1286,-4.0388,-4.0875,0.0,-3.8674,0.0,0.0,-3.623,0.0,0.0,0.0,0.0,-3.4221,0.0,-3.4023,-3.3972,-3.3928,-3.35,0.0,0.0,-3.19,-3.1102,-3.036,-3.0035,-2.9861,-2.9697,-2.9145,-2.8887,-2.8742,-2.8396,-2.8191,-2.7924,-2.7055,-2.6698,-2.6419,-2.5558,-2.5319,-2.5223,-2.4811,-2.4827,-2.4919,-2.4632,-2.4398,-2.4041,0.0,0.0,0.0,0.0,0.0,0.0,0.0,0.0,0.0,0.0,0.0,0.0,0.0,-1.6013,0.0,-1.6349,-1.6303,-1.6291,-1.6562,0.0,0.0,0.0,0.0,0.0,-1.548,-1.5232,-1.5153,-1.539,-1.5108,-1.4606,-1.3997,-1.3789,-1.3258,-1.2447,-1.2217,-1.2113,-1.2113,-1.2113,-1.2113,-1.2113,-1.2113,-1.2113,-1.2077,-1.1774,-1.1252,-1.0584,-1.0008,-0.9685,-0.9478,0.0,0.0,0.0,0.0,0.0,0.0,0.0,-4.3938,0.0,-4.3203,0.0,-4.175,-4.1704,-4.0247,-3.931,-3.9442,0.0,-3.8388,-3.9147,-3.8656,-3.8929,-4.0276,-3.9883,-3.9571,-3.9454,-4.0062,0.0,0.0,0.0,0.0,0.0,0.0,0.0,0.0,0.0,0.0,0.0,-3.4049,-3.3968,0.0,-3.3025,-3.2619,-3.2312,-3.0772,-3.0231,-3.0138,-2.9437,-2.9156,-2.9089,-2.8934,-2.8795,-2.8594,-2.7876,-2.7579,-2.7278,-2.6271,-2.5966,-2.5733,-2.4796,-2.4534,-2.4373,-2.3654,-2.4034,-2.4437,-2.4016,-2.4336,-2.4494,-2.3747,-2.2964,-2.2297,0.0,0.0,0.0,0.0,0.0,0.0,0.0,0.0,0.0,0.0,0.0,0.0,0.0,-1.649,-1.6551,0.0,0.0,0.0,0.0,0.0,0.0,-1.5582,-1.496,0.0,-1.5424,0.0,-1.462,-1.4506,-1.4034,-1.3546,-1.3027,-1.2378,-1.2113,-1.2113,-1.2113,-1.2113,-1.2113,-1.2113,-1.2113,-1.2077,-1.1664,-1.1276,-1.0905,-1.0474,-1.0035,-0.9719,0.0,0.0,0.0,0.0,0.0,-4.3344,-4.2617,-4.2622,-4.2405,-4.1535,-4.0652,-3.9843,-3.9132,-3.8159,-3.7545,-3.7578,-3.682,0.0,0.0,0.0,0.0,-3.6812,-3.8046,-3.8383,-3.7662,-3.8294,-3.8341,0.0,0.0,0.0,0.0,0.0,0.0,0.0,0.0,0.0,-3.4099,-3.4099,0.0,-3.3074,-3.2853,-3.2004,-3.0766,-3.042,-2.9881,-2.9314,-2.9167,-2.9175,-2.928,-2.9283,-2.882,-2.819,-2.8061,-2.744,-2.6594,-2.564,-2.5248,-2.4905,-2.3973,-2.3708,-2.3695,-2.3552,-2.3624,-2.369,-2.362,-2.3375,-2.3163,-2.3119,-2.2496,-2.1842,-2.1673,0.0,0.0,0.0,0.0,0.0,0.0,0.0,0.0,0.0,0.0,0.0,0.0,0.0,0.0,0.0,0.0,0.0,0.0,0.0,0.0,0.0,0.0,0.0,0.0,0.0,-1.5231,-1.4654,-1.4113,-1.3841,-1.3684,-1.264,-1.2174,-1.2174,-1.2113,-1.2113,-1.2113,-1.2113,-1.2113,-1.2077,-1.1664,-1.1442,-1.133,-1.0939,-1.0829,-1.0814,0.0,0.0,0.0,0.0,0.0,0.0,0.0,-4.0623,0.0,-4.0326,-3.9159,-3.8362,-3.84,-3.6846,-3.5982,-3.645,-3.5702,-3.5421,-3.5869,-3.5869,-3.5869,-3.5908,-3.6279,0.0,-3.6532,-3.6839,-3.689,-3.6652,0.0,0.0,0.0,0.0,0.0,0.0,0.0,-3.4293,0.0,0.0,0.0,-3.2868,-3.1922,-3.1103,-3.0323,-2.9826,-2.9393,-2.9044,-2.9085,-2.8876,-2.8569,-2.8656,-2.8419,-2.7937,-2.712,-2.6525,-2.5928,-2.498,-2.4561,-2.432,-2.375,-2.3549,-2.3494,-2.3494,-2.3494,-2.3494,-2.3494,-2.3271,-2.3035,-2.301,-2.251,-2.1924,-2.1524,-2.1135,0.0,0.0,0.0,0.0,0.0,0.0,0.0,0.0,0.0,0.0,0.0,0.0,0.0,0.0,0.0,0.0,0.0,0.0,0.0,0.0,0.0,0.0,0.0,0.0,0.0,-1.522,-1.4381,-1.3828,-1.3466,-1.2644,-1.2106,-1.1792,-1.2058,-1.2138,-1.2113,-1.2113,-1.2041,-1.192,-1.1627,-1.1516,-1.1479,-1.1174,-1.125,-1.1431,0.0,-4.3617,0.0,0.0,-4.2487,0.0,-3.931,-3.8096,-3.7767,-3.8765,-3.7539,-3.6761,-3.7279,-3.5385,-3.435,-3.5032,-3.4291,-3.4155,-3.5032,-3.4447,-3.4369,-3.5051,-3.4603,-3.4661,-3.5343,-3.5363,-3.5305,0.0,0.0,0.0,0.0,0.0,0.0,0.0,0.0,0.0,0.0,0.0,-3.3045,-3.2618,-3.1224,-3.0457,-3.0046,-2.9324,-2.9017,-2.898,-2.886,-2.8555,-2.8077,-2.7611,-2.7507,-2.7342,-2.608,-2.556,-2.5282,-2.4432,-2.4115,-2.3998,-2.3816,-2.3664,-2.3544,-2.3544,-2.3522,-2.3494,-2.3494,-2.3401,-2.3247,-2.3133,-2.2704,-2.2119,-2.1448,-2.1166,0.0,0.0,0.0,0.0,0.0,0.0,0.0,0.0,0.0,0.0,0.0,0.0,0.0,0.0,0.0,0.0,0.0,0.0,0.0,0.0,0.0,-1.544,-1.5825,0.0,-1.5244,0.0,-1.472,-1.3955,-1.3344,-1.2802,-1.2248,-1.1629,-1.2036,-1.2174,-1.2113,-1.2113,-1.2004,-1.1847,-1.159,-1.1516,-1.1479,-1.1212,-1.1362,-1.1638,0.0,0.0,0.0,0.0,0.0,0.0,0.0,-3.4915,-3.4447,-3.6039,-3.5435,-3.4598,-3.3935,-3.2947,-3.2367,-3.2445,-3.1661,-3.1525,-3.2406,-3.2387,-3.2367,-3.2445,-3.3127,-3.3551,-3.3629,-3.3629,-3.392,0.0,0.0,0.0,0.0,0.0,0.0,0.0,0.0,0.0,0.0,-3.4123,-3.325,-3.1894,-3.1677,-3.0668,-2.9289,-2.9149,-2.9044,-2.8902,-2.8172,-2.8382,-2.8647,-2.6462,-2.5782,-2.582,-2.5653,-2.5152,-2.4558,-2.4284,-2.4192,-2.4154,-2.3998,-2.3834,-2.3671,-2.3671,-2.3594,-2.3494,-2.3494,-2.3401,-2.3336,-2.343,-2.2925,-2.2258,-2.1524,-2.1481,-2.1356,0.0,0.0,0.0,0.0,0.0,0.0,0.0,0.0,0.0,0.0,0.0,0.0,0.0,0.0,0.0,0.0,0.0,0.0,-1.673,0.0,-1.6267,-1.588,-1.5749,0.0,-1.5142,-1.499,-1.4653,-1.4153,-1.3498,-1.2899,-1.2295,-1.2234,-1.2174,-1.2113,-1.2113,-1.2077,-1.2029,-1.1664,-1.1516,-1.1442,-1.1061,-1.1071,-1.1287,0.0,0.0,0.0,0.0,0.0,0.0,0.0,-3.3395,-3.2859,-3.3536,-3.3317,-3.2991,-3.2659,-3.1836,-3.1525,-3.2055,-3.1778,-3.1953,-3.2815,-3.2387,-3.2094,-3.2094,-3.1934,-3.207,-3.262,-3.3127,-3.3472,0.0,0.0,0.0,0.0,0.0,0.0,0.0,0.0,-3.445,-3.4141,-3.3157,-3.2377,-3.1708,-3.0635,-2.9813,-2.9178,-2.9085,-2.9017,-2.8883,-2.8081,-2.7717,-2.739,-2.5921,-2.5815,-2.6114,-2.5171,-2.4671,-2.443,-2.4339,-2.4266,-2.4192,-2.4135,-2.3998,-2.3876,-2.3876,-2.3689,-2.3513,-2.3598,-2.3458,-2.3336,-2.3471,-2.3017,-2.2483,-2.1965,-2.1631,-2.1388,0.0,0.0,0.0,0.0,0.0,0.0,0.0,0.0,0.0,0.0,0.0,0.0,0.0,0.0,0.0,0.0,0.0,0.0,-1.7289,0.0,-1.6248,-1.6338,-1.5966,-1.5703,-1.5513,-1.5167,-1.4442,-1.3348,-1.3407,-1.3044,-1.2401,-1.2246,-1.2174,-1.2113,-1.2113,-1.2113,-1.2077,-1.1774,-1.1664,-1.1664,-1.149,-1.1501,-1.1612,-3.9466,0.0,-3.8081,0.0,-3.574,-3.5014,-3.2947,-3.2116,-3.1718,-3.1714,-3.1729,-3.1724,-3.1719,-3.1174,-3.1057,-3.1661,-3.1719,-3.1973,-3.2596,-3.2051,-3.1719,-3.1719,-3.1135,0.0,-3.2075,-3.244,-3.2822,-3.3184,-3.4206,0.0,0.0,0.0,0.0,0.0,-3.436,-3.4117,-3.3822,-3.24,-3.1652,-3.1336,-3.0058,-2.9422,-2.9178,-2.9062,-2.8994,-2.8847,-2.7824,-2.7236,-2.6759,-2.5476,-2.5608,-2.6091,-2.4746,-2.4358,-2.4358,-2.4358,-2.4303,-2.4229,-2.4229,-2.4135,-2.4018,-2.4018,-2.3837,-2.3631,-2.3692,-2.3553,-2.3407,-2.3383,-2.3077,-2.2686,-2.2292,-2.1836,-2.1509,-2.1511,0.0,0.0,0.0,0.0,0.0,0.0,-1.8422,-1.7909,-1.7638,0.0,0.0,0.0,0.0,0.0,0.0,0.0,0.0,0.0,0.0,0.0,0.0,-1.6146,-1.5836,-1.5792,-1.542,-1.4454,-1.295,-1.2963,-1.2758,-1.2401,-1.2246,-1.2174,-1.2113,-1.2113,-1.2077,-1.2004,-1.1847,-1.1774,-1.17,-1.17,-1.17,-1.1737,-3.6401,-3.6049,-3.523,-3.2625,-3.2157,-3.1861,-3.0977,-3.0817,-3.0817,-3.0817,-3.0829,-3.0817,-3.0823,-3.0799,-3.0799,-3.0799,-3.0818,-3.0818,-3.0838,-3.0818,-3.0818,0.0,0.0,-3.1213,-3.2075,-3.1271,-3.168,-3.3395,0.0,0.0,-3.3021,0.0,-3.4169,-3.4751,-3.3819,-3.3339,-3.3153,-3.2203,-3.1336,-3.0593,-3.0446,-2.9921,-2.9178,-2.9062,-2.8994,-2.8773,-2.72,-2.7126,-2.7423,-2.5019,-2.4743,-2.5274,-2.4468,-2.4247,-2.4284,-2.4284,-2.4284,-2.4284,-2.4284,-2.421,-2.4097,-2.4097,-2.3999,-2.3858,-2.3714,-2.3685,-2.3571,-2.3193,-2.3095,-2.291,-2.2303,-2.2136,-2.1924,-2.1402,0.0,0.0,0.0,0.0,0.0,0.0,-1.8717,-1.8279,-1.8202,0.0,0.0,0.0,0.0,0.0,0.0,0.0,0.0,-1.7244,-1.7057,0.0,-1.6791,-1.6268,-1.5913,-1.5792,-1.578,-1.4995,-1.3457,-1.2257,-1.1964,-1.2401,-1.2246,-1.2174,-1.2113,-1.2113,-1.1957,-1.1811,-1.1811,-1.1664,-1.1516,-1.1516,-1.1516,-1.1516,-3.5115,-3.4647,-3.3785,-3.2341,-3.2107,-3.1811,-3.0927,-3.0804,-3.0798,-3.0798,-3.0802,-3.0808,-3.0793,-3.0808,-3.0799,0.0,-3.0799,-3.0799,0.0,-3.0799,-3.0799,-3.0799,-3.0799,-3.0935,-3.1213,-3.1525,-3.1661,-3.1622,0.0,0.0,0.0,-3.3048,-3.3184,-3.3289,-3.2933,-3.273,-3.26,-3.1695,-3.1167,-3.0885,-3.0208,-2.9757,-2.9533,-2.9455,-2.9041,-2.8369,-2.7211,-2.6578,-2.6095,-2.467,-2.4374,-2.4538,-2.4282,-2.421,-2.4229,-2.4229,-2.4266,-2.4284,-2.4284,-2.4266,-2.4247,-2.4247,-2.3921,-2.3649,-2.3692,-2.3553,-2.3407,-2.3265,-2.3095,-2.2876,-2.2598,-2.2186,-2.184,-2.1678,-2.1464,0.0,0.0,0.0,0.0,0.0,-1.9434,-1.893,0.0,-1.8713,0.0,0.0,0.0,0.0,0.0,0.0,0.0,0.0,-1.7008,0.0,-1.6791,-1.6268,-1.5913,-1.5792,-1.5792,-1.5187,-1.3987,-1.2518,-1.2021,-1.2413,-1.2365,-1.2258,-1.2113,-1.2113,-1.2077,-1.1993,-1.1847,-1.1664,-1.1516,-1.1664,-1.1627,-1.1553,-3.3671,-3.328,-3.2636,-3.1758,-3.1602,-3.1426,-3.0875,-3.0791,-3.0807,-3.0807,-3.0794,-3.0806,-3.0794,-3.0802,0.0,-3.0804,-3.0799,-3.0799,-3.0799,-3.0799,-3.0799,-3.0799,-3.0799,-3.0799,-3.0799,0.0,0.0,-3.1291,-3.2207,-3.2735,-3.2894,-3.2538,-3.2467,-3.2664,-3.2244,-3.2029,-3.1941,-3.1021,-3.0644,-3.0606,-2.9973,-2.9713,-2.9658,-2.9287,-2.8764,-2.8073,-2.6842,-2.6042,-2.5393,-2.4485,-2.419,-2.419,-2.419,-2.419,-2.4191,-2.4191,-2.4228,-2.4266,-2.4266,-2.4247,-2.4266,-2.4266,-2.3941,-2.3628,-2.3558,-2.3435,-2.3289,-2.3241,-2.3095,-2.2919,-2.2738,-2.2298,-2.1928,-2.1827,-2.1526,-2.1309,-2.1309,0.0,0.0,0.0,0.0,0.0,0.0,-1.9088,0.0,0.0,0.0,0.0,0.0,0.0,0.0,-1.7472,-1.6798,0.0,-1.6589,-1.6259,-1.5957,-1.5792,-1.5428,-1.4898,-1.4241,-1.2854,-1.228,-1.2437,-1.2413,-1.2294,-1.2138,-1.2113,-1.2077,-1.1957,-1.192,-1.1774,-1.1627,-1.1847,-1.1811,-1.1774,-3.2168,-3.2012,0.0,0.0,-3.0801,0.0,-3.0801,-3.0801,-3.0799,-3.0801,-3.0796,-3.0791,-3.0794,-3.0804,-3.081,-3.0804,0.0,0.0,0.0,-3.0804,-3.0804,-3.0804,-3.0804,-3.0804,-3.0799,-3.0799,-3.1193,-3.2016,-3.1884,-3.2202,-3.2919,-3.1987,-3.1929,-3.2612,-3.1656,-3.123,-3.1192,-3.0304,-2.9934,-2.9934,-2.9794,-2.9689,-2.9544,-2.8664,-2.8166,-2.7734,-2.6173,-2.5485,-2.5221,-2.4466,-2.419,-2.419,-2.419,-2.419,-2.419,-2.419,-2.419,-2.419,-2.419,-2.4209,-2.4192,-2.4192,-2.4037,-2.3792,-2.3407,-2.3289,-2.3241,-2.3102,-2.3095,-2.302,-2.2764,-2.2419,-2.2096,-2.184,-2.1526,-2.1309,-2.1309,0.0,0.0,0.0,0.0,0.0,0.0,-1.9347,-1.8912,0.0,0.0,0.0,0.0,0.0,-1.7822,-1.6559,-1.6522,-1.6392,-1.6244,-1.62,-1.6069,-1.578,-1.479,-1.4325,-1.4253,-1.3228,-1.2663,-1.2508,-1.2437,-1.233,-1.221,-1.2138,-1.1993,-1.1847,-1.2004,-1.1957,-1.1811,-1.2004,-1.2077,-1.2077,0.0,0.0,-3.1036,-3.0841,-3.0801,-3.0801,-3.0801,-3.0796,-3.0796,-3.0799,-3.0791,-3.0804,-3.0791,-3.0804,-3.0798,-3.079,-3.0802,-3.0802,-3.081,-3.0802,-3.0798,-3.0798,-3.0798,-3.0793,-3.0799,-3.0799,-3.0896,-3.1115,-3.1081,-3.1125,-3.1251,-3.1014,-3.1002,-3.1107,-3.0821,-3.0691,-3.0671,-3.0407,-3.0273,-3.0203,-2.9417,-2.9079,-2.892,-2.7935,-2.7088,-2.6366,-2.5872,-2.5226,-2.4579,-2.4302,-2.419,-2.419,-2.419,-2.419,-2.419,-2.419,-2.419,-2.419,-2.419,-2.4209,-2.4209,-2.4209,-2.3937,-2.3624,-2.3342,-2.3217,-2.3119,-2.2952,-2.2944,-2.2893,-2.2738,-2.2337,-2.2027,-2.1969,-2.1601,-2.1309,-2.1309,-2.1277,0.0,0.0,-2.0695,-2.0527,-2.0185,-1.9711,-1.9501,0.0,0.0,0.0,0.0,-1.8319,-1.7844,-1.6688,-1.6565,-1.6436,-1.6362,-1.6231,-1.6069,-1.578,-1.5133,-1.4646,-1.4265,-1.3614,-1.301,-1.2508,-1.2437,-1.233,-1.221,-1.2138,-1.2077,-1.2029,-1.192,-1.1847,-1.1811,-1.1847,-1.1884,-1.1884,-3.0177,-3.0255,-3.0372,-3.0743,-3.0801,-3.0801,-3.0801,-3.0799,-3.0796,-3.0799,-3.0794,-3.0791,-3.0796,-3.0794,-3.081,-3.081,-3.0798,-3.079,-3.0798,-3.0794,-3.081,-3.081,-3.081,-3.0802,-3.0789,-3.0789,-3.0808,-3.0799,-3.0799,-3.0759,-3.0698,-3.0697,-3.0447,-3.0006,-2.997,-2.9678,-2.922,-2.9248,-2.9194,-2.9078,-2.8631,-2.8402,-2.823,-2.7317,-2.6598,-2.5974,-2.554,-2.5017,-2.4545,-2.4462,-2.4446,-2.441,-2.4321,-2.4303,-2.4284,-2.4228,-2.419,-2.419,-2.419,-2.419,-2.417,-2.4054,-2.3896,-2.3689,-2.3295,-2.3193,-2.3119,-2.2868,-2.2816,-2.279,-2.2712,-2.2326,-2.1998,-2.1998,-2.1601,-2.1309,-2.1309,-2.1309,0.0,-2.0974,-2.086,-2.0695,-2.0441,-2.003,-1.9773,-1.9818,0.0,0.0,-1.8233,-1.8108,-1.7639,-1.6731,-1.6577,-1.6479,-1.6392,-1.6231,-1.6013,-1.5792,-1.5504,-1.5007,-1.4277,-1.3987,-1.3358,-1.2508,-1.2437,-1.233,-1.221,-1.2138,-1.2113,-1.2077,-1.1957,-1.1932,-1.1932,-1.1932,-1.1932,-1.1957,-2.9259,-2.9396,-2.9611,-3.0294,-3.0411,-3.047,-3.0606,-3.0626,-3.0665,-3.0782,-3.0684,-3.0626,-3.0626,-3.0509,-3.0489,-3.0606,-3.0615,-3.0664,-3.0781,-3.0801,-3.0798,-3.0801,-3.0798,-3.0732,-3.0607,-3.0466,-3.0403,-3.0409,-3.0409,-3.0375,-3.0302,-3.0289,-2.9865,-2.9093,-2.909,-2.8578,-2.775,-2.7862,-2.78,-2.7637,-2.7662,-2.7635,-2.7486,-2.665,-2.6168,-2.5882,-2.52,-2.4856,-2.4707,-2.4707,-2.4707,-2.4676,-2.451,-2.4424,-2.4391,-2.4247,-2.4209,-2.419,-2.419,-2.419,-2.4151,-2.3917,-2.3917,-2.3855,-2.3324,-2.3271,-2.3223,-2.2825,-2.2764,-2.2764,-2.2712,-2.2354,-2.2056,-2.2027,-2.1631,-2.1356,-2.1325,0.0,-2.1246,-2.1055,-2.0893,-2.0695,-2.0444,-2.0239,-1.9925,-1.9479,-1.9369,-1.8907,0.0,-1.7868,-1.7475,-1.6846,-1.6607,-1.6479,-1.6362,-1.6132,-1.5913,-1.5792,-1.572,-1.5199,-1.4289,-1.4205,-1.355,-1.2508,-1.2401,-1.2294,-1.221,-1.2138,-1.2113,-1.2113,-1.2113,-1.2113,-1.2113,-1.2113,-1.2113,-1.2113,-2.8479,-2.8498,-2.8537,-2.8674,-2.8693,-2.8947,-2.9669,-2.9786,-3.0021,-3.0704,-3.0216,-2.9786,-2.9786,-2.9123,-2.8986,-2.9728,-2.9786,-3.0077,-3.076,-3.0807,-3.0801,-3.0791,-3.0794,-3.0451,-2.973,-2.8981,-2.8602,-2.8602,-2.8602,-2.8549,-2.8422,-2.8415,-2.8318,-2.8116,-2.8126,-2.8058,-2.7962,-2.7923,-2.7873,-2.7775,-2.6964,-2.6586,-2.6435,-2.5454,-2.5021,-2.493,-2.4787,-2.4738,-2.4707,-2.4707,-2.4707,-2.4692,-2.4657,-2.4526,-2.4389,-2.4373,-2.4284,-2.419,-2.419,-2.419,-2.419,-2.4151,-2.4074,-2.3955,-2.3732,-2.3606,-2.345,-2.3102,-2.3045,-2.297,-2.2738,-2.2497,-2.226,-2.2027,-2.1781,-2.1556,-2.134,0.0,-2.1183,-2.0893,-2.0827,-2.0628,-2.0204,-2.01,-2.001,-1.9762,-1.9726,-1.9457,-1.8936,-1.8461,-1.7948,-1.7393,-1.6918,-1.6547,-1.6244,-1.6088,-1.5913,-1.578,-1.5348,-1.4838,-1.4277,-1.3691,-1.3116,-1.2508,-1.2318,-1.221,-1.221,-1.2138,-1.2113,-1.2113,-1.2113,-1.2113,-1.2113,-1.2113,-1.2113,-1.2113,-2.7503,-2.76,-2.7756,-2.8225,-2.8303,-2.844,-2.883,-2.8908,-2.9025,-2.9396,-2.9123,-2.8908,-2.8908,-2.8537,-2.8459,-2.8869,-2.8908,-2.9064,-2.9435,-3.0306,-3.0794,-3.0796,-3.0807,-3.0384,-2.9515,-2.8645,-2.8179,-2.8154,-2.8154,-2.8112,-2.8048,-2.8032,-2.7757,-2.7311,-2.7273,-2.6968,-2.6487,-2.6535,-2.6497,-2.6367,-2.5992,-2.5817,-2.5707,-2.5256,-2.5056,-2.5019,-2.5025,-2.5013,-2.4968,-2.4974,-2.4974,-2.4947,-2.4851,-2.4727,-2.4651,-2.4575,-2.4393,-2.419,-2.419,-2.419,-2.419,-2.419,-2.4151,-2.4036,-2.3855,-2.3735,-2.3584,-2.3175,-2.3095,-2.302,-2.2764,-2.2542,-2.2349,-2.2248,-2.2032,0.0,0.0,-2.157,-2.1402,-2.1007,-2.0877,-2.0628,-2.0135,-2.008,-1.999,-1.9797,-1.9762,-1.9545,-1.9139,-1.8592,-1.8028,-1.7516,-1.6905,-1.6491,-1.6318,-1.6175,-1.6057,-1.5913,-1.5295,-1.4737,-1.4157,-1.3569,-1.2959,-1.2318,-1.2246,-1.2174,-1.2138,-1.2113,-1.2113,-1.2113,-1.2113,-1.2113,-1.2113,-1.2113,-1.2113,-1.2113,-2.6566,-2.6704,-2.6917,-2.7581,-2.7698,-2.7756,-2.7971,-2.7991,-2.8069,-2.8264,-2.8127,-2.7991,-2.7991,-2.7815,-2.7776,-2.7971,-2.7991,-2.8088,-2.8283,-2.9494,-3.0216,-3.0216,-3.0013,-2.9588,-2.8899,-2.8056,-2.7586,-2.7511,-2.7523,-2.7523,-2.7485,-2.745,-2.7074,-2.6469,-2.6417,-2.5974,-2.5284,-2.5357,-2.5321,-2.5175,-2.5351,-2.5361,-2.5303,-2.5303,-2.5302,-2.5311,-2.5282,-2.5241,-2.5201,-2.5198,-2.5206,-2.5164,-2.5025,-2.4942,-2.4888,-2.4813,-2.4512,-2.4228,-2.4209,-2.419,-2.419,-2.419,-2.419,-2.4151,-2.3937,-2.3896,-2.3753,-2.3348,-2.3206,-2.3084,-2.2825,-2.2623,-2.246,-2.2405,0.0,0.0,0.0,-2.184,-2.1601,-2.1134,-2.0942,-2.0646,-2.0135,-2.0025,-1.9919,-1.9797,-1.9726,-1.9493,-1.9087,-1.8577,-1.7988,-1.7323,-1.6778,-1.6436,-1.6392,-1.6231,-1.61,-1.5988,-1.5205,-1.4576,-1.4089,-1.3504,-1.2884,-1.221,-1.2313,-1.2253,-1.2113,-1.2113,-1.2113,-1.2113,-1.2113,-1.2113,-1.2113,-1.2113,-1.2113,-1.2113,-2.5785,-2.5805,-2.5824,-2.5883,-2.5883,-2.6156,-2.6978,-2.7095,-2.7386,-2.8186,-2.76,-2.7095,-2.7095,-2.6371,-2.6214,-2.7036,-2.7095,-2.7444,-2.8244,-2.842,-2.8479,-2.8479,-2.7705,-2.7192,-2.7001,-2.6271,-2.5814,-2.5698,-2.5829,-2.5809,-2.5698,-2.568,-2.5626,-2.5499,-2.549,-2.549,-2.5476,-2.5429,-2.5385,-2.5378,-2.5379,-2.5361,-2.5303,-2.5302,-2.5292,-2.5282,-2.5222,-2.5201,-2.5198,-2.5198,-2.5195,-2.5191,-2.5176,-2.505,-2.4902,-2.4966,-2.47,-2.4355,-2.4228,-2.419,-2.419,-2.419,-2.419,-2.419,-2.417,-2.417,-2.4094,-2.3813,-2.3544,-2.3318,-2.3102,-2.2868,-2.2623,-2.2432,0.0,0.0,-2.2027,-2.194,-2.1705,-2.1165,-2.1023,-2.0747,-2.017,-2.0025,-1.9919,-1.9797,-1.9726,-1.9479,-1.893,-1.8525,-1.7828,-1.6803,-1.6534,-1.6392,-1.6392,-1.612,-1.6001,-1.5988,-1.4873,-1.4257,-1.4089,-1.3439,-1.2784,-1.2233,-1.2669,-1.2574,-1.2113,-1.2113,-1.2113,-1.2113,-1.2113,-1.2113,-1.2113,-1.2113,-1.2113,-1.2113,-2.5707,-2.5707,-2.5707,-2.5707,-2.5707,-2.5805,-2.6136,-2.6195,-2.6312,-2.6644,-2.639,-2.6195,-2.6195,-2.5902,-2.5824,-2.6156,-2.6195,-2.6332,-2.6663,-2.6683,-2.7169,-2.8257,-2.7471,-2.6971,-2.693,-2.6116,-2.5628,-2.5496,-2.5551,-2.5546,-2.5504,-2.5493,-2.5518,-2.5518,-2.549,-2.548,-2.5511,-2.5464,-2.5448,-2.5404,-2.5406,-2.5379,-2.5351,-2.5322,-2.5293,-2.5293,-2.5264,-2.5253,-2.5262,-2.5271,-2.525,-2.525,-2.522,-2.5157,-2.5068,-2.5019,-2.4847,-2.4651,-2.4391,-2.4247,-2.419,-2.419,-2.419,-2.419,-2.419,-2.419,-2.4113,-2.3876,-2.3714,-2.3584,-2.3335,-2.3109,-2.2919,-2.279,0.0,-2.247,-2.2315,-2.2141,-2.1924,-2.1628,-2.1244,-2.0829,-2.0395,-2.015,-1.9919,-1.9762,-1.9669,-1.956,-1.9362,-1.8769,-1.8028,-1.7044,-1.6947,-1.6735,-1.6392,-1.6231,-1.6088,-1.5988,-1.5091,-1.4463,-1.4021,-1.3334,-1.2721,-1.215,-1.2332,-1.2298,-1.2113,-1.2113,-1.2113,-1.2113,-1.2113,-1.2113,-1.2077,-1.1811,-1.1737,-1.1737,-2.5707,-2.5707,-2.5707,-2.5707,-2.5707,-2.5707,-2.5707,-2.5707,-2.5707,-2.5707,-2.5707,-2.5707,-2.5707,-2.5707,-2.5707,-2.5707,-2.5707,-2.5707,-2.5707,-2.5707,-2.6232,-2.7437,-2.6908,-2.659,-2.6555,-2.6009,-2.5636,-2.5502,-2.5532,-2.5556,-2.5571,-2.5543,-2.5556,-2.5593,-2.5544,-2.5531,-2.5488,-2.5488,-2.5453,-2.5401,-2.5404,-2.5406,-2.5398,-2.5351,-2.5313,-2.5303,-2.5303,-2.5303,-2.5293,-2.5292,-2.5282,-2.5252,-2.5241,-2.5222,-2.519,-2.5082,-2.4993,-2.4842,-2.462,-2.4444,-2.4266,-2.4209,-2.419,-2.419,-2.419,-2.419,-2.4151,-2.3958,-2.3795,-2.3628,-2.3437,-2.3164,-2.2944,-2.2893,-2.2712,-2.2552,-2.2515,-2.2315,-2.2113,-2.1899,-2.1493,-2.1071,-2.0698,-2.0342,-2.008,-1.9925,-1.9705,-1.9501,-1.9302,-1.8707,-1.8028,-1.7393,-1.7282,-1.6976,-1.6522,-1.6318,-1.6144,-1.5988,-1.5253,-1.4654,-1.4217,-1.3528,-1.2927,-1.2367,-1.2367,-1.219,-1.192,-1.2029,-1.2041,-1.192,-1.192,-1.192,-1.1847,-1.1479,-1.1292,-1.133,-2.5707,-2.5707,-2.5707,-2.5707,-2.5707,-2.5707,-2.5707,-2.5707,-2.5707,-2.5707,-2.5707,-2.5707,-2.5707,-2.5707,-2.5707,-2.5707,-2.5707,-2.5707,-2.5707,-2.5707,-2.5707,-2.5707,-2.5703,-2.5665,-2.5609,-2.5678,-2.5629,-2.5502,-2.5632,-2.5707,-2.5699,-2.5639,-2.561,-2.5605,-2.5599,-2.5564,-2.5499,-2.5499,-2.5464,-2.5401,-2.5401,-2.5395,-2.5398,-2.5398,-2.5361,-2.5303,-2.5303,-2.5293,-2.5311,-2.5311,-2.5252,-2.5212,-2.5282,-2.5252,-2.5201,-2.5203,-2.5057,-2.4902,-2.4902,-2.4697,-2.4444,-2.4247,-2.419,-2.419,-2.419,-2.419,-2.419,-2.419,-2.3774,-2.3414,-2.3392,-2.2968,-2.2623,-2.2605,-2.2542,-2.2515,-2.2515,-2.2432,-2.2265,-2.1857,-2.1738,-2.1526,-2.1039,-2.063,-2.041,-2.041,-1.9904,-1.9288,-1.8616,-1.8094,-1.7787,-1.7774,-1.7393,-1.706,-1.6795,-1.6392,-1.6144,-1.5988,-1.5265,-1.4844,-1.4681,-1.4093,-1.346,-1.2908,-1.2908,-1.237,-1.1553,-1.1932,-1.1847,-1.1516,-1.1516,-1.1516,-1.1442,-1.1067,-1.0916,-1.0954,-2.5702,-2.5696,-2.5707,-2.5707,-2.5707,-2.5707,-2.5707,-2.5707,-2.5707,-2.5707,-2.5707,-2.5707,-2.5707,-2.5707,-2.5707,-2.5707,-2.5707,-2.5707,-2.5707,-2.5707,-2.5707,-2.5707,-2.5705,-2.5681,-2.5673,-2.5696,-2.5671,-2.5639,-2.5681,-2.5701,-2.5707,-2.5683,-2.5652,-2.561,-2.56,-2.5599,-2.5564,-2.5525,-2.5485,-2.5464,-2.5418,-2.5404,-2.5397,-2.5407,-2.5361,-2.5303,-2.5303,-2.5303,-2.5293,-2.5293,-2.5293,-2.5264,-2.5293,-2.5302,-2.5271,-2.5261,-2.5198,-2.5091,-2.4994,-2.4466,-2.3992,-2.4276,-2.4266,-2.4191,-2.419,-2.419,-2.419,-2.4151,-2.3996,-2.3876,-2.3816,-2.3422,-2.3042,-2.2958,-2.2651,-2.2394,-2.231,-2.2254,-2.218,-2.1986,-2.1721,-2.1509,-2.1308,-2.0958,-2.0697,-2.0563,-1.9638,-1.8876,-1.8353,-1.817,-1.7735,-1.6978,-1.7,-1.6745,-1.6166,-1.6206,-1.61,-1.5881,-1.5492,-1.5101,-1.4681,-1.3988,-1.338,-1.2896,-1.2516,-1.219,-1.192,-1.2029,-1.1847,-1.1516,-1.1516,-1.133,-1.1067,-1.0954,-1.0916,-1.0916,-2.5701,-2.5694,-2.5707,-2.5707,-2.5707,-2.5707,-2.5707,-2.5707,-2.5707,-2.5707,-2.5707,-2.5707,-2.5709,-2.5709,-2.5709,-2.5709,-2.5707,-2.5707,-2.5709,-2.5707,-2.5707,-2.5707,-2.5707,-2.5707,-2.5707,-2.5705,-2.5701,-2.5698,-2.5696,-2.571,-2.5701,-2.5694,-2.5683,-2.5648,-2.5643,-2.563,-2.5599,-2.557,-2.5525,-2.5492,-2.5453,-2.5412,-2.5406,-2.5397,-2.5361,-2.5303,-2.5303,-2.5303,-2.5303,-2.5303,-2.5303,-2.5303,-2.5293,-2.5302,-2.5292,-2.5282,-2.5011,-2.4692,-2.4583,-2.3914,-2.3291,-2.3529,-2.37,-2.3787,-2.3731,-2.3694,-2.3656,-2.3618,-2.354,-2.3551,-2.3801,-2.3513,-2.323,-2.3146,-2.2782,-2.2487,-2.2405,-2.231,-2.218,-2.2027,-2.1807,-2.1675,-2.157,-2.1003,-2.0337,-1.9603,-1.8773,-1.8174,-1.7809,-1.7809,-1.7516,-1.6823,-1.661,-1.6384,-1.6111,-1.5865,-1.5719,-1.5748,-1.5558,-1.5186,-1.4584,-1.3905,-1.3328,-1.2885,-1.2344,-1.192,-1.1627,-1.1811,-1.1516,-1.1029,-1.1217,-1.1029,-1.0659,-1.0659,-1.0544,-1.0428,-2.5693,-2.5709,-2.5707,-2.5707,-2.5707,-2.5707,-2.5707,-2.5707,-2.5707,-2.5707,-2.5707,-2.5709,-2.5693,-2.5693,-2.5694,-2.5694,-2.5691,-2.5691,-2.5694,-2.5691,-2.5709,-2.5709,-2.5707,-2.5707,-2.5707,-2.5707,-2.5705,-2.5701,-2.5701,-2.5696,-2.569,-2.5701,-2.5694,-2.5694,-2.5703,-2.5671,-2.561,-2.5599,-2.5564,-2.5518,-2.5507,-2.5468,-2.5395,-2.5387,-2.536,-2.5313,-2.5303,-2.5303,-2.5303,-2.5303,-2.5303,-2.5303,-2.5302,-2.5292,-2.5292,-2.5222,-2.4636,-2.4004,-2.3934,-2.3171,-2.2414,-2.24,-2.2722,-2.3,-2.294,-2.2868,-2.2813,-2.2813,-2.2603,-2.2635,-2.3376,-2.331,-2.3129,-2.3223,-2.2952,-2.2721,-2.2738,-2.247,-2.2248,-2.2056,-2.2027,-2.194,-2.1811,-2.0891,-1.9716,-1.8233,-1.7724,-1.7416,-1.7214,-1.7156,-1.7064,-1.6939,-1.6249,-1.5979,-1.6205,-1.5339,-1.5181,-1.5715,-1.557,-1.5142,-1.4487,-1.3864,-1.3328,-1.2885,-1.2344,-1.1664,-1.1029,-1.1404,-1.1105,-1.0438,-1.0774,-1.0659,-1.0283,-1.0283,-1.001,-0.9713,-2.5683,-2.5697,-2.5707,-2.5707,-2.5707,-2.5707,-2.5707,-2.5707,-2.5707,-2.5707,-2.5707,-2.5707,-2.5709,-2.5691,-2.5694,-2.5694,-2.5697,-2.5698,-2.5699,-2.5698,-2.5698,-2.5698,-2.5694,-2.5693,-2.5693,-2.5709,-2.5707,-2.5705,-2.5705,-2.5703,-2.5698,-2.5696,-2.569,-2.5707,-2.5694,-2.5687,-2.566,-2.5629,-2.5595,-2.5564,-2.5522,-2.5456,-2.5393,-2.5395,-2.5388,-2.5361,-2.5313,-2.5303,-2.5303,-2.5303,-2.5303,-2.5303,-2.5303,-2.5303,-2.5293,-2.5274,-2.4716,-2.4091,-2.4063,-2.292,-2.1838,-2.2345,-2.2052,-2.1758,-2.2185,-2.22,-2.2107,-2.2038,-2.1881,-2.1966,-2.2741,-2.2676,-2.27,-2.3328,-2.3206,-2.2968,-2.2883,-2.2686,-2.2463,-2.2248,-2.2039,-2.1899,-2.1811,-2.1486,-2.0908,-2.0011,-1.8808,-1.7829,-1.7233,-1.6669,-1.6099,-1.5641,-1.5505,-1.5267,-1.4925,-1.4387,-1.4651,-1.5715,-1.5435,-1.5066,-1.4487,-1.3864,-1.3328,-1.2885,-1.2344,-1.2004,-1.1847,-1.192,-1.1664,-1.1217,-1.0992,-1.0659,-1.0283,-1.0166,-0.9864,-0.9394,-2.5682,-2.5694,-2.5707,-2.5707,-2.5707,-2.5707,-2.5707,-2.5707,-2.5707,-2.5707,-2.5707,-2.5707,-2.5691,-2.5694,-2.5698,-2.57,-2.57,-2.57,-2.5701,-2.57,-2.57,-2.57,-2.5698,-2.5697,-2.5697,-2.5693,-2.5709,-2.5707,-2.5707,-2.5705,-2.5703,-2.5701,-2.5698,-2.5693,-2.5704,-2.5697,-2.5691,-2.5634,-2.559,-2.5599,-2.5531,-2.5488,-2.5445,-2.5412,-2.5395,-2.5388,-2.5351,-2.5341,-2.5351,-2.5351,-2.5351,-2.5351,-2.5313,-2.5322,-2.5274,-2.4851,-2.4139,-2.3389,-2.2976,-2.219,-2.1472,-2.1417,-2.1368,-2.1382,-2.1538,-2.1494,-2.138,-2.1303,-2.1141,-2.1243,-2.1987,-2.2319,-2.2632,-2.3049,-2.3117,-2.3049,-2.2923,-2.2634,-2.2343,-2.2124,-2.1998,-2.172,-2.1271,-2.0956,-2.0476,-1.9752,-1.85,-1.7669,-1.739,-1.6691,-1.605,-1.5541,-1.5571,-1.5336,-1.4782,-1.4561,-1.4795,-1.548,-1.5089,-1.4607,-1.4055,-1.3748,-1.3191,-1.2516,-1.2119,-1.1847,-1.1664,-1.1553,-1.1217,-1.0764,-1.0687,-1.0351,-0.9902,-0.9746,-0.9451,-0.9004,-2.5694,-2.5707,-2.5707,-2.5707,-2.5707,-2.5707,-2.5707,-2.5707,-2.5707,-2.5707,-2.5707,-2.5709,-2.5693,-2.5697,-2.5702,-2.5703,-2.5702,-2.5702,-2.5703,-2.5702,-2.5701,-2.5701,-2.5701,-2.57,-2.57,-2.5697,-2.5693,-2.5709,-2.5707,-2.5707,-2.5707,-2.5703,-2.5701,-2.5701,-2.5696,-2.5707,-2.5697,-2.5636,-2.56,-2.5605,-2.5531,-2.5511,-2.551,-2.5434,-2.5429,-2.5423,-2.5404,-2.5406,-2.5398,-2.5398,-2.5398,-2.5398,-2.5332,-2.5361,-2.5263,-2.4523,-2.3706,-2.2859,-2.2141,-2.1729,-2.1336,-2.0589,-2.0858,-2.1215,-2.0933,-2.0791,-2.0699,-2.0597,-2.0563,-2.0719,-2.1243,-2.2097,-2.273,-2.2709,-2.2986,-2.317,-2.3063,-2.2686,-2.2332,-2.2124,-2.2027,-2.162,-2.0867,-2.04,-1.9856,-1.9162,-1.8111,-1.7578,-1.7721,-1.6966,-1.6387,-1.6018,-1.597,-1.5681,-1.5044,-1.4999,-1.5024,-1.5128,-1.4633,-1.4163,-1.3678,-1.3636,-1.3094,-1.2218,-1.2069,-1.1713,-1.1259,-1.1117,-1.0691,-1.0088,-1.0186,-0.9913,-0.9426,-0.9133,-0.8941,-0.8724,-2.5689,-2.5705,-2.5707,-2.5707,-2.5707,-2.5707,-2.5707,-2.5707,-2.5707,-2.5707,-2.5707,-2.5707,-2.5707,-2.5696,-2.5702,-2.5703,-2.5703,-2.5703,-2.5703,-2.5703,-2.5703,-2.5703,-2.5703,-2.5702,-2.5702,-2.57,-2.5697,-2.5693,-2.5709,-2.5707,-2.5707,-2.5707,-2.5705,-2.5705,-2.5701,-2.5698,-2.5696,-2.5625,-2.5604,-2.56,-2.5593,-2.5595,-2.5589,-2.5512,-2.5485,-2.548,-2.5426,-2.5401,-2.5406,-2.5406,-2.5406,-2.5406,-2.5378,-2.5387,-2.5378,-2.5263,-2.4599,-2.3906,-2.3783,-2.2658,-2.1477,-2.1342,-2.09,-2.0441,-2.0331,-2.0164,-2.0032,-2.0009,-2.0451,-2.0796,-2.0675,-2.1912,-2.2905,-2.2749,-2.3283,-2.3689,-2.3682,-2.3417,-2.3164,-2.3042,-2.2466,-2.1936,-2.1576,-2.1332,-2.0957,-2.038,-1.9398,-1.8682,-1.8223,-1.7294,-1.6655,-1.6424,-1.6324,-1.5781,-1.4865,-1.4824,-1.472,-1.4531,-1.4223,-1.4002,-1.3946,-1.3685,-1.3302,-1.2776,-1.2776,-1.2332,-1.1627,-1.1588,-1.1151,-1.0467,-0.9728,-0.9403,-0.9213,-0.8333,-0.839,-0.8854,-2.5682,-2.5693,-2.5707,-2.5707,-2.5707,-2.5707,-2.5707,-2.5707,-2.5707,-2.5707,-2.5707,-2.5707,-2.5691,-2.5698,-2.5702,-2.5703,-2.5703,-2.5703,-2.5703,-2.5703,-2.5703,-2.5703,-2.5703,-2.5703,-2.5703,-2.5702,-2.5701,-2.5699,-2.5694,-2.5709,-2.5707,-2.5707,-2.5707,-2.5707,-2.5705,-2.5701,-2.5693,-2.5678,-2.5664,-2.5652,-2.562,-2.5609,-2.5585,-2.5525,-2.5492,-2.5498,-2.5461,-2.5429,-2.5404,-2.5404,-2.5395,-2.5406,-2.5397,-2.5397,-2.5309,-2.483,-2.4407,-2.3983,-2.3514,-2.2812,-2.21,-2.162,-2.1235,-2.0842,-2.0326,-2.0133,-2.0165,-2.0557,-2.0443,-2.0382,-2.0666,-2.1553,-2.2245,-2.2173,-2.2955,-2.3576,-2.3526,-2.3271,-2.2985,-2.2833,-2.2402,-2.2039,-2.194,-2.1601,-2.1308,-2.1055,-2.0051,-1.941,-1.9296,-1.8456,-1.7722,-1.7205,-1.7283,-1.6777,-1.5541,-1.5658,-1.5615,-1.5314,-1.4996,-1.4526,-1.4003,-1.3707,-1.3358,-1.2889,-1.2764,-1.237,-1.1802,-1.1682,-1.1213,-1.0495,-0.964,-0.8916,-0.8366,-0.7923,-0.8152,-0.857]},{"header":{"parameterUnit":"m.s-1","parameterCategory":1,"la1":30.6,"la2":28.766,"lo1":-90.7593,"lo2":-88.6598,"dy":0.0162,"dx":0.0183,"nx":116,"ny":114,"refTime":"2023-07-23T06:00:00:Z","depth":0,"parameterNumber":3,"parameterNumberName":"V-component_of_WINDS"},"data":[0.0,0.0,0.0,0.0,0.0,0.0,0.0,0.0,0.0,0.0,0.0,0.0,0.0,0.0,0.0,0.0,0.0,0.0,0.0,0.0,0.0,0.0,0.0,0.0,0.0,0.0,0.0,0.0,0.0,0.0,0.0,0.0,0.0,0.0,0.0,0.0,0.0,0.0,0.0,0.0,0.0,0.0,0.0,0.0,0.0,0.0,0.0,0.0,0.0,0.0,0.0,0.0,0.0,0.0,0.0,0.0,0.0,0.0,0.0,0.0,0.0,0.0,0.0,0.0,0.0,0.0,0.0,0.0,0.0,0.0,0.0,0.0,0.0,0.0,0.0,0.0,0.0,0.0,0.0,0.0,0.0,0.0,0.0,0.0,0.0,0.0,0.0,0.0,0.0,0.0,0.0,0.0,0.0,0.0,0.0,0.0,0.0,0.0,0.0,0.0,0.0,0.0,0.0,0.0,0.0,0.0,0.0,0.0,0.0,0.0,0.0,0.0,0.0,0.0,0.0,0.0,0.0,0.0,0.0,0.0,0.0,0.0,0.0,0.0,0.0,0.0,0.0,0.0,0.0,0.0,0.0,0.0,0.0,0.0,0.0,0.0,0.0,0.0,0.0,0.0,0.0,0.0,0.0,0.0,0.0,0.0,0.0,0.0,0.0,0.0,0.0,0.0,0.0,0.0,0.0,0.0,0.0,0.0,0.0,0.0,0.0,0.0,0.0,0.0,0.0,0.0,0.0,0.0,0.0,0.0,0.0,0.0,0.0,0.0,0.0,0.0,0.0,0.0,0.0,0.0,0.0,0.0,0.0,0.0,0.0,0.0,0.0,0.0,0.0,0.0,0.0,0.0,0.0,0.0,0.0,0.0,0.0,0.0,0.0,0.0,0.0,0.0,0.0,0.0,0.0,0.0,0.0,0.0,0.0,0.0,0.0,0.0,0.0,0.0,0.0,0.0,0.0,0.0,0.0,0.0,0.0,0.0,0.0,0.0,0.0,0.0,0.0,0.0,0.0,0.0,0.0,0.0,0.0,0.0,0.0,0.0,0.0,0.0,0.0,0.0,0.0,0.0,0.0,0.0,0.0,0.0,0.0,0.0,0.0,0.0,0.0,0.0,0.0,0.0,0.0,0.0,0.0,0.0,0.0,0.0,0.0,0.0,0.0,0.0,0.0,0.0,0.0,0.0,0.0,0.0,0.0,0.0,0.0,0.0,0.0,0.0,0.0,0.0,0.0,0.0,0.0,0.0,0.0,0.0,0.0,0.0,0.0,0.0,0.0,0.0,0.0,0.0,0.0,0.0,0.0,0.0,0.0,0.0,0.0,0.0,0.0,0.0,0.0,0.0,0.0,0.0,0.0,0.0,0.0,0.0,0.0,0.0,0.0,0.0,0.0,0.0,0.0,0.0,0.0,0.0,0.0,0.0,0.0,0.0,0.0,0.0,0.0,0.0,0.0,0.0,0.0,0.0,0.0,0.0,0.0,0.0,0.0,0.0,0.0,0.0,0.0,0.0,0.0,0.0,0.0,0.0,0.0,0.0,0.0,0.0,0.0,0.0,0.0,0.0,0.0,0.0,0.0,0.0,0.0,0.0,0.0,0.0,0.0,0.0,0.0,0.0,0.0,0.0,0.0,0.0,0.0,0.0,0.0,0.0,0.0,0.0,0.0,0.0,0.0,0.0,0.0,0.0,0.0,0.0,0.0,0.0,0.0,0.0,0.0,0.0,0.0,0.0,0.0,0.0,0.0,0.0,0.0,0.0,0.0,0.0,0.0,0.0,0.0,0.0,0.0,0.0,0.0,0.0,0.0,0.0,0.0,0.0,0.0,0.0,0.0,0.0,0.0,0.0,0.0,0.0,0.0,0.0,0.0,0.0,0.0,0.0,0.0,0.0,0.0,0.0,0.0,0.0,0.0,0.0,0.0,0.0,0.0,0.0,0.0,0.0,0.0,0.0,0.0,0.0,0.0,0.0,0.0,0.0,0.0,0.0,0.0,0.0,0.0,0.0,0.0,0.0,0.0,0.0,0.0,0.0,0.0,0.0,0.0,0.0,0.0,0.0,0.0,0.0,0.0,0.0,0.0,0.0,0.0,0.0,0.0,0.0,0.0,0.0,0.0,0.0,0.0,0.0,0.0,0.0,0.0,0.0,0.0,0.0,0.0,0.0,0.0,0.0,0.0,0.0,0.0,0.0,0.0,0.0,0.0,0.0,0.0,0.0,0.0,0.0,0.0,0.0,0.0,0.0,0.0,0.0,0.0,0.0,0.0,0.0,0.0,0.0,0.0,0.0,0.0,0.0,0.0,0.0,0.0,0.0,0.0,0.0,0.0,0.0,0.0,0.0,0.0,0.0,0.0,0.0,0.0,0.0,0.0,0.0,0.0,0.0,0.0,0.0,0.0,0.0,0.0,0.0,0.0,0.0,0.0,0.0,0.0,0.0,0.0,0.0,0.0,0.0,0.0,0.0,0.0,0.0,0.0,0.0,0.0,0.0,0.0,0.0,0.0,0.0,0.0,0.0,0.0,0.0,0.0,0.0,0.0,0.0,0.0,0.0,0.0,0.0,0.0,0.0,0.0,0.0,0.0,0.0,0.0,0.0,0.0,0.0,0.0,0.0,0.0,0.0,0.0,0.0,0.0,0.0,0.0,0.0,0.0,0.0,0.0,0.0,0.0,0.0,0.0,0.0,0.0,0.0,0.0,0.0,0.0,0.0,0.0,0.0,0.0,0.0,0.0,0.0,0.0,0.0,0.0,0.0,0.0,0.0,0.0,0.0,0.0,0.0,0.0,0.0,0.0,0.0,0.0,0.0,0.0,0.0,0.0,0.0,0.0,0.0,0.0,0.0,0.0,0.0,0.0,0.0,0.0,0.0,0.0,0.0,0.0,0.0,0.0,0.0,0.0,0.0,0.0,0.0,0.0,0.0,0.0,0.0,0.0,0.0,0.0,0.0,0.0,0.0,0.0,0.0,0.0,0.0,0.0,0.0,0.0,0.0,0.0,0.0,0.0,0.0,0.0,0.0,0.0,0.0,0.0,0.0,0.0,0.0,0.0,0.0,0.0,0.0,0.0,0.0,0.0,0.0,0.0,0.0,0.0,0.0,0.0,0.0,0.0,0.0,0.0,0.0,0.0,0.0,0.0,0.0,0.0,0.0,0.0,0.0,0.0,0.0,0.0,0.0,0.0,0.0,0.0,0.0,0.0,0.0,0.0,0.0,0.0,0.0,0.0,0.0,0.0,0.0,0.0,0.0,0.0,0.0,0.0,0.0,0.0,0.0,0.0,0.0,0.0,0.0,0.0,0.0,0.0,0.0,0.0,0.0,0.0,0.0,0.0,0.0,0.0,0.0,0.0,0.0,0.0,0.0,0.0,0.0,0.0,0.0,0.0,0.0,0.0,0.0,0.0,0.0,0.0,0.0,0.0,0.0,0.0,0.0,0.0,0.0,0.0,0.0,0.0,0.0,0.0,0.0,0.0,0.0,0.0,0.0,0.0,0.0,0.0,0.0,0.0,0.0,0.0,0.0,0.0,0.0,0.0,0.0,0.0,0.0,0.0,0.0,0.0,0.0,0.0,0.0,0.0,0.0,0.0,0.0,0.0,0.0,0.0,0.0,0.0,0.0,0.0,0.0,0.0,0.0,0.0,0.0,0.0,0.0,0.0,0.0,0.0,0.0,0.0,0.0,0.0,0.0,0.0,0.0,0.0,0.0,0.0,0.0,0.0,0.0,0.0,0.0,0.0,0.0,0.0,0.0,0.0,0.0,0.0,0.0,0.0,0.0,0.0,0.0,0.0,0.0,0.0,0.0,0.0,0.0,0.0,0.0,0.0,0.0,0.0,0.0,0.0,0.0,0.0,0.0,0.0,0.0,0.0,0.0,0.0,0.0,0.0,0.0,0.0,0.0,0.0,0.0,0.0,0.0,0.0,0.0,0.0,0.0,0.0,0.0,0.0,0.0,0.0,0.0,0.0,0.0,0.0,0.0,0.0,0.0,0.0,0.0,0.0,0.0,0.0,0.0,0.0,0.0,0.0,0.0,0.0,0.0,0.0,0.0,0.0,0.0,0.0,0.0,0.0,0.0,0.0,0.0,0.0,0.0,0.0,0.0,0.0,0.0,0.0,0.0,0.0,0.0,0.0,0.0,0.0,0.0,0.0,0.0,0.0,0.0,0.0,0.0,0.0,0.0,0.0,0.0,0.0,0.0,0.0,0.0,0.0,0.0,0.0,0.0,0.0,0.0,0.0,0.0,0.0,0.0,0.0,0.0,0.0,0.0,0.0,0.0,0.0,0.0,0.0,0.0,0.0,0.0,0.0,0.0,0.0,0.0,0.0,0.0,0.0,0.0,0.0,0.0,0.0,0.0,0.0,0.0,0.0,0.0,0.0,0.0,0.0,0.0,0.0,0.0,0.0,0.0,0.0,0.0,0.0,0.0,0.0,0.0,0.0,0.0,0.0,0.0,0.0,0.0,0.0,0.0,0.0,0.0,0.0,0.0,0.0,0.0,0.0,0.0,0.0,0.0,0.0,0.0,0.0,0.0,0.0,0.0,0.0,0.0,0.0,0.0,0.0,0.0,0.0,0.0,0.0,0.0,0.0,0.0,0.0,0.0,0.0,0.0,0.0,0.0,0.0,0.0,0.0,0.0,0.0,0.0,0.0,0.0,0.0,0.0,0.0,0.0,0.0,0.0,0.0,0.0,0.0,0.0,0.0,0.0,0.0,0.0,0.0,0.0,0.0,0.0,0.0,0.0,0.0,0.0,0.0,0.0,0.0,0.0,0.0,0.0,0.0,0.0,0.0,0.0,0.0,0.0,0.0,0.0,0.0,0.0,0.0,0.0,0.0,0.0,0.0,0.0,0.0,0.0,0.0,0.0,0.0,0.0,0.0,0.0,0.0,0.0,0.0,0.0,0.0,0.0,0.0,0.0,0.0,0.0,0.0,0.0,0.0,0.0,0.0,0.0,0.0,0.0,0.0,0.0,0.0,0.0,0.0,0.0,0.0,0.0,0.0,0.0,0.0,0.0,0.0,0.0,0.0,0.0,0.0,0.0,0.0,0.0,0.0,0.0,0.0,0.0,0.0,0.0,0.0,0.0,0.0,0.0,0.0,0.0,0.0,0.0,0.0,0.0,0.0,0.0,0.0,0.0,0.0,0.0,0.0,0.0,0.0,0.0,0.0,0.0,0.0,0.0,0.0,0.0,0.0,0.0,0.0,0.0,0.0,0.0,0.0,0.0,0.0,0.0,0.0,0.0,0.0,0.0,0.0,0.0,0.0,0.0,0.0,0.0,0.0,0.0,0.0,0.0,0.0,0.0,0.0,0.0,0.0,0.0,0.0,0.0,0.0,0.0,0.0,0.0,0.0,0.0,0.0,0.0,0.0,0.0,0.0,0.0,0.0,0.0,0.0,0.0,0.0,0.0,0.0,0.0,0.0,0.0,0.0,0.0,0.0,0.0,0.0,0.0,0.0,0.0,0.0,0.0,0.0,0.0,0.0,0.0,0.0,0.0,0.0,0.0,0.0,0.0,0.0,0.0,0.0,0.0,0.0,0.0,0.0,0.0,0.0,0.0,0.0,0.0,0.0,0.0,0.0,0.0,0.0,0.0,0.0,0.0,0.0,0.0,0.0,0.0,0.0,0.0,0.0,0.0,0.0,0.0,0.0,0.0,0.0,0.0,0.0,0.0,0.0,0.0,0.0,0.0,0.0,0.0,0.0,0.0,0.0,0.0,0.0,0.0,0.0,0.0,0.0,0.0,0.0,0.0,0.0,0.0,0.0,0.0,0.0,0.0,0.0,0.0,0.0,0.0,0.0,0.0,0.0,0.0,0.0,0.0,0.0,0.0,0.0,0.0,0.0,0.0,0.0,0.0,0.0,0.0,0.0,0.0,0.0,0.0,0.0,0.0,0.0,0.0,0.0,0.0,0.0,0.0,0.0,0.0,0.0,0.0,0.0,0.0,0.0,0.0,0.0,0.0,0.0,0.0,0.0,0.0,0.0,0.0,0.0,0.0,0.0,0.0,0.0,0.0,0.0,0.0,0.0,0.0,0.0,0.0,0.0,0.0,0.0,0.0,0.0,0.0,0.0,0.0,-0.4835,0.0,0.0,0.0,0.0,0.0,0.0,0.0,0.0,0.0,0.0,0.0,0.0,0.0,0.0,0.0,0.0,0.0,0.0,0.0,0.0,0.0,0.0,0.0,0.0,0.0,0.0,0.0,0.0,0.0,0.0,0.0,0.0,0.0,0.0,0.0,0.0,0.0,0.0,0.0,0.0,0.0,0.0,0.0,0.0,0.0,0.0,0.0,0.0,0.0,0.0,0.0,0.0,0.0,0.0,0.0,0.0,0.0,0.0,0.0,0.0,0.0,0.0,0.0,0.0,0.0,0.0,0.0,0.0,0.0,0.0,0.0,0.0,0.0,0.0,0.0,0.0,0.0,0.0,0.0,0.0,0.0,0.0,0.0,0.0,0.0,0.0,0.0,0.0,0.0,0.0,0.0,0.0,0.0,0.0,0.0,0.0,0.0,0.0,0.0,0.0,0.0,0.0,0.0,0.0,0.0,0.0,0.0,0.0,0.0,0.0,0.0,0.0,0.0,0.0,0.0,0.0,-0.5523,0.0,0.0,0.0,0.0,0.0,0.0,0.0,0.0,0.0,0.0,0.0,0.0,0.0,0.0,0.0,0.0,0.0,0.0,0.0,0.0,0.0,0.0,0.0,0.0,0.0,0.0,0.0,0.0,0.0,0.0,0.0,0.0,0.0,0.0,0.0,0.0,0.0,0.0,0.0,0.0,0.0,0.0,0.0,0.0,0.0,0.0,0.0,0.0,0.0,0.0,0.0,0.0,0.0,0.0,0.0,0.0,0.0,0.0,0.0,0.0,0.0,0.0,0.0,0.0,0.0,0.0,0.0,0.0,0.0,0.0,0.0,0.0,0.0,0.0,0.0,0.0,0.0,0.0,0.0,0.0,0.0,0.0,0.0,0.0,0.0,0.0,0.0,0.0,0.0,0.0,0.0,0.0,0.0,0.0,0.0,0.0,0.0,0.0,0.0,0.0,0.0,0.0,0.0,0.0,0.0,0.0,0.0,0.0,0.083,0.0,-0.1471,-0.2688,-0.3827,-0.4916,-0.5751,-0.6189,-0.6404,0.0,0.0,0.0,0.0,0.0,0.0,0.0,0.0,0.0,0.0,0.0,0.0,0.0,0.0,0.0,0.0,0.0,0.0,0.0,0.0,0.0,0.0,0.0,0.0,0.0,0.0,0.0,0.0,0.0,0.0,0.0,0.0,0.0,0.0,0.0,0.0,0.0,0.0,0.0,1.4279,1.3153,1.2044,1.084,0.0,0.0,0.0,0.0,0.0,0.0,0.0,0.0,0.0,0.0,0.0,0.0,0.0,0.0,0.0,0.0,0.0,0.0,0.0,0.0,0.0,0.0,0.0,0.0,0.0,0.0,0.0,0.0,0.0,0.0,0.0,0.0,0.0,0.0,0.0,0.0,0.0,0.0,0.0,0.0,0.0,0.0,0.0,0.0,0.7789,0.7667,0.0,0.0,0.0,0.0,0.0,0.0,0.0,0.0,0.0,0.0,0.0,0.0,0.0,0.1274,0.1598,0.114,0.1058,0.1275,0.0665,-0.0112,-0.133,-0.2763,-0.409,-0.5418,-0.63,0.0,-0.6423,-0.6551,0.0,0.0,0.0,0.0,0.0,0.0,0.0,0.0,0.0,0.0,0.0,0.0,0.0,0.0,0.0,0.0,0.0,0.0,0.0,0.0,0.0,0.0,0.0,0.0,0.0,0.0,0.0,0.0,0.0,0.0,0.0,0.0,0.0,0.0,0.0,0.0,1.75,1.7358,1.7135,1.5454,1.4501,1.4013,1.135,0.9006,0.6925,0.5762,0.0,0.0,0.0,0.0,0.0,0.0,0.0,0.0,0.0,0.0,0.0,0.0,0.0,0.0,0.0,0.0,0.0,0.0,0.0,0.0,0.0,0.0,0.0,0.0,0.0,0.0,0.0,0.0,0.0,0.0,0.0,0.0,0.0,0.0,0.0,0.0,0.0,0.0,0.0,0.763,0.7983,0.791,0.7676,0.6918,0.0,0.0,0.0,0.0,0.0,0.0,0.0,0.0,0.0,0.1581,0.1421,0.1453,0.1691,0.1301,0.1103,0.1113,0.0564,-0.034,-0.1589,-0.2921,-0.425,-0.5477,-0.6433,-0.6844,-0.6719,-0.6694,-0.6684,-0.6741,0.0,0.0,0.0,0.0,-0.7177,-0.7102,0.0,0.0,0.0,0.0,0.0,0.0,0.0,0.0,0.0,0.0,0.0,0.0,0.0,0.0,0.0,0.0,0.0,0.0,0.0,0.0,0.0,0.0,0.0,0.0,0.0,0.0,0.0,0.0,1.9638,1.9492,1.9193,1.7299,1.6396,1.61,1.3696,1.0962,0.8132,0.6584,0.5274,0.0,0.0,0.0,0.0,0.0,0.0,0.0,0.0,0.0,0.0,0.0,0.0,0.0,0.0,0.0,0.0,0.0,0.0,0.0,0.0,0.0,0.0,0.0,0.0,0.0,0.0,0.0,0.0,0.0,0.0,0.0,0.0,0.0,0.0,0.0,0.0,0.0,0.0,0.7906,0.8308,0.817,0.8195,0.7658,0.0,0.0,0.0,0.0,0.0,0.0,0.1525,0.138,0.1426,0.1683,0.1498,0.1521,0.1761,0.1449,0.1129,0.0914,0.0451,-0.045,-0.1812,-0.3018,-0.4213,-0.5406,-0.6401,-0.691,-0.6907,-0.692,-0.6929,-0.7058,-0.7056,-0.7082,-0.7268,-0.7343,-0.7322,-0.7312,0.0,0.0,0.0,0.0,0.0,0.0,0.0,0.0,0.0,0.0,0.0,0.0,0.0,0.0,0.0,0.0,0.0,0.0,0.0,0.0,0.0,0.0,0.0,0.0,0.0,0.0,0.0,2.1043,2.1138,2.0751,1.9838,1.8349,1.7331,1.6539,1.4455,1.2317,1.0159,0.8524,0.6561,0.4446,0.0,0.0,0.0,0.0,0.0,0.0,0.0,0.0,0.0,0.0,0.0,0.0,0.0,0.0,0.0,0.0,0.0,0.0,0.0,0.0,0.0,0.0,0.0,0.0,0.0,0.0,0.0,0.0,0.0,0.0,0.0,0.0,0.0,0.0,0.0,0.0,0.0,0.0,0.0,0.8601,0.8982,0.0,0.0,0.0,0.0,0.3112,0.2195,0.1591,0.165,0.1682,0.1712,0.1744,0.1775,0.1791,0.1793,0.1233,0.0898,0.0898,0.0337,-0.0667,-0.186,-0.2949,-0.4111,-0.5214,-0.6167,-0.6703,-0.6801,-0.7176,-0.7345,-0.7201,-0.7502,-0.7577,-0.756,-0.7421,-0.7458,-0.76,0.0,0.0,0.0,0.0,0.0,0.0,0.0,0.0,0.0,0.0,0.0,0.0,0.0,0.0,0.0,0.0,0.0,0.0,0.0,0.0,0.0,0.0,0.0,0.0,0.0,0.0,2.294,2.4155,2.2756,2.1722,2.1024,1.9334,1.7996,1.7053,1.5219,1.3682,1.2311,0.9579,0.7476,0.5901,0.466,0.3527,0.0,0.0,0.0,0.0,0.0,0.0,0.0,0.0,0.0,0.0,0.0,0.0,0.0,0.0,0.0,0.0,0.0,0.0,0.0,0.0,0.0,0.0,0.0,0.0,0.0,0.0,0.0,0.0,0.0,0.0,0.0,0.0,0.0,0.0,0.0,0.0,0.0,0.9425,0.9689,0.0,0.7778,0.7042,0.5785,0.378,0.3229,0.2678,0.1826,0.1746,0.1767,0.1778,0.1789,0.1785,0.1766,0.1338,0.111,0.0869,0.044,-0.0437,-0.1824,-0.2895,-0.406,-0.5197,-0.6072,-0.6526,-0.6551,-0.6851,-0.718,-0.7342,-0.7657,-0.7736,-0.7719,-0.7573,-0.7553,-0.7607,0.0,0.0,0.0,0.0,0.0,0.0,0.0,0.0,0.0,0.0,0.0,0.0,0.0,0.0,0.0,0.0,0.0,0.0,0.0,0.0,0.0,0.0,0.0,0.0,0.0,2.4538,2.4819,2.5603,2.3838,2.2557,2.1724,1.9987,1.8629,1.7688,1.626,1.4957,1.3637,1.1103,0.8905,0.7167,0.5742,0.4566,0.3615,0.0,0.0,0.0,0.0,0.0,0.0,0.0,0.0,0.0,0.0,0.0,0.0,0.0,0.0,0.0,0.0,0.0,0.0,0.0,0.0,0.0,0.0,0.0,0.0,0.0,0.0,0.0,0.0,0.0,0.0,0.0,0.0,0.0,0.0,0.0,0.9807,0.9799,1.0172,0.9993,0.8767,0.8226,0.7107,0.5269,0.4289,0.3362,0.2426,0.2006,0.1791,0.178,0.178,0.1765,0.1735,0.1425,0.12,0.0854,0.0537,-0.0107,-0.1265,-0.2722,-0.3744,-0.4543,-0.5844,-0.6355,-0.6306,-0.6625,-0.69,-0.7217,-0.7568,-0.7695,-0.7716,-0.7519,-0.7478,-0.7516,0.0,0.0,0.0,0.0,0.0,0.0,0.0,0.0,0.0,0.0,0.0,0.0,0.0,0.0,0.0,0.0,0.0,0.0,0.0,0.0,0.0,0.0,0.0,0.0,2.4091,2.5135,2.5535,2.5314,2.4405,2.3238,2.1808,2.0369,1.9222,1.8343,1.7543,1.6065,1.425,1.3228,1.1037,0.8234,0.7279,0.598,0.4605,0.0,0.0,0.0,0.0,0.0,0.0,0.0,0.0,0.0,0.0,0.0,0.0,0.0,0.0,0.0,0.0,0.0,0.0,0.0,0.0,0.0,0.0,0.0,0.0,0.0,0.0,0.0,0.0,0.0,0.0,0.0,0.0,0.0,0.9262,0.971,1.0149,0.9709,1.044,1.0655,0.9926,0.8996,0.8121,0.7422,0.5174,0.376,0.3583,0.2465,0.1781,0.175,0.175,0.1735,0.1703,0.1491,0.1172,0.0852,0.0523,0.0311,-0.0104,-0.2234,-0.3089,-0.3129,-0.5278,-0.6189,-0.6078,-0.6355,-0.6635,-0.6816,-0.7244,-0.7461,-0.7556,-0.7251,-0.7234,-0.7343,0.0,0.0,0.0,0.0,0.0,0.0,0.0,0.0,0.0,0.0,0.0,0.0,0.0,0.0,0.0,0.0,0.0,0.0,0.0,0.0,0.0,0.0,0.0,0.0,2.8058,2.7111,2.6683,2.7011,2.4843,2.3297,2.226,2.0714,1.9413,1.8307,1.6688,1.5528,1.4753,1.415,1.2711,1.0814,0.9161,0.7431,0.5792,0.0,0.0,0.0,0.0,0.0,0.0,0.0,0.0,0.0,0.0,0.0,0.0,0.0,0.0,0.0,0.0,0.0,0.0,0.0,0.0,0.0,0.0,0.0,0.0,0.0,0.0,0.0,0.0,0.0,0.0,0.0,0.0,1.2352,1.1053,1.1257,1.1367,1.0687,1.0818,1.0911,1.0651,1.0085,0.9178,0.7886,0.6109,0.4665,0.3695,0.2465,0.1781,0.175,0.175,0.1725,0.1674,0.1588,0.1367,0.0821,0.0828,0.0512,0.0,-0.1387,-0.2344,-0.3064,-0.4434,-0.5327,-0.5947,-0.6133,-0.6277,-0.6373,-0.6894,-0.7217,-0.7411,-0.7214,-0.7166,-0.7197,0.0,0.0,0.0,0.0,0.0,0.0,0.0,0.0,0.0,0.0,0.0,0.0,0.0,0.0,0.0,0.0,0.0,0.0,0.0,0.0,0.0,0.0,0.0,2.7898,2.9066,2.7593,2.6826,2.6856,2.4488,2.2962,2.2203,2.0813,1.9745,1.9024,1.7689,1.6639,1.5879,1.5526,1.4417,1.2858,1.1748,0.9719,0.7446,0.7368,0.6463,0.5281,0.5614,0.5535,0.5351,0.6074,0.0,0.0,0.0,0.0,0.0,0.0,0.0,0.0,0.0,0.0,0.0,0.0,0.0,0.0,0.0,0.0,0.0,0.0,0.0,0.0,0.0,0.0,0.0,0.0,1.4245,1.4196,1.3346,1.2745,1.2005,1.0945,1.0923,1.0911,1.0761,1.0343,0.9622,0.8649,0.7105,0.5569,0.4274,0.307,0.2178,0.1821,0.1713,0.1684,0.1625,0.164,0.1422,0.0888,0.0898,0.0595,0.0097,-0.1065,-0.1819,0.0,-0.3892,-0.4774,-0.528,-0.5757,-0.5997,0.0,0.0,0.0,0.0,0.0,-0.7139,-0.7132,0.0,0.0,0.0,0.0,0.0,0.0,0.0,0.0,0.0,0.0,0.0,0.0,0.0,0.0,0.0,0.0,0.0,0.0,0.0,0.0,0.0,2.7207,2.7303,2.7564,2.8285,2.7292,2.6401,2.5719,2.385,2.2656,2.2073,2.0907,2.0301,2.0105,1.9553,1.8537,1.7274,1.7196,1.6197,1.4625,1.4703,1.2569,0.9327,0.905,0.818,0.7233,0.759,0.7108,0.6373,0.7344,0.0,0.0,0.0,0.0,0.0,0.0,0.0,0.0,0.0,0.0,0.0,0.0,0.0,0.0,0.0,0.0,0.0,0.0,0.0,0.0,0.0,0.0,0.0,0.0,1.6319,1.6384,1.5488,1.4008,1.2463,1.1,1.1011,1.0871,1.0465,1.0012,0.9641,0.935,0.7852,0.6468,0.5404,0.0,0.0,0.0,0.0,0.1621,0.1567,0.1566,0.1456,0.1144,0.0954,0.0667,0.038,-0.0854,-0.1407,-0.1472,-0.3308,-0.4186,-0.4389,-0.5196,-0.5722,-0.6151,-0.6612,-0.6795,-0.6792,-0.7034,-0.7115,-0.7095,0.0,0.0,0.0,0.0,0.0,0.0,0.0,0.0,0.0,0.0,0.0,0.0,0.0,0.0,0.0,0.0,0.0,0.0,0.0,0.0,2.7059,2.7975,2.8535,2.8838,2.8847,2.7665,2.6621,2.578,2.4381,2.3547,2.3272,2.2055,2.1337,2.1011,1.9827,1.8912,1.8323,1.8849,1.8377,1.7254,1.7157,1.4883,1.1444,1.1151,1.0544,0.9959,0.99,1.0215,1.0723,1.126,1.1468,1.1688,1.2622,0.0,0.0,0.0,0.0,0.0,0.0,0.0,0.0,0.0,0.0,0.0,0.0,0.0,0.0,0.0,0.0,0.0,0.0,0.0,0.0,1.5752,1.6522,1.6526,1.5245,1.4926,1.4112,1.2046,1.1645,1.1296,1.0535,1.0012,0.9711,0.9646,0.8075,0.6873,0.6548,0.4407,0.0,0.2775,0.1954,0.1547,0.1535,0.1535,0.134,0.1144,0.0,0.0,0.0372,0.0093,-0.046,-0.1443,-0.1804,-0.2877,-0.43,-0.4478,-0.5139,-0.6022,-0.6571,-0.6795,-0.6779,-0.6927,-0.697,-0.6949,0.0,0.0,0.0,0.0,0.0,0.0,0.0,0.0,0.0,0.0,0.0,0.0,0.0,0.0,0.0,0.0,0.0,0.0,0.0,2.6731,2.7743,2.8366,2.8402,2.835,2.8254,2.6765,2.5791,2.5359,2.4067,2.3414,2.3277,2.2471,2.2016,2.1817,2.1066,2.0606,2.0358,2.0519,2.04,2.0047,1.9568,1.8331,1.6543,1.4399,1.3057,1.2401,1.2657,1.2668,1.2685,1.3543,1.4015,1.4349,1.4991,1.515,1.5031,0.0,0.0,0.0,0.0,0.0,0.0,0.0,0.0,0.0,0.0,0.0,0.0,0.0,0.0,1.5467,0.0,0.0,1.6346,1.6833,1.711,1.7007,1.6386,1.6144,1.4912,1.1928,1.1545,1.1105,1.0002,0.9591,0.9489,0.9489,0.8487,0.75,0.6833,0.5431,0.4188,0.2995,0.2489,0.1993,0.1504,0.1503,0.1402,0.1203,0.111,0.1012,0.0729,0.0638,0.0181,-0.0538,-0.1522,-0.2596,-0.3669,-0.4515,-0.5218,-0.5718,-0.6126,-0.6411,-0.657,-0.6668,-0.6729,-0.6793,0.0,0.0,0.0,0.0,0.0,0.0,0.0,0.0,0.0,0.0,0.0,0.0,0.0,0.0,0.0,0.0,0.0,0.0,0.0,2.7276,2.8011,2.8549,2.7834,2.7339,2.7141,2.5739,2.4929,2.4735,2.3715,2.32,2.3117,2.2842,2.2745,2.2825,2.2738,2.276,2.2801,2.2569,2.2696,2.2907,2.2124,2.1982,2.1902,1.8484,1.6352,1.5149,1.5561,1.512,1.4513,1.5638,1.6288,1.6524,1.7029,1.7128,1.69,1.5732,1.5823,0.0,0.0,0.0,0.0,0.0,0.0,0.0,0.0,0.0,1.8171,1.8939,1.8442,1.7918,1.8473,1.8059,1.786,1.8053,1.7868,1.7661,1.7253,1.6805,1.5396,1.2045,1.1697,1.1053,0.9623,0.9283,0.9151,0.928,0.8829,0.8137,0.7044,0.6541,0.5536,0.376,0.3281,0.2698,0.193,0.1656,0.1551,0.1436,0.1256,0.1166,0.1076,0.0897,0.0628,0.0358,-0.1603,-0.2661,-0.318,-0.4774,-0.5357,-0.5336,-0.5504,-0.5815,-0.6201,-0.6309,-0.6407,-0.6552,0.0,0.0,0.0,0.0,0.0,0.0,0.0,0.0,0.0,0.0,0.0,0.0,0.0,0.0,0.0,0.0,0.0,0.0,2.7112,2.7935,2.8406,2.8427,2.7659,2.682,2.593,2.5597,2.5022,2.4188,2.4118,2.3911,2.361,2.3751,2.4031,2.4438,2.449,2.479,2.5303,2.5555,2.5704,2.5712,2.5178,2.5127,2.515,2.3559,2.1307,1.8896,1.8516,1.8351,1.8375,1.9209,1.8889,1.8404,1.9416,1.9406,1.8665,1.7284,0.0,1.7571,1.542,1.5658,1.6833,1.8275,1.8964,1.9777,0.0,0.0,2.1431,2.2176,2.1505,2.0777,2.0818,2.0346,1.9717,1.8601,1.8636,1.813,1.6536,1.6409,1.5784,1.3711,1.3003,1.1939,1.007,0.9427,0.9222,0.9372,0.893,0.8579,0.8341,0.7175,0.6373,0.6014,0.4328,0.3444,0.3321,0.2339,0.1798,0.1794,0.1525,0.1256,0.1076,0.1076,0.0897,0.0537,-0.1228,-0.258,-0.363,-0.4718,-0.5069,-0.4971,-0.5208,-0.5302,-0.5454,-0.5808,-0.6096,-0.6241,0.0,0.0,0.0,0.0,0.0,0.0,0.0,0.0,0.0,0.0,0.0,0.0,0.0,0.0,0.0,0.0,0.0,0.0,2.7269,2.8577,2.8874,2.7859,2.75,2.6703,2.5381,2.517,2.4939,2.4613,2.4998,2.5176,2.511,2.566,2.5965,2.6096,2.6172,2.6438,2.6835,2.6555,2.6835,2.7406,2.6592,2.6563,2.6919,2.6034,2.4842,2.3393,2.1442,2.0395,0.0,0.0,2.0171,2.0037,2.0386,1.9918,1.8971,1.7816,1.8029,0.0,1.8714,1.8426,1.8533,0.0,2.0633,2.0938,2.2394,2.2419,2.2362,2.3364,2.2742,2.1939,2.1908,2.1345,2.0492,0.0,1.9169,1.8588,1.7001,1.6791,1.6069,1.4381,1.3894,1.2995,1.1456,1.0584,1.0125,1.0206,0.9301,0.8714,0.8469,0.7845,0.7217,0.6416,0.5569,0.4953,0.4376,0.34,0.2865,0.2865,0.2152,0.1783,0.1673,0.1673,0.1136,0.0172,-0.0854,-0.2101,-0.3455,-0.3866,-0.4302,-0.4609,-0.4688,-0.4776,-0.4909,-0.5422,-0.5752,-0.5883,0.0,0.0,0.0,0.0,0.0,0.0,0.0,0.0,0.0,0.0,0.0,0.0,0.0,0.0,0.0,0.0,0.0,0.0,0.0,2.8528,2.8799,2.7918,2.7409,0.0,2.5843,2.5228,2.5183,2.5691,2.5961,2.6223,2.6475,2.7115,2.7471,2.7557,2.7595,2.788,2.8309,2.771,2.7948,2.864,2.8062,2.8092,2.8423,2.7906,2.749,2.6809,2.393,2.239,0.0,0.0,2.128,2.1158,2.0904,2.0111,1.9153,1.8269,1.8401,1.9109,2.0544,0.0,0.0,2.1807,2.212,2.2334,2.3268,2.3387,2.3477,2.4274,2.371,2.2975,2.2963,2.2389,2.1657,2.0632,2.0179,1.9445,1.7827,1.7319,1.6669,1.5238,1.4929,1.4482,1.3517,1.1752,1.0758,1.0726,0.9651,0.8841,0.8575,0.8452,0.7933,0.7041,0.6734,0.6204,0.562,0.4504,0.3879,0.3636,0.2826,0.2354,0.2048,0.2048,0.1263,0.0,-0.0332,-0.1472,-0.3023,-0.3102,-0.353,-0.4222,-0.4299,-0.4327,-0.4479,-0.4893,-0.527,-0.5507,0.0,0.0,0.0,0.0,0.0,0.0,0.0,0.0,0.0,0.0,0.0,0.0,0.0,0.0,0.0,0.0,0.0,0.0,0.0,2.7514,2.7951,2.8994,2.7431,2.6871,2.7599,2.6014,2.5922,2.7412,2.6853,2.6857,2.7367,2.7593,2.8077,2.8755,2.8684,2.9144,2.9924,2.9765,2.9626,2.9509,3.0148,3.0217,2.989,2.9548,2.9094,2.8334,2.5893,0.0,0.0,0.0,2.2586,2.1716,2.1212,2.0457,0.0,1.8792,1.8635,0.0,0.0,0.0,2.1362,2.2794,2.3809,2.4476,2.4956,2.5242,2.5501,2.5532,2.4948,2.4336,2.4326,2.3987,2.3436,2.2441,2.1907,2.0875,1.8774,1.8066,1.7508,1.6591,1.6505,1.642,0.0,1.2763,1.0567,1.0503,0.9721,0.9095,0.8664,0.874,0.8736,0.8564,0.7433,0.6903,0.7051,0.5485,0.4413,0.3815,0.3399,0.2745,0.1872,0.1872,0.1285,0.0314,0.0322,-0.0711,-0.2418,-0.2646,-0.3129,-0.3864,-0.4012,-0.4085,-0.414,-0.4179,-0.4564,-0.5026,0.0,0.0,0.0,0.0,0.0,0.0,0.0,0.0,0.0,0.0,0.0,0.0,0.0,0.0,0.0,0.0,0.0,0.0,0.0,2.7828,2.842,2.83,2.8309,2.8434,2.8753,2.8218,2.8465,2.9555,2.993,3.0192,3.0329,3.0981,3.1394,3.1595,3.1552,3.1634,3.173,3.1632,3.1803,3.2108,3.1584,3.1593,3.1776,3.036,2.962,2.9058,0.0,0.0,0.0,0.0,2.3271,2.2644,2.2503,2.1472,0.0,1.9667,1.9813,2.0418,2.1832,0.0,2.263,2.3732,2.4158,2.4333,2.4601,2.5014,2.5319,2.5367,2.4352,2.3533,2.3766,2.3083,2.2274,2.1767,2.1665,2.1182,1.958,1.8963,1.8267,1.7556,1.711,0.0,0.0,0.0,0.0,1.2641,1.11,1.012,0.9946,0.9298,0.8888,0.8803,0.8283,0.805,0.811,0.6819,0.6043,0.5835,0.4568,0.3354,0.2299,0.238,0.2033,0.1421,0.1282,0.0524,-0.0663,-0.0737,-0.1613,-0.2838,-0.2691,-0.3094,-0.3745,-0.3233,-0.3385,-0.3907,0.0,0.0,0.0,0.0,0.0,0.0,0.0,0.0,0.0,0.0,0.0,0.0,0.0,0.0,0.0,0.0,0.0,0.0,0.0,0.0,2.8063,2.7934,2.8476,2.8935,2.9285,2.9012,2.9434,3.0605,3.1154,3.1576,3.1853,3.2735,3.3103,3.3073,3.3042,3.3094,3.3173,3.313,3.3108,3.3072,3.2555,3.2381,3.226,3.0874,3.0333,0.0,0.0,0.0,0.0,0.0,2.3909,2.3363,2.3067,2.2105,2.1021,2.089,2.124,2.1961,2.3621,2.3936,2.4046,2.4962,2.5006,2.4921,2.537,2.5206,2.5055,2.5604,2.4277,2.3224,2.3854,2.3165,2.2412,2.2098,2.2108,2.1812,2.0688,2.0003,1.9382,1.8795,1.8324,1.7779,0.0,0.0,0.0,1.3893,1.2422,1.1321,1.0641,0.9909,0.9372,0.8954,0.8621,0.8526,0.8595,0.7724,0.7148,0.6763,0.5075,0.3839,0.3085,0.2916,0.2658,0.2303,0.225,0.1594,0.0646,0.0497,-0.0281,-0.1392,-0.1586,-0.2037,-0.2599,-0.236,-0.2431,-0.2882,0.0,0.0,0.0,0.0,0.0,0.0,0.0,0.0,0.0,0.0,0.0,0.0,0.0,0.0,0.0,0.0,0.0,0.0,0.0,0.0,0.0,2.7969,2.8102,2.8555,2.9426,2.8701,2.9107,3.0749,3.0775,3.1227,3.2043,3.2926,3.3324,3.3311,3.3219,3.3583,3.4268,3.4218,3.3561,3.2594,3.3204,3.2748,3.1599,3.1237,0.0,0.0,0.0,0.0,0.0,0.0,0.0,0.0,2.3145,2.2488,2.212,2.2457,2.2885,2.354,2.5035,2.5425,2.5618,2.6362,2.6384,2.6401,2.6947,2.582,2.5021,2.6173,2.4597,2.3379,0.0,0.0,2.3785,2.3394,2.3297,2.2966,2.2117,2.1469,2.0864,0.0,0.0,0.0,0.0,0.0,0.0,1.4314,0.0,1.2772,1.0901,1.0742,1.0193,0.9105,0.8648,0.8533,0.8629,0.8338,0.7593,0.6515,0.4997,0.4253,0.4117,0.3633,0.3211,0.2861,0.3008,0.2494,0.1455,0.1215,0.0854,0.0383,-0.0622,-0.0984,-0.0982,-0.1474,-0.1749,-0.1947,0.0,0.0,0.0,0.0,0.0,0.0,0.0,0.0,0.0,0.0,0.0,0.0,0.0,0.0,0.0,0.0,0.0,0.0,0.0,0.0,0.0,0.0,0.0,0.0,0.0,0.0,0.0,0.0,0.0,3.3677,3.3852,3.4734,3.5119,0.0,3.4417,3.4526,3.513,3.453,3.4364,3.4478,0.0,3.4076,3.3412,0.0,0.0,0.0,0.0,0.0,0.0,0.0,0.0,0.0,0.0,2.4264,2.4164,2.4713,2.4823,2.497,2.5647,2.6098,2.6315,2.6148,2.6341,2.6527,2.653,2.6431,2.6214,2.6033,2.4893,2.3942,0.0,0.0,0.0,2.4146,2.5047,0.0,2.4883,2.4407,0.0,2.2416,0.0,2.0068,1.9167,1.8871,0.0,0.0,1.5111,1.4193,1.3691,1.1911,1.0941,1.0941,0.9703,0.9123,0.9241,0.8807,0.7987,0.6701,0.6765,0.5971,0.4455,0.4572,0.4082,0.3162,0.3251,0.3012,0.2608,0.2524,0.2001,0.124,0.117,0.0368,-0.0673,-0.03,-0.0592,-0.123,0.0,0.0,0.0,0.0,0.0,0.0,0.0,0.0,0.0,0.0,0.0,0.0,0.0,0.0,0.0,0.0,0.0,0.0,0.0,0.0,0.0,0.0,0.0,0.0,0.0,0.0,0.0,0.0,0.0,0.0,0.0,3.427,3.4633,3.4584,3.4135,3.4323,3.4943,0.0,0.0,0.0,0.0,0.0,0.0,0.0,0.0,0.0,0.0,0.0,0.0,0.0,0.0,2.5895,2.5676,2.5499,2.5546,2.6074,0.0,2.6156,2.6302,2.6509,2.6513,2.5827,2.574,2.5909,2.5921,2.5827,2.5798,2.6139,2.5094,0.0,0.0,0.0,0.0,0.0,0.0,0.0,2.5859,2.5495,2.4844,0.0,2.2423,0.0,1.9859,1.945,1.8892,0.0,1.6687,1.5609,1.4789,1.2907,1.181,1.1576,1.0319,0.951,0.9499,0.9011,0.8423,0.7646,0.7716,0.6897,0.5362,0.5346,0.4653,0.3535,0.0,0.3623,0.3378,0.3334,0.3071,0.2643,0.243,0.1708,0.0879,0.0739,0.0337,-0.0224,0.0,0.0,0.0,0.0,0.0,0.0,0.0,0.0,0.0,0.0,0.0,0.0,0.0,0.0,0.0,0.0,0.0,0.0,0.0,0.0,0.0,0.0,0.0,0.0,0.0,0.0,0.0,0.0,0.0,0.0,0.0,0.0,0.0,0.0,0.0,0.0,0.0,0.0,0.0,0.0,0.0,0.0,0.0,0.0,0.0,0.0,0.0,0.0,0.0,0.0,2.7621,2.6925,2.6746,2.6626,2.6551,2.693,2.6959,2.6898,2.6756,2.6612,2.6333,2.5637,2.514,2.4999,2.525,2.4783,2.4694,2.6006,0.0,2.4473,2.6092,2.5897,2.5509,2.5307,0.0,2.6703,2.6321,2.5954,2.5408,2.454,2.358,2.2382,2.0643,1.9998,1.9453,1.8836,1.8103,1.6961,1.5155,1.3773,1.2628,1.1733,1.0621,0.9911,0.9735,0.9182,0.8858,0.8826,0.8148,0.7423,0.6599,0.6037,0.514,0.4088,0.0,0.0,0.3936,0.389,0.4013,0.4107,0.3268,0.2943,0.2802,0.1766,0.1216,0.0891,0.0,0.0,0.0,0.0,0.0,0.0,0.0,0.0,0.0,0.0,0.0,0.0,0.0,0.0,0.0,0.0,0.0,0.0,0.0,0.0,0.0,0.0,0.0,0.0,0.0,0.0,0.0,0.0,0.0,0.0,0.0,0.0,0.0,0.0,0.0,0.0,0.0,0.0,0.0,0.0,0.0,0.0,0.0,0.0,0.0,0.0,0.0,0.0,0.0,0.0,2.7953,2.8342,2.8373,2.82,2.7917,2.7472,2.6842,2.6352,2.6306,2.6229,2.6014,2.5644,2.5506,2.5292,2.4567,2.4674,0.0,0.0,2.4676,2.5171,2.5233,2.5529,2.6047,2.6896,0.0,0.0,0.0,0.0,2.736,0.0,0.0,0.0,0.0,0.0,0.0,0.0,0.0,1.7848,1.6984,1.4774,1.3178,1.2202,1.1227,1.0814,1.0981,1.006,0.9366,0.8828,0.8844,0.8438,0.76,0.694,0.6173,0.5351,0.4962,0.0,0.4541,0.4518,0.4433,0.4173,0.4204,0.372,0.2977,0.294,0.2493,0.1813,0.0,0.0,0.0,0.0,0.0,0.0,0.0,0.0,0.0,0.0,0.0,0.0,0.0,0.0,0.0,0.0,0.0,0.0,0.0,0.0,0.0,0.0,0.0,0.0,0.0,0.0,0.0,0.0,0.0,0.0,0.0,0.0,0.0,0.0,0.0,0.0,0.0,0.0,0.0,0.0,0.0,0.0,0.0,0.0,0.0,0.0,0.0,0.0,0.0,0.0,2.8553,2.8591,2.8295,2.8062,2.7811,2.7488,2.6842,2.6259,2.6274,2.5939,2.5454,2.5,2.4821,2.4626,2.4015,0.0,0.0,0.0,2.478,2.525,2.5821,0.0,0.0,0.0,0.0,0.0,0.0,0.0,0.0,0.0,0.0,0.0,0.0,0.0,0.0,0.0,0.0,1.8044,1.7009,1.5017,1.3529,1.2586,1.1983,1.1479,1.1145,1.0521,0.9862,0.9106,0.9375,0.898,0.8005,0.7837,0.7055,0.5845,0.5574,0.0,0.5014,0.5014,0.491,0.4785,0.4778,0.4572,0.4165,0.3627,0.3406,0.3232,0.0,0.0,0.0,0.0,0.0,0.0,0.0,0.0,0.0,0.0,0.0,0.0,0.0,0.0,0.0,0.0,0.0,0.0,0.0,0.0,0.0,0.0,0.0,0.0,0.0,0.0,0.0,0.0,0.0,0.0,0.0,0.0,0.0,0.0,0.0,0.0,0.0,0.0,0.0,0.0,0.0,0.0,0.0,0.0,0.0,0.0,0.0,0.0,0.0,0.0,2.8933,2.8481,2.7673,2.7736,2.7934,2.7349,2.698,2.6718,2.6457,2.5951,2.531,2.479,2.4551,2.4301,2.3591,2.3596,0.0,0.0,2.4742,2.5241,2.6599,0.0,2.6984,0.0,0.0,0.0,0.0,0.0,0.0,0.0,0.0,0.0,0.0,0.0,0.0,0.0,0.0,0.0,1.6254,1.4925,1.3891,1.315,1.2592,1.2034,1.1367,1.1105,1.0498,0.9579,0.988,0.9473,0.8361,0.8462,0.7757,0.6519,0.6411,0.0,0.0,0.5599,0.5498,0.5316,0.5159,0.5225,0.5268,0.4384,0.4318,0.4492,0.0,0.0,0.0,0.0,0.0,0.0,0.0,0.0,0.0,0.0,0.0,0.0,0.0,0.0,0.0,0.0,0.0,0.0,0.0,0.0,0.0,0.0,0.0,0.0,0.0,0.0,0.0,0.0,0.0,0.0,0.0,0.0,0.0,0.0,0.0,0.0,0.0,0.0,0.0,0.0,0.0,0.0,0.0,0.0,0.0,0.0,0.0,0.0,0.0,0.0,0.0,2.8341,2.7053,2.8215,2.9673,2.7211,0.0,0.0,2.6718,2.6349,2.6227,2.6061,2.6,2.5482,2.3443,0.0,0.0,2.3689,2.4239,2.5319,2.6718,2.6373,0.0,0.0,0.0,0.0,0.0,0.0,0.0,0.0,0.0,0.0,0.0,0.0,0.0,0.0,0.0,0.0,1.5294,1.4707,1.4273,1.4047,1.2894,1.2362,1.2605,1.2214,1.1352,1.0133,1.0392,1.005,0.9088,0.8413,0.8187,0.815,0.7753,0.0,0.0,0.654,0.6101,0.5391,0.5503,0.5429,0.5331,0.5404,0.5335,0.5154,0.0,0.0,0.0,0.0,0.0,0.0,0.0,0.0,0.0,0.0,0.0,0.0,0.0,0.0,0.0,0.0,0.0,0.0,0.0,0.0,0.0,0.0,0.0,0.0,0.0,0.0,0.0,0.0,0.0,0.0,0.0,0.0,0.0,0.0,0.0,0.0,0.0,0.0,0.0,0.0,0.0,0.0,0.0,0.0,0.0,0.0,0.0,0.0,0.0,0.0,0.0,0.0,2.7226,2.8044,0.0,0.0,2.7088,2.7257,2.7519,2.7596,2.7411,2.6535,2.5983,2.5267,2.3876,0.0,2.3508,2.3941,2.4508,2.5354,2.6769,2.668,2.6529,0.0,0.0,0.0,0.0,0.0,0.0,0.0,0.0,0.0,0.0,0.0,0.0,0.0,0.0,0.0,1.6156,1.4863,1.4035,1.3885,1.3387,1.2896,1.2525,1.2344,1.18,1.0777,1.0817,1.0516,1.002,0.9539,0.901,0.8428,0.8261,0.0,0.0,0.6898,0.6639,0.6229,0.5992,0.5954,0.6007,0.5742,0.5881,0.605,0.0,0.0,0.0,0.0,0.0,0.0,0.0,0.0,0.0,0.0,0.0,0.0,0.0,0.0,0.0,0.0,0.0,0.0,0.0,0.0,0.0,0.0,0.0,0.0,0.0,0.0,0.0,0.0,0.0,0.0,0.0,0.0,0.0,0.0,0.0,0.0,0.0,0.0,0.0,0.0,0.0,0.0,0.0,0.0,0.0,0.0,0.0,0.0,0.0,0.0,0.0,0.0,0.0,0.0,0.0,0.0,2.7042,2.7149,2.7904,2.8258,2.8181,2.7226,2.6366,2.5481,0.0,0.0,2.3684,2.4075,2.4793,2.5672,2.6836,2.6951,2.6779,0.0,0.0,0.0,0.0,0.0,0.0,0.0,0.0,0.0,0.0,0.0,0.0,0.0,0.0,0.0,0.0,1.4769,1.3955,1.3893,1.3681,1.3219,1.2489,1.2753,1.2434,1.1566,1.1558,1.1179,1.0523,1.0327,0.9717,0.8763,0.0,0.0,0.0,0.7616,0.7431,0.7111,0.6789,0.6722,0.6704,0.6341,0.6404,0.6623,0.0,0.0,0.0,0.0,0.0,0.0,0.0,0.0,0.0,0.0,0.0,0.0,0.0,0.0,0.0,0.0,0.0,0.0,0.0,0.0,0.0,0.0,0.0,0.0,0.0,0.0,0.0,0.0,0.0,0.0,0.0,0.0,0.0,0.0,0.0,0.0,0.0,0.0,0.0,0.0,0.0,0.0,0.0,0.0,0.0,0.0,0.0,0.0,0.0,0.0,0.0,0.0,0.0,0.0,0.0,0.0,2.7349,2.8242,2.758,2.7888,2.8411,2.8381,2.7762,2.6627,0.0,0.0,2.5211,2.3879,2.487,2.6249,2.7063,2.6989,2.6779,2.6779,0.0,0.0,0.0,0.0,0.0,0.0,0.0,0.0,0.0,0.0,0.0,0.0,0.0,0.0,0.0,1.4373,1.4249,1.439,1.3587,1.3085,1.2968,1.3611,1.3381,1.2374,1.2868,1.2081,1.031,1.0494,1.0111,0.0,0.0,0.0,0.0,0.8925,0.859,0.7987,0.7979,0.7739,0.7377,0.7377,0.7083,0.6715,0.0,0.0,0.0,0.0,0.0,0.0,0.0,0.0,0.0,0.0,0.0,0.0,0.0,0.0,0.0,0.0,0.0,0.0,0.0,0.0,0.0,0.0,0.0,0.0,0.0,0.0,0.0,0.0,0.0,0.0,0.0,0.0,0.0,0.0,0.0,0.0,0.0,0.0,0.0,0.0,0.0,0.0,0.0,0.0,0.0,0.0,0.0,0.0,0.0,0.0,0.0,0.0,0.0,0.0,0.0,0.0,0.0,0.0,2.7069,2.7618,2.7908,2.6993,2.6168,2.5303,2.4139,2.3998,2.4134,2.4149,2.5147,2.6199,2.6923,2.6951,2.6779,2.6779,2.6779,0.0,0.0,0.0,0.0,0.0,0.0,0.0,0.0,0.0,0.0,0.0,0.0,0.0,0.0,1.5666,1.4857,1.4132,1.3491,1.318,1.3276,1.3573,1.3524,1.3218,1.3067,1.2532,1.1659,1.136,0.0,0.0,0.0,0.0,0.0,0.8882,0.8651,0.8349,0.8333,0.8203,0.7964,0.7724,0.7607,0.753,0.0,0.0,0.0,0.0,0.0,0.0,0.0,0.0,0.0,0.0,0.0,0.0,0.0,0.0,0.0,0.0,0.0,0.0,0.0,0.0,0.0,0.0,0.0,0.0,0.0,0.0,0.0,0.0,0.0,0.0,0.0,0.0,0.0,0.0,0.0,0.0,0.0,0.0,0.0,0.0,0.0,0.0,2.7295,0.0,0.0,0.0,0.0,0.0,0.0,0.0,0.0,0.0,0.0,0.0,0.0,0.0,2.4893,0.0,0.0,2.6746,2.7066,2.6229,2.544,2.4745,2.422,2.4149,2.4267,2.4636,2.5614,2.6506,2.693,2.6899,2.6779,2.6779,2.6779,0.0,0.0,0.0,0.0,0.0,0.0,0.0,0.0,0.0,0.0,0.0,0.0,0.0,0.0,1.6191,1.5365,1.4698,1.4179,1.3862,1.3847,1.3931,1.3799,1.3408,1.3211,1.269,1.1822,1.1635,0.0,0.0,0.0,0.0,0.0,0.912,0.9029,0.903,0.8867,0.865,0.8429,0.8326,0.8014,0.7566,0.0,0.0,0.0,0.0,0.0,0.0,0.0,0.0,0.0,0.0,0.0,0.0,0.0,0.0,0.0,0.0,0.0,0.0,0.0,0.0,0.0,0.0,0.0,0.0,0.0,0.0,0.0,2.4194,2.4496,2.4823,2.5169,0.0,0.0,0.0,0.0,0.0,0.0,0.0,0.0,0.0,0.0,0.0,0.0,0.0,0.0,0.0,0.0,0.0,0.0,0.0,0.0,0.0,0.0,0.0,0.0,0.0,0.0,0.0,0.0,2.5394,0.0,2.5895,2.5334,2.4747,2.4642,2.5057,0.0,2.5261,2.6176,2.7003,2.7003,2.6899,2.6779,2.6779,2.6823,0.0,0.0,0.0,0.0,0.0,0.0,0.0,0.0,0.0,0.0,0.0,0.0,0.0,0.0,1.6071,1.5784,1.5784,1.5339,1.4891,1.4492,1.4664,1.4181,1.311,1.3254,1.256,1.1155,1.149,0.0,0.0,0.0,0.0,0.0,0.9667,0.963,0.9942,0.9554,0.9115,0.8796,0.9177,0.8328,0.712,0.0,0.0,0.0,0.0,0.0,0.0,0.0,0.0,0.0,0.0,0.0,0.0,0.0,0.0,0.0,0.0,0.0,0.0,0.0,0.0,0.0,0.0,0.0,0.0,0.0,0.0,0.0,2.396,2.4044,2.4333,2.4736,2.4776,0.0,0.0,0.0,0.0,0.0,0.0,0.0,0.0,0.0,0.0,0.0,0.0,0.0,0.0,2.3789,2.3674,0.0,0.0,0.0,0.0,0.0,0.0,0.0,0.0,2.3653,2.3788,2.4477,0.0,2.4282,2.4657,2.4626,2.461,0.0,2.5452,2.5874,2.5824,0.0,0.0,2.6846,2.6832,2.6779,2.6779,2.72,0.0,0.0,0.0,0.0,0.0,0.0,0.0,0.0,0.0,0.0,0.0,0.0,0.0,0.0,1.6036,1.5757,1.5786,1.5386,1.4996,1.4586,1.4661,1.4193,1.3264,1.3401,1.2872,1.1792,1.1962,0.0,0.0,0.0,0.0,1.0534,1.0424,1.0214,1.001,1.006,0.9743,0.9329,0.9412,0.8869,0.8087,0.0,0.0,0.0,0.0,0.0,0.0,0.0,0.0,0.0,0.0,0.0,0.0,0.0,0.0,0.0,0.0,0.0,0.0,0.0,0.0,0.0,0.0,0.0,0.0,0.0,0.0,0.0,0.0,0.0,2.2698,0.0,0.0,0.0,0.0,0.0,0.0,0.0,0.0,0.0,0.0,2.4282,0.0,0.0,0.0,0.0,0.0,2.3231,2.3246,0.0,2.3319,2.3319,2.3407,0.0,0.0,0.0,0.0,2.3566,2.3672,2.4253,2.4477,2.4642,2.5174,2.5304,2.542,2.5874,0.0,0.0,0.0,0.0,0.0,0.0,0.0,0.0,0.0,2.7563,0.0,0.0,0.0,0.0,0.0,0.0,0.0,0.0,0.0,0.0,0.0,0.0,0.0,0.0,1.6224,1.5862,1.5436,1.5312,1.5054,1.4593,1.4687,1.4249,1.3253,1.3197,1.2738,1.1976,1.1987,1.1843,0.0,0.0,0.0,1.1121,1.0872,1.0718,1.0657,1.0166,0.9923,0.9784,0.9411,0.8835,0.8277,0.0,0.0,0.0,0.0,0.0,0.0,0.0,0.0,0.0,0.0,0.0,0.0,0.0,0.0,0.0,0.0,0.0,0.0,0.0,0.0,0.0,0.0,0.0,0.0,0.0,0.0,0.0,0.0,0.0,0.0,0.0,0.0,2.1561,0.0,0.0,0.0,0.0,0.0,0.0,0.0,2.2885,0.0,0.0,0.0,0.0,0.0,0.0,0.0,0.0,2.3231,2.3319,2.3422,2.3422,0.0,0.0,0.0,0.0,0.0,2.4174,2.5082,2.5923,2.6253,2.6396,2.6553,2.6842,0.0,0.0,0.0,0.0,0.0,0.0,0.0,0.0,0.0,0.0,0.0,0.0,0.0,0.0,0.0,0.0,0.0,0.0,0.0,0.0,0.0,0.0,0.0,0.0,1.6244,1.5814,1.4942,1.5017,1.4853,1.4487,1.4663,1.4261,1.3201,1.2974,1.2554,1.2018,1.1957,1.192,0.0,0.0,0.0,1.1813,1.1244,1.1215,1.1391,1.0308,1.0029,1.0153,0.9472,0.8775,0.821,0.0,0.0,0.0,0.0,0.0,0.0,0.0,0.0,0.0,0.0,0.0,0.0,0.0,0.0,0.0,0.0,0.0,0.0,0.0,0.0,0.0,0.0,0.0,0.0,0.0,0.0,0.0,0.0,0.0,0.0,2.0993,2.1042,2.1309,0.0,0.0,0.0,2.2369,2.2418,2.2685,2.3133,2.3603,0.0,0.0,0.0,0.0,0.0,0.0,0.0,0.0,2.2978,2.2978,2.3023,2.3127,0.0,0.0,0.0,0.0,0.0,2.472,2.5992,2.6819,2.6212,2.6454,2.6842,2.6803,0.0,0.0,0.0,0.0,0.0,0.0,0.0,0.0,0.0,0.0,0.0,0.0,0.0,0.0,0.0,0.0,0.0,0.0,0.0,0.0,0.0,0.0,0.0,0.0,1.523,1.4869,1.4601,1.411,1.3887,1.3899,1.4388,1.4146,1.3204,1.3169,1.2957,1.265,1.2401,1.2437,0.0,0.0,1.2222,1.2066,1.1949,1.1743,1.1457,1.1278,1.0873,1.0337,1.0228,0.9709,0.9014,0.0,0.0,0.0,0.0,0.0,0.0,0.0,0.0,0.0,0.0,0.0,0.0,0.0,0.0,0.0,0.0,0.0,0.0,0.0,0.0,0.0,0.0,0.0,0.0,0.0,0.0,0.0,0.0,0.0,1.9008,1.9438,1.9978,2.0656,2.1355,0.0,0.0,2.2102,2.2102,2.2207,2.2444,0.0,0.0,0.0,0.0,0.0,0.0,0.0,0.0,0.0,0.0,2.2947,2.3037,2.3082,0.0,0.0,0.0,0.0,0.0,2.4253,2.5204,2.6038,2.6331,2.7491,2.8469,2.8318,0.0,0.0,0.0,0.0,0.0,0.0,0.0,0.0,0.0,0.0,0.0,0.0,0.0,0.0,0.0,0.0,0.0,0.0,0.0,0.0,0.0,0.0,0.0,0.0,0.0,1.5194,1.458,1.4193,1.4092,1.4332,1.4517,1.4241,1.3527,1.3614,1.3461,1.3069,1.3154,1.313,1.301,0.0,1.2387,1.2205,1.2183,1.1977,1.1676,1.1194,1.0967,1.0807,0.9937,0.9325,0.8842,0.0,0.0,0.0,0.0,0.0,0.0,0.0,0.0,0.0,0.0,0.0,0.0,0.0,0.0,0.0,0.0,0.0,0.0,0.0,0.0,0.0,0.0,0.0,0.0,0.0,0.0,1.6922,1.6922,1.7034,1.7368,1.7886,1.8923,1.9875,0.0,0.0,0.0,2.1825,2.1881,2.1937,2.2061,0.0,0.0,0.0,0.0,0.0,0.0,0.0,0.0,0.0,0.0,0.0,0.0,0.0,0.0,0.0,2.3082,2.3037,2.3183,2.3763,2.437,2.5154,2.6271,0.0,2.9258,2.9523,0.0,0.0,0.0,0.0,0.0,0.0,0.0,0.0,0.0,0.0,0.0,0.0,0.0,0.0,0.0,0.0,0.0,0.0,0.0,0.0,0.0,0.0,0.0,0.0,0.0,1.5941,1.5123,1.4819,1.4764,1.5019,1.4789,1.4385,1.3921,1.414,1.3983,1.3467,1.3601,1.3478,1.3124,1.259,1.2298,1.2159,1.22,1.2099,1.191,1.1328,1.1141,1.1055,0.9753,0.8983,0.8531,0.0,0.0,0.0,0.0,0.0,0.0,0.0,0.0,0.0,0.0,0.0,0.0,0.0,0.0,0.0,0.0,0.0,0.0,0.0,0.0,0.0,0.0,0.0,0.0,0.0,1.5274,1.5989,1.5989,1.6472,1.6866,1.7123,1.825,1.9149,1.982,0.0,0.0,2.2002,2.2048,2.2279,2.2731,2.3778,0.0,0.0,0.0,0.0,0.0,0.0,0.0,0.0,0.0,0.0,0.0,0.0,0.0,2.2947,2.2947,2.2902,2.3078,2.3717,2.4355,2.5009,2.5691,2.6431,0.0,2.9218,2.9102,0.0,0.0,0.0,0.0,0.0,0.0,0.0,0.0,0.0,0.0,0.0,0.0,0.0,0.0,0.0,0.0,0.0,0.0,0.0,0.0,0.0,0.0,0.0,0.0,0.0,1.6556,1.5999,1.5684,1.5717,1.5099,1.4616,1.4268,1.4591,1.4449,1.394,1.3265,1.2985,1.2975,1.2139,1.1759,1.1766,1.207,1.2184,1.2201,1.2442,1.191,1.0861,1.0316,0.9395,0.8489,0.0,0.0,0.0,0.0,0.0,0.0,0.0,0.0,0.0,0.0,0.0,0.0,0.0,0.0,0.0,0.0,0.0,0.0,0.0,0.0,0.0,0.0,0.0,1.2325,1.2351,1.3897,1.4737,1.4737,1.5728,1.6496,1.7061,1.7888,0.0,0.0,0.0,0.0,2.0864,2.1571,2.1837,2.195,2.3031,2.2896,0.0,0.0,0.0,0.0,0.0,0.0,0.0,0.0,2.2797,2.2888,0.0,0.0,0.0,0.0,2.2888,2.2946,2.3192,2.4065,2.4921,2.5139,2.5995,0.0,0.0,0.0,0.0,0.0,0.0,0.0,0.0,0.0,0.0,0.0,0.0,0.0,0.0,0.0,0.0,0.0,0.0,0.0,0.0,0.0,0.0,0.0,0.0,0.0,0.0,0.0,0.0,1.6705,1.5889,1.5571,1.5799,1.508,1.4811,1.5011,1.5084,1.4823,1.431,1.3864,1.3507,1.3185,1.2106,1.1556,1.1471,1.1535,1.1742,1.1951,1.1944,1.1507,1.077,0.9891,0.9354,0.9091,0.0,0.0,0.0,0.0,0.0,0.0,0.0,0.0,0.0,0.0,0.0,0.0,0.0,0.0,0.0,0.0,0.0,0.0,0.0,0.0,0.0,0.0,0.0,1.1758,1.1333,1.2567,1.3425,1.3855,1.4932,1.5782,1.636,0.0,0.0,0.0,0.0,0.0,0.0,2.0862,2.1205,2.1176,2.2189,2.2321,0.0,0.0,0.0,0.0,0.0,0.0,0.0,0.0,0.0,0.0,0.0,0.0,0.0,0.0,2.3033,2.3149,2.2946,2.3731,2.4617,0.0,0.0,0.0,0.0,0.0,0.0,0.0,0.0,0.0,0.0,0.0,0.0,0.0,0.0,0.0,0.0,0.0,0.0,0.0,0.0,0.0,0.0,0.0,0.0,0.0,0.0,0.0,0.0,0.0,0.0,0.0,1.6186,1.5743,1.5799,1.5125,1.4834,1.4917,1.4809,1.4585,1.4256,1.37,1.3228,1.2781,1.1763,1.1238,1.1136,1.1189,1.1415,1.1729,1.1362,1.1067,1.0708,0.9686,0.9343,0.9402,0.0,0.0,0.0,0.0,0.0,0.0,0.0,0.0,0.0,0.0,0.0,0.0,0.0,0.0,0.0,0.0,0.0,0.0,0.0,0.0,0.0,0.0,0.0,1.0989,1.0989,1.1333,1.2158,1.3511,1.4198,1.4565,1.4743,1.6709,0.0,0.0,0.0,0.0,0.0,0.0,2.0354,2.045,2.1478,2.1752,2.1581,0.0,0.0,0.0,0.0,0.0,0.0,0.0,2.2752,0.0,0.0,0.0,0.0,0.0,2.3383,2.3746,2.3062,2.3412,2.4065,0.0,0.0,0.0,0.0,0.0,0.0,0.0,0.0,0.0,0.0,0.0,0.0,0.0,0.0,0.0,0.0,0.0,0.0,0.0,0.0,0.0,0.0,0.0,0.0,0.0,0.0,0.0,0.0,0.0,0.0,0.0,1.704,1.6383,1.5799,1.5194,1.4573,1.39,1.3693,1.3675,1.3751,1.2548,1.1846,1.156,1.0976,1.0718,1.0735,1.1084,1.1415,1.1632,1.089,1.065,1.0603,0.9812,0.9432,0.9301,0.0,0.0,0.0,0.0,0.0,0.0,0.0,0.0,0.0,0.0,0.0,0.0,0.0,0.0,0.0,0.0,0.0,0.0,0.0,0.0,0.0,0.0,0.0,0.0,0.0,0.0,1.2158,1.3511,1.4198,1.479,0.0,0.0,0.0,1.6466,0.0,0.0,0.0,0.0,1.8977,1.8958,2.03,2.0932,2.1116,0.0,0.0,0.0,0.0,0.0,0.0,0.0,0.0,0.0,0.0,0.0,0.0,2.2888,2.3033,2.3134,2.2946,2.4051,0.0,0.0,0.0,0.0,0.0,0.0,0.0,0.0,0.0,0.0,0.0,0.0,0.0,0.0,0.0,0.0,0.0,0.0,0.0,0.0,0.0,0.0,0.0,0.0,0.0,0.0,0.0,0.0,0.0,0.0,0.0,0.0,1.6503,1.5812,1.5179,1.4606,1.4257,1.4044,1.3077,1.2978,1.3629,1.2632,1.2085,1.1843,1.1232,1.1121,1.1383,1.1885,1.1909,1.1601,1.1239,1.1092,1.1015,1.0066,0.975,0.9764,0.0,0.0,0.0,0.0,0.0,0.0,0.0,0.0,0.0,0.0,0.0,0.0,0.0,0.0,0.0,0.0,0.0,0.0,0.0,0.0,0.0,0.0,0.0,0.0,0.0,1.117,1.2049,0.0,0.0,0.0,0.0,0.0,0.0,1.5615,0.0,1.6423,0.0,0.0,1.7932,1.7952,1.9208,1.9909,2.0306,0.0,0.0,0.0,0.0,0.0,0.0,0.0,0.0,0.0,0.0,0.0,0.0,2.2888,2.3076,2.3325,2.3325,2.4152,0.0,0.0,0.0,0.0,0.0,0.0,0.0,0.0,0.0,0.0,0.0,0.0,0.0,0.0,0.0,0.0,0.0,0.0,0.0,0.0,0.0,0.0,0.0,0.0,0.0,0.0,0.0,0.0,0.0,0.0,0.0,0.0,1.6289,1.5624,1.4958,1.4653,1.4353,1.4078,1.3382,1.3321,1.385,1.2627,1.2149,1.216,1.1668,1.1472,1.1515,1.1952,1.1817,1.1298,1.1042,1.0965,1.0951,1.0251,1.0097,1.0223,0.0,0.0,0.0,0.0,0.0,0.0,0.0,0.0,0.0,0.0,0.0,0.0,0.0,0.0,0.0,0.0,0.0,0.0,0.0,0.0,0.0,0.0,0.0,0.0,0.0,0.0,0.0,0.0,0.0,0.0,0.0,0.0,1.5168,1.4543,0.0,1.5846,0.0,1.6494,1.7092,1.7242,1.8186,1.8753,1.9227,2.0102,0.0,0.0,0.0,0.0,0.0,0.0,0.0,0.0,2.2555,0.0,2.2888,2.2888,2.3354,2.3818,2.3876,0.0,0.0,0.0,0.0,0.0,0.0,0.0,0.0,0.0,0.0,0.0,0.0,0.0,0.0,0.0,0.0,0.0,0.0,0.0,0.0,0.0,0.0,0.0,0.0,0.0,0.0,0.0,0.0,0.0,0.0,0.0,0.0,0.0,1.6346,1.5677,1.5023,1.5087,1.4791,0.0,1.4247,1.435,1.4341,1.2757,1.2246,1.2595,1.2356,1.1925,1.1413,1.1654,1.1415,1.0897,1.0597,1.0548,1.0608,1.0409,1.0472,1.0621,0.0,0.0,0.0,0.0,0.0,0.0,0.0,0.0,0.0,0.0,0.0,0.0,0.0,0.0,0.0,0.0,0.0,0.0,0.0,0.0,0.0,0.0,0.0,0.0,0.0,0.0,0.0,0.0,0.0,0.0,0.0,0.0,0.0,1.4515,0.0,1.4782,1.4684,1.5105,1.5606,1.6229,1.6964,1.7804,1.8722,1.9264,1.9576,0.0,0.0,0.0,0.0,0.0,0.0,0.0,2.2463,2.2615,2.2706,2.2843,2.2989,2.3252,0.0,2.4349,0.0,0.0,0.0,0.0,0.0,0.0,0.0,0.0,0.0,0.0,0.0,0.0,0.0,0.0,0.0,0.0,0.0,0.0,0.0,0.0,0.0,0.0,0.0,0.0,0.0,0.0,0.0,0.0,0.0,0.0,0.0,1.7059,1.6418,1.5774,1.5102,1.5154,1.4868,0.0,1.4295,1.4599,1.5121,1.4256,1.3743,1.363,1.3923,1.3289,1.2144,1.2684,1.2184,1.1038,1.0968,1.0968,1.0968,1.0777,1.0753,1.0801,0.0,0.0,0.0,0.0,0.0,0.0,0.0,0.0,0.0,0.0,0.0,0.0,0.0,0.0,0.0,0.0,0.0,0.0,0.0,0.0,0.0,0.0,0.0,0.0,0.0,0.0,0.0,0.0,0.0,0.0,0.0,0.0,0.0,1.4515,0.0,1.4387,1.4258,1.4775,1.5235,1.572,1.6407,1.7216,1.7989,1.8478,1.8622,1.8739,1.9715,0.0,0.0,0.0,0.0,0.0,0.0,0.0,2.2661,2.2843,2.2888,2.3033,0.0,0.0,0.0,0.0,0.0,0.0,0.0,0.0,0.0,0.0,0.0,0.0,0.0,0.0,0.0,0.0,0.0,0.0,0.0,0.0,0.0,0.0,0.0,0.0,0.0,0.0,0.0,0.0,0.0,0.0,0.0,1.7593,1.6812,1.7148,1.6504,1.5982,1.5668,1.5695,1.5577,1.5298,1.5333,1.5571,1.5951,1.5227,1.4605,1.4135,1.4227,1.368,1.2722,1.2769,1.2236,1.1415,1.1178,1.1178,1.1279,1.1108,1.1085,1.1155,0.0,0.0,0.0,0.0,0.0,0.0,0.0,0.0,0.0,0.0,0.0,0.0,0.0,0.0,0.0,0.0,0.0,0.0,0.0,0.0,0.0,0.0,0.0,0.0,0.0,0.0,0.0,0.0,0.0,0.0,0.0,0.0,0.0,1.4427,0.0,0.0,1.413,1.4647,1.505,1.5352,1.5979,1.6627,1.7132,1.7658,1.7742,1.7756,1.8864,1.9173,1.9226,2.0295,0.0,0.0,0.0,0.0,2.2555,2.2797,2.2843,2.3033,0.0,0.0,0.0,0.0,0.0,0.0,0.0,0.0,0.0,0.0,0.0,0.0,0.0,0.0,0.0,0.0,0.0,0.0,0.0,0.0,0.0,0.0,0.0,0.0,0.0,0.0,0.0,0.0,0.0,0.0,1.9256,1.733,1.6502,1.7178,1.6548,1.625,1.6274,1.6274,1.6328,1.6398,1.6474,1.6554,1.6581,1.5894,1.5233,1.4577,1.432,1.3811,1.3144,1.2606,1.2167,1.1805,1.1407,1.137,1.1527,1.1452,1.1444,1.1489,0.0,0.0,0.0,0.0,0.0,0.0,0.0,0.0,0.0,0.0,0.0,0.0,0.0,0.0,0.0,0.0,0.0,0.0,0.5156,0.0,0.0,0.9242,0.9915,0.0,0.0,0.0,0.0,0.0,0.0,0.0,0.0,0.0,0.0,1.399,0.0,0.0,0.0,1.3941,1.4163,1.4824,1.4923,1.5487,1.6312,1.6906,1.7255,1.7445,1.8173,1.8452,1.8555,1.9579,2.0207,0.0,0.0,0.0,2.2324,2.2555,2.2752,2.3033,0.0,0.0,0.0,0.0,0.0,0.0,0.0,0.0,0.0,0.0,0.0,0.0,0.0,0.0,0.0,0.0,0.0,0.0,0.0,0.0,0.0,0.0,0.0,0.0,0.0,0.0,0.0,0.0,0.0,0.0,1.9256,1.733,1.6502,1.7178,1.6548,1.6194,1.6207,1.6207,1.6262,1.6398,1.6517,1.6596,1.6596,1.6502,1.604,1.5346,1.538,1.4546,1.319,1.3159,1.2693,1.197,1.1891,1.1805,1.1681,1.1848,1.1733,1.1526,0.0,0.0,0.0,0.0,0.0,0.0,0.0,0.0,0.0,0.0,0.0,0.0,0.0,0.0,0.0,0.4831,0.4894,0.509,0.5547,0.6658,0.7783,0.8848,0.9829,1.0435,0.0,0.0,0.0,0.0,0.0,0.0,0.0,1.2711,1.3462,0.0,0.0,0.0,0.0,0.0,1.4523,1.4765,1.4943,1.5685,0.0,0.0,1.7281,1.7941,1.7935,1.8123,1.8416,1.8982,1.9423,1.985,2.0696,0.0,0.0,0.0,2.2661,0.0,2.3763,0.0,0.0,0.0,0.0,0.0,0.0,0.0,0.0,0.0,0.0,0.0,0.0,0.0,0.0,0.0,0.0,0.0,0.0,0.0,0.0,0.0,0.0,0.0,0.0,0.0,0.0,0.0,0.0,1.8345,1.8669,1.7115,1.6332,1.6624,1.6348,1.625,1.6316,1.6316,1.6371,1.6517,1.657,1.6596,1.6596,1.6596,1.6218,1.553,1.5201,1.4412,1.3327,1.2873,1.2525,1.2277,1.2075,1.1997,1.1982,1.2012,1.1841,1.163,0.0,0.0,0.0,0.0,0.0,0.0,0.0,0.0,0.0,0.0,0.0,0.0,0.0,0.0,0.0,0.0,0.4697,0.5024,0.5613,0.6527,0.7494,0.8371,0.953,1.0224,1.0429,0.0,0.0,0.0,0.0,0.0,1.1259,1.2133,1.3009,0.0,1.4646,0.0,0.0,0.0,0.0,0.0,0.0,0.0,0.0,0.0,0.0,0.0,1.7694,1.7873,1.8235,1.8513,1.8792,1.9162,2.0093,2.0733,0.0,0.0,0.0,0.0,0.0,0.0,0.0,0.0,0.0,0.0,0.0,0.0,0.0,0.0,0.0,0.0,0.0,0.0,0.0,0.0,0.0,0.0,0.0,0.0,0.0,0.0,0.0,0.0,0.0,0.0,0.0,0.0,0.0,1.8454,1.8285,1.7173,1.6447,1.625,1.6234,1.6289,1.6398,1.6425,1.649,1.6554,1.6596,1.6596,1.6581,1.6407,1.5975,1.5335,1.4806,1.4079,1.321,1.2546,1.2363,1.2475,1.2406,1.2318,1.2221,1.2343,1.2113,1.1783,0.0,0.0,0.0,0.0,0.0,0.0,0.0,0.0,0.0,0.0,0.0,0.0,0.0,0.43,0.43,0.43,0.4498,0.4694,0.4831,0.6017,0.7104,0.7972,0.9206,0.0,1.0695,0.0,0.0,0.0,0.0,0.0,1.1624,1.2171,1.2999,1.4029,1.4504,1.5071,1.5588,0.0,0.0,0.0,0.0,0.0,0.0,0.0,0.0,0.0,0.0,1.7528,1.7781,1.8269,1.8372,1.8447,1.9121,1.9991,2.0944,0.0,0.0,0.0,0.0,0.0,0.0,0.0,0.0,0.0,0.0,0.0,0.0,0.0,0.0,0.0,0.0,0.0,0.0,0.0,0.0,0.0,0.0,0.0,0.0,0.0,0.0,0.0,0.0,0.0,0.0,0.0,0.0,1.917,1.8515,1.7827,1.7111,1.6414,1.6398,1.6398,1.6398,1.6448,1.6501,1.6501,1.6554,1.6596,1.6565,1.5927,1.5304,1.4648,1.4616,1.3826,1.2562,1.2495,1.2479,1.2578,1.3173,1.2911,1.2303,1.311,1.2826,1.1991,0.0,0.0,0.0,0.0,0.0,0.0,0.0,0.0,0.0,0.0,0.0,0.0,0.0,0.43,0.43,0.43,0.4367,0.4431,0.4498,0.5749,0.6843,0.7513,0.8986,1.0032,1.0395,0.0,0.0,0.0,0.0,1.0403,1.0764,1.1176,1.2231,1.3826,1.4681,1.5143,1.5361,1.5538,0.0,0.0,0.0,0.0,0.0,0.0,0.0,0.0,0.0,0.0,0.0,1.7767,1.8006,1.8463,1.8908,1.9376,1.9915,2.0731,0.0,0.0,0.0,0.0,0.0,0.0,0.0,0.0,0.0,0.0,0.0,0.0,0.0,0.0,0.0,0.0,0.0,0.0,0.0,0.0,0.0,0.0,0.0,0.0,0.0,0.0,0.0,0.0,0.0,0.0,0.0,0.0,1.8546,1.7858,1.7171,1.6414,1.6398,1.6409,1.6448,1.6528,1.6554,1.6554,1.6165,1.5959,1.5943,1.5706,1.5216,1.4616,1.5043,1.4189,1.2467,1.1993,1.2341,1.3115,1.2941,1.2931,1.3063,1.3378,1.2905,1.2123,0.0,0.0,0.0,0.0,0.0,0.0,0.0,0.0,0.0,0.0,0.0,0.0,0.0,0.0,0.43,0.43,0.43,0.43,0.43,0.5352,0.6344,0.7269,0.8592,0.9637,1.0257,0.0,0.0,0.0,0.0,0.0,0.0,1.0784,1.1878,1.3645,1.4579,1.5325,0.0,0.0,0.0,1.4991,0.0,0.0,1.5384,0.0,0.0,0.0,0.0,0.0,0.0,0.0,0.0,0.0,0.0,0.0,0.0,0.0,0.0,0.0,0.0,0.0,0.0,0.0,0.0,0.0,0.0,0.0,0.0,0.0,0.0,0.0,0.0,0.0,0.0,0.0,0.0,0.0,0.0,0.0,0.0,0.0,0.0,0.0,0.0,0.0,0.0,0.0,0.0,0.0,1.8622,1.8136,1.7462,1.6495,1.6463,1.649,1.6528,1.6596,1.6596,1.6581,1.6149,1.5927,1.5927,1.5715,1.5367,1.4932,1.5153,1.4332,1.2799,1.2309,1.253,1.3146,1.2925,1.3115,1.3526,1.3779,1.3351,1.2629,0.0,0.0,0.0,0.0,0.0,0.0,0.0,0.0,0.0,0.0,0.0,0.0,0.0,0.0,0.0,0.4311,0.4311,0.4311,0.4311,0.4834,0.5755,0.7201,0.8031,0.9066,1.0257,0.0,0.0,0.0,0.0,0.0,0.0,0.0,1.2025,1.352,1.4243,1.5463,1.6908,0.0,1.6473,1.5833,0.0,1.5338,1.4641,0.0,0.0,0.0,1.5948,1.6109,0.0,1.6599,0.0,0.0,0.0,0.0,0.0,0.0,0.0,0.0,0.0,0.0,0.0,0.0,0.0,0.0,0.0,0.0,0.0,0.0,0.0,0.0,0.0,0.0,0.0,0.0,0.0,0.0,0.0,0.0,0.0,0.0,0.0,0.0,0.0,0.0,0.0,0.0,0.0,2.0194,1.8819,1.8693,1.8045,1.6675,1.6596,1.6596,1.6596,1.6596,1.6596,1.6596,1.6565,1.6565,1.6533,1.5896,1.5605,1.5548,1.4932,1.4237,1.3557,1.3494,1.3115,1.2625,1.3257,1.3526,1.3652,1.4363,1.4142,1.3473,0.0,0.0,0.0,0.0,0.0,0.0,0.0,0.0,0.0,0.0,0.0,0.0,0.0,0.0,0.4556,0.4556,0.4556,0.4556,0.4556,0.5026,0.5737,0.6732,0.7892,0.8931,0.9921,0.0,0.0,0.0,0.0,0.0,0.0,0.0,0.0,0.0,1.4134,1.518,1.6123,1.6342,0.0,0.0,1.548,1.5196,0.0,0.0,0.0,0.0,0.0,1.5466,1.6129,0.0,1.659,1.7175,0.0,0.0,0.0,0.0,0.0,0.0,1.93,0.0,0.0,0.0,0.0,0.0,0.0,0.0,0.0,0.0,0.0,0.0,0.0,0.0,0.0,0.0,0.0,0.0,0.0,0.0,0.0,0.0,0.0,0.0,0.0,0.0,0.0,0.0,2.1094,2.0415,1.9546,1.855,1.7795,1.7401,1.6865,1.6596,1.6596,1.6596,1.6596,1.6581,1.6117,1.5864,1.5864,1.5675,1.5605,1.562,1.5927,1.5659,1.4908,1.3399,1.3273,1.3984,1.3636,1.411,1.5051,1.5256,1.4537,1.3473,0.0,0.0,0.0,0.0,0.0,0.0,0.0,0.0,0.0,0.0,0.0,0.0,0.0,0.0,0.0,0.4726,0.47,0.4727,0.4727,0.4902,0.5457,0.629,0.7377,0.8467,0.0,0.0,0.0,0.0,0.0,0.0,0.0,0.0,0.0,0.0,0.0,0.0,0.0,0.0,0.0,0.0,1.563,0.0,0.0,1.4776,1.4569,0.0,0.0,0.0,1.5392,1.5392,1.5909,0.0,0.0,0.0,0.0,0.0,0.0,0.0,0.0,0.0,0.0,0.0,0.0,0.0,2.3126,2.3443,0.0,0.0,0.0,0.0,0.0,0.0,0.0,0.0,0.0,0.0,0.0,0.0,0.0,0.0,0.0,0.0,0.0,0.0,0.0,2.1916,2.1205,2.051,1.9846,1.8442,1.7685,1.7685,1.6975,1.6596,1.6596,1.6596,1.6596,1.6596,1.6212,1.6022,1.6022,1.6022,1.6022,1.6038,1.6433,1.6228,1.5494,1.3984,1.3684,1.4126,1.4,1.4458,1.5225,1.551,1.49,1.3952,0.0,0.0,0.0,0.0,0.0,0.0,0.0,0.0,0.0,0.0,0.0,0.0,0.0,0.0,0.0,0.0,0.4819,0.4879,0.4893,0.4781,0.0,0.5913,0.6705,0.7861,0.0,0.0,0.0,0.0,0.0,0.0,0.0,0.0,0.0,0.0,0.0,0.0,0.0,0.0,0.0,1.6342,1.5982,1.5621,0.0,0.0,1.4569,0.0,1.4569,1.4569,1.4633,1.4665,1.4959,0.0,0.0,0.0,0.0,0.0,1.81,0.0,0.0,0.0,0.0,0.0,0.0,0.0,2.2381,2.264,2.2821,0.0,0.0,0.0,0.0,0.0,0.0,0.0,0.0,0.0,0.0,0.0,0.0,0.0,0.0,0.0,0.0,2.3291,2.2611,2.1948,2.1205,2.0541,1.9941,1.8661,1.789,1.7795,1.7085,1.6675,1.6596,1.6596,1.6596,1.6596,1.6596,1.6596,1.6596,1.6596,1.6596,1.6596,1.6596,1.6275,1.5668,1.4979,1.4316,1.3779,1.4363,1.4695,1.4885,1.5485,1.5232,1.46,0.7482,0.0,0.0,0.0,0.0,0.0,0.0,0.0,0.0,0.0,0.0,0.0,0.0,0.0,0.0,0.0,0.0,0.5159,0.5257,0.5151,0.5349,0.5781,0.6832,0.7983,0.9165,0.0,0.0,0.0,0.0,0.0,0.0,0.0,0.0,0.0,0.0,0.0,0.0,0.0,0.0,1.676,1.6053,0.0,1.5621,1.4848,1.4569,1.4569,1.4569,1.4569,1.4665,0.0,1.5068,1.5,0.0,0.0,0.0,0.0,0.0,0.0,0.0,0.0,0.0,0.0,0.0,0.0,2.0998,2.1347,2.1591,0.0,0.0,0.0,0.0,0.0,0.0,0.0,0.0,0.0,0.0,0.0,0.0,0.0,0.0,0.0,0.0,2.3291,2.2611,2.1948,2.1205,2.0731,2.0605,1.983,1.9135,1.8535,1.7827,1.7196,1.6596,1.6596,1.6596,1.6596,1.6596,1.6596,1.6596,1.6596,1.6596,1.6596,1.6596,1.6517,1.6354,1.5675,1.5335,1.5161,1.4742,1.5264,1.6218,1.637,1.5643,1.4623,0.7428,0.0,0.0,0.0,0.0,0.0,0.0,0.0,0.0,0.0,0.0,0.0,0.0,0.0,0.0,0.0,0.0,0.0,0.0,0.0,0.5575,0.607,0.6478,0.7508,0.9237,0.9699,0.0,0.0,0.0,0.0,0.0,0.0,0.0,0.0,0.0,0.0,0.0,0.0,1.5613,1.6333,1.6123,0.0,1.5762,1.5133,1.4776,1.4569,1.4569,1.4569,1.4585,1.4706,1.4672,0.0,0.0,1.5378,1.5821,0.0,1.6439,1.6905,0.0,0.0,0.0,1.8681,0.0,0.0,0.0,2.0189,2.0393,2.116,0.0,0.0,0.0,0.0,0.0,0.0,0.0,0.0,0.0,0.0,0.0,0.0,0.0,0.0,0.0,2.3055,2.2332,2.1563,2.1165,2.0893,2.0794,2.0162,1.9641,1.9262,1.825,1.7511,1.7149,1.677,1.6596,1.6596,1.6596,1.6596,1.6596,1.6596,1.6596,1.6596,1.6596,1.6596,1.6533,1.5864,1.5785,1.6038,1.5359,1.5501,1.6149,1.6496,1.5754,1.4584,0.7251,0.0,0.0,0.0,0.0,0.0,0.0,0.0,0.0,0.0,0.0,0.0,0.0,0.0,0.0,0.0,0.0,0.0,0.0,0.0,0.0,0.0,0.6118,0.7047,0.9137,0.9335,0.0,0.0,0.0,0.0,0.0,0.0,0.0,0.0,0.0,0.0,0.0,0.0,0.0,1.5613,0.0,1.5912,1.5842,1.5409,1.4991,1.4713,1.4641,1.4569,1.4522,1.4307,0.0,1.4394,1.4303,1.4684,0.0,0.0,0.0,0.0,0.0,0.0,0.0,0.0,0.0,1.7492,0.0,0.0,0.0,2.0004,0.0,0.0,0.0,0.0,0.0,0.0,0.0,0.0,0.0,0.0,0.0,0.0,0.0,0.0,0.0,2.2652,2.1892,2.1199,2.1087,2.1023,2.086,2.0321,1.9941,1.9815,1.8708,1.7969,1.7685,1.7101,1.6738,1.6596,1.6596,1.6596,1.6596,1.6596,1.6596,1.6596,1.6596,1.6596,1.6533,1.5864,1.6016,1.657,1.5874,1.5684,1.5883,1.6285,1.5693,1.4638,0.6643,0.7127,0.0,0.0,0.0,0.0,0.0,0.0,0.0,0.0,0.0,0.0,0.0,0.0,0.0,0.0,0.0,0.0,0.585,0.0,0.0,0.0,0.0,0.0,0.8131,0.8848,0.9776,0.0,0.0,0.0,0.0,0.0,0.0,0.0,1.1706,0.0,0.0,0.0,1.3882,0.0,1.4593,1.5251,0.0,1.5488,1.5196,1.5062,1.4713,1.4569,1.4561,0.0,1.4164,1.3765,0.0,1.3747,1.3562,0.0,0.0,0.0,0.0,0.0,0.0,0.0,1.6549,0.0,0.0,0.0,1.7664,1.8498,0.0,0.0,0.0,0.0,0.0,0.0,0.0,0.0,0.0,0.0,0.0,0.0,0.0,0.0,0.0,0.0,2.1374,2.1294,2.1167,2.1103,2.1071,2.0813,2.0415,1.983,1.9657,1.8977,1.7701,1.7606,1.7243,1.6596,1.6596,1.6596,1.6596,1.6596,1.6596,1.6596,1.6596,1.6596,1.6533,1.5864,1.6066,1.67,1.5899,1.6035,1.6614,1.6062,1.5463,1.4788,0.5881,0.621,0.0,0.0,0.0,0.0,0.0,0.0,0.0,0.0,0.0,0.0,0.0,0.0,0.0,0.0,0.0,0.5277,0.0,0.0,0.0,0.0,0.0,0.0,0.0,0.8855,0.9332,0.0,1.101,0.0,0.0,0.0,0.0,0.0,1.1558,0.0,1.2673,0.0,0.0,0.0,0.0,0.0,0.0,1.4911,1.4776,1.4856,1.4641,1.4435,1.4331,0.0,1.3997,0.0,0.0,0.0,0.0,0.0,0.0,0.0,0.0,0.0,0.0,0.0,0.0,0.0,1.6678,0.0,1.6892,0.0,0.0,0.0,0.0,0.0,0.0,0.0,0.0,0.0,0.0,0.0,0.0,0.0,0.0,0.0,0.0,0.0,0.0,0.0,0.0,2.1119,2.0925,2.086,2.0668,2.0383,2.0004,1.953,1.893,1.8095,1.7527,1.7227,1.6801,1.6596,1.6596,1.6596,1.6596,1.6596,1.6596,1.6596,1.6565,1.6307,1.638,1.667,1.6394,1.6559,1.6885,1.6495,1.5743,1.4859,0.4851,0.0,0.0,0.0,0.0,0.0,0.0,0.0,0.0,0.0,0.0,0.0,0.5521,0.5515,0.0,0.0,0.5099,0.5238,0.0,0.0,0.6031,0.0,0.0,0.0,0.0,0.0,0.9004,0.0,0.0,0.0,0.0,0.0,0.0,0.0,0.0,1.1602,1.2214,0.0,0.0,1.3388,1.3815,1.4175,1.441,1.4482,1.4561,1.4553,1.453,1.4331,1.4101,1.3997,1.3735,0.0,1.3171,0.0,0.0,0.0,0.0,0.0,1.4923,0.0,0.0,0.0,0.0,0.0,0.0,0.0,0.0,0.0,0.0,0.0,0.0,0.0,0.0,0.0,0.0,0.0,0.0,0.0,0.0,0.0,0.0,0.0,0.0,0.0,0.0,0.0,2.1375,2.1183,2.0893,2.0827,2.0794,2.0794,2.0336,1.9988,1.9815,1.8803,1.8064,1.7685,1.7149,1.6786,1.6596,1.6596,1.6596,1.6596,1.6596,1.6596,1.6596,1.6596,1.6623,1.6659,1.6763,1.6933,1.6994,1.6273,1.5595,1.4902,0.3321,0.4111,0.0,0.0,0.0,0.0,0.0,0.0,0.0,0.0,0.0,0.0,0.0,0.0,0.0,0.0,0.0,0.5512,0.5254,0.0,0.5721,0.0,0.0,0.6365,0.0,0.0,0.0,0.0,0.0,0.0,0.0,0.0,0.0,0.0,0.0,1.164,1.2433,1.199,1.2172,1.2782,1.2276,1.2231,1.2592,0.0,1.4919,1.4522,1.4252,0.0,0.0,1.3719,1.3378,0.0,0.0,0.0,0.0,0.0,0.0,0.0,0.0,0.0,0.0,1.4424,0.0,0.0,0.0,0.0,1.612,0.0,0.0,0.0,0.0,0.0,0.0,0.0,0.0,0.0,0.0,0.0,0.0,0.0,0.0,0.0,0.0,0.0,0.0,2.2361,2.1714,2.1246,2.1103,2.0893,2.0794,2.0794,2.0778,2.0462,1.9815,1.9767,1.9056,1.7685,1.7669,1.7275,1.6596,1.6596,1.6596,1.6596,1.6596,1.6596,1.6596,1.6596,1.6675,1.6789,1.6789,1.7,1.7019,1.488,1.4603,1.4894,0.0,0.0,0.0,0.0,0.0,0.0,0.0,0.5601,0.0,0.0,0.0,0.0,0.0,0.0,0.5013,0.0,0.0,0.434,0.4248,0.4771,0.0,0.0,0.0,0.7286,0.0,0.0,0.0,0.0,0.0,0.0,0.0,0.0,0.0,0.0,0.0,1.139,0.0,0.0,0.0,0.0,0.0,1.2526,1.2599,0.0,0.0,1.344,1.3119,1.3071,0.0,1.2836,1.2765,1.2742,1.2742,1.2663,1.2621,1.2928,1.2989,0.0,0.0,0.0,1.4078,1.4203,0.0,0.0,0.0,0.0,0.0,0.0,0.0,0.0,0.0,0.0,0.0,0.0,0.0,0.0,0.0,0.0,0.0,0.0,0.0,0.0,0.0,0.0,0.0,2.1389,2.1231,2.1103,0.0,2.0827,2.0794,2.0794,2.0794,2.0684,2.0462,2.002,1.9104,1.7685,1.7685,1.7097,1.5943,1.6417,1.6596,1.6596,1.6596,1.6596,1.6596,1.6596,1.6623,1.6701,1.6866,1.6993,1.6979,1.586,1.5402,1.501,0.2485,0.0,0.0,0.0,0.0,0.0,0.0,0.0,0.0,0.0,0.5904,0.0,0.5569,0.0,0.4924,0.0,0.4121,0.4068,0.4064,0.4398,0.0,0.5356,0.6127,0.0,0.0,0.0,0.0,0.0,0.0,1.0113,0.0,0.0,0.0,0.0,0.0,0.0,1.1872,0.0,1.2168,0.0,0.0,1.2526,0.0,0.0,1.2732,1.2834,0.0,1.256,1.2564,1.2428,1.2492,1.2621,1.2621,1.2621,1.2621,1.2805,1.2867,1.2895,1.3117,1.3135,0.0,1.3376,1.3929,0.0,1.5047,0.0,0.0,0.0,0.0,0.0,0.0,0.0,0.0,0.0,0.0,0.0,0.0,0.0,0.0,0.0,0.0,0.0,0.0,0.0,2.2088,2.1187,2.134,2.1261,0.0,0.0,2.0794,2.0794,2.0794,2.0794,2.0794,2.0368,1.9451,1.8076,1.8076,1.7334,1.5975,1.6417,1.6596,1.6596,1.6596,1.6596,1.6596,1.6596,1.6596,1.6623,1.6892,1.6993,1.6872,1.5872,1.473,1.3667,0.0,0.0,0.0,0.0,0.5396,0.0,0.0,0.0,0.5938,0.0,0.5904,0.5671,0.5027,0.5377,0.5107,0.3765,0.4387,0.0,0.4418,0.4432,0.0,0.0,0.4612,0.4669,0.4563,0.0,0.0,0.0,0.0,0.0,0.0,0.0,0.0,0.0,1.0887,0.0,1.212,1.1827,1.2091,1.2699,1.2418,1.207,1.1662,1.1611,1.205,1.2683,1.2599,1.2424,1.225,1.243,1.2498,1.2498,1.2498,1.256,1.256,1.2544,1.2536,1.2578,1.2453,1.2472,1.2356,1.1976,0.0,0.0,0.0,0.0,1.5709,0.0,0.0,0.0,0.0,0.0,0.0,0.0,0.0,0.0,0.0,0.0,0.0,0.0,0.0,0.0,0.0,2.2853,2.2655,2.1776,2.194,0.0,0.0,0.0,2.0859,2.0794,2.0794,2.0794,2.0794,2.0794,2.0099,1.8708,1.8708,1.7966,1.6596,1.6596,1.6596,1.6596,1.6596,1.6596,1.6596,1.6596,1.6596,1.6623,1.6892,1.6977,1.6751,1.492,1.2919,1.1313,0.2724,0.2873,0.2998,0.0,0.4148,0.4949,0.0,0.0,0.0,0.0,0.5383,0.525,0.5122,0.4881,0.4478,0.4121,0.3676,0.0,0.0,0.0,0.0,0.3274,0.4721,0.5218,0.4652,0.7037,0.0,0.8115,0.0,0.0,0.9812,0.0,0.0,0.0,0.0,0.0,1.159,1.1664,1.19,1.2182,1.2257,1.2025,0.0,0.0,1.1388,1.1075,1.0935,1.0989,1.108,1.0973,1.1115,1.1428,1.1428,1.1677,1.195,1.1692,1.1856,1.2075,1.184,1.1744,1.1809,1.1964,1.2413,1.2941,0.0,0.0,0.0,0.0,0.0,0.0,0.0,0.0,0.0,0.0,0.0,0.0,0.0,0.0,0.0,0.0,0.0,0.0,2.1862,2.1965,2.1902,2.1694,2.2061,0.0,0.0,0.0,0.0,2.061,2.0595,2.0628,2.0711,2.0726,2.0035,1.8708,1.8708,1.7966,1.6596,1.6596,1.6596,1.6596,1.6596,1.6596,1.6596,1.6596,1.6596,1.6623,1.6789,1.6661,1.6292,1.5362,1.4662,1.4148,0.2714,0.0,0.0,0.3033,0.0,0.0,0.4718,0.0,0.0,0.5499,0.5222,0.0,0.489,0.4497,0.4064,0.3714,0.3333,0.0,0.3129,0.0,0.0,0.3174,0.406,0.4248,0.38,0.5836,0.0,0.708,0.0,0.0,0.937,0.0,0.0,0.0,0.0,1.1037,0.0,1.1632,1.1781,1.1848,1.1945,0.0,0.0,1.1375,1.0937,1.0454,1.0196,1.0282,1.0516,1.0608,1.08,1.0961,1.0829,1.1034,1.1282,1.1137,1.1333,1.1487,1.1312,1.1273,1.1296,1.1307,1.1643,1.2086,1.2618,1.3594,1.4445,0.0,0.0,0.0,0.0,0.0,0.0,0.0,0.0,0.0,0.0,0.0,0.0,0.0,2.0131,0.0,2.1404,2.1537,2.1717,2.1978,0.0,0.0,0.0,0.0,0.0,2.0543,2.0679,2.0761,2.061,2.0794,2.0289,1.909,1.8806,1.8082,1.7054,1.6738,1.6596,1.6596,1.6596,1.6596,1.6596,1.6596,1.6596,1.6623,1.6815,1.684,1.6693,1.6017,1.5574,1.5242,0.0,0.0,0.0,0.0,0.0,0.0,0.0,0.4618,0.0,0.5209,0.0,0.4849,0.4383,0.423,0.3785,0.2931,0.0,0.3359,0.3425,0.2957,0.2978,0.3524,0.3051,0.2767,0.2759,0.4122,0.0,0.0,0.0,0.0,0.0,0.0,0.0,0.0,0.0,0.0,0.0,1.1558,1.1613,0.0,1.1533,1.1391,1.1205,1.1048,1.0705,1.0377,1.0136,1.011,1.0301,1.0674,1.0766,1.0691,1.0492,1.0449,1.0471,1.0681,1.0755,1.0857,1.091,1.0923,1.0852,1.0593,1.0701,1.1137,1.1843,1.2467,1.3299,1.4552,1.4771,1.4898,0.0,0.0,0.0,0.0,0.0,0.0,0.0,0.0,0.0,0.0,0.0,0.0,0.0,2.1394,2.1766,0.0,0.0,0.0,0.0,0.0,0.0,2.0491,2.0877,0.0,2.0561,0.0,2.0591,1.9783,1.8966,1.8307,1.7767,1.6959,1.6596,1.6596,1.6596,1.6596,1.6596,1.6596,1.6596,1.6623,1.6892,1.7199,1.7368,1.6762,1.6138,1.5553,0.0,0.0,0.0,0.0,0.0,0.3126,0.3167,0.3354,0.3617,0.3908,0.3914,0.3749,0.3596,0.3506,0.3367,0.3205,0.2898,0.0,0.0,0.0,0.0,0.2736,0.2744,0.2684,0.2634,0.394,0.5048,0.0,0.0,0.0,0.0,0.0,0.0,0.0,0.0,0.0,1.1409,1.1409,0.0,1.1147,1.1312,1.102,1.0594,1.0698,1.0581,1.0309,1.0257,1.0117,0.9868,0.9798,0.9643,0.9432,0.9389,0.9515,0.9679,0.9778,1.0137,1.0508,1.0548,1.0617,1.055,1.0486,1.0518,1.0609,1.0764,1.1464,1.2058,1.2099,1.2988,1.3915,1.4142,0.0,0.0,0.0,0.0,0.0,0.0,0.0,0.0,0.0,0.0,0.0,0.0,0.0,0.0,0.0,0.0,0.0,0.0,0.0,0.0,0.0,0.0,0.0,0.0,0.0,2.0583,2.0735,1.9248,1.8452,1.8326,1.7082,1.6528,1.6528,1.6596,1.6596,1.6596,1.6596,1.6596,1.6623,1.6892,1.7043,1.7117,1.7254,1.7162,1.6894,0.0,0.0,0.0,0.0,0.0,0.0,0.0,0.2841,0.0,0.3617,0.3512,0.3441,0.3444,0.3062,0.2832,0.2869,0.2653,0.2477,0.2508,0.2508,0.2508,0.2511,0.2537,0.0,0.2555,0.3142,0.4203,0.5805,0.0,0.0,0.0,0.0,0.0,0.0,0.0,1.0812,0.0,0.0,0.0,1.0838,1.0836,1.0634,1.0441,1.0562,1.0553,1.0428,1.0371,1.0084,0.9837,0.9519,0.9302,0.9077,0.8747,0.8747,0.8928,0.903,0.9428,0.9826,1.0081,1.03,1.0522,1.0522,1.0522,1.0522,1.0522,1.0913,1.136,1.141,1.2286,1.3304,1.3978,1.4593,0.0,0.0,0.0,0.0,0.0,0.0,0.0,0.0,0.0,0.0,0.0,0.0,0.0,0.0,0.0,0.0,0.0,0.0,0.0,0.0,0.0,0.0,0.0,0.0,0.0,2.0663,1.9171,1.8267,1.7952,1.6933,1.6286,1.6009,1.637,1.6554,1.6596,1.6596,1.6649,1.6712,1.6917,1.6993,1.7018,1.7289,1.724,1.7027,0.0,0.2859,0.0,0.0,0.2785,0.0,0.2577,0.258,0.2807,0.3306,0.3202,0.3135,0.3262,0.2707,0.2402,0.245,0.2398,0.2388,0.245,0.2409,0.2403,0.2451,0.242,0.2424,0.2471,0.2473,0.34,0.0,0.0,0.0,0.0,0.0,0.0,0.0,0.0,0.0,0.0,0.0,1.0737,1.0598,1.0523,1.0413,1.0346,1.0456,1.0561,1.0548,1.0362,1.0112,0.9942,0.944,0.9137,0.895,0.8474,0.8305,0.8275,0.8532,0.8837,0.9152,0.9562,0.9984,1.036,1.036,1.0411,1.0522,1.0522,1.0726,1.0964,1.1158,1.1882,1.2899,1.4129,1.4547,0.0,0.0,0.0,0.0,0.0,0.0,0.0,0.0,0.0,0.0,0.0,0.0,0.0,0.0,0.0,0.0,0.0,0.0,0.0,0.0,0.0,2.0866,2.0624,0.0,2.0695,0.0,1.9183,1.8268,1.7628,1.6912,1.6253,1.5716,1.6266,1.6528,1.6596,1.6596,1.6675,1.6763,1.6942,1.6993,1.7018,1.7265,1.7166,1.6933,0.0,0.0,0.0,0.0,0.0,0.0,0.0,0.2441,0.2409,0.2599,0.2556,0.2495,0.2447,0.2304,0.2192,0.2198,0.2214,0.2204,0.2195,0.2194,0.2192,0.2198,0.2244,0.2346,0.2352,0.2352,0.2893,0.0,0.0,0.0,0.0,0.0,0.0,0.0,0.0,0.0,0.0,1.1087,1.0803,1.0363,1.0522,1.0336,1.0085,1.0251,1.0428,1.0591,1.0254,1.019,1.0145,0.9176,0.8752,0.8639,0.8583,0.8294,0.8039,0.848,0.8626,0.8732,0.9152,0.9569,0.9865,0.9865,1.0198,1.0522,1.0522,1.0726,1.082,1.0616,1.1493,1.2657,1.3978,1.415,1.4337,0.0,0.0,0.0,0.0,0.0,0.0,0.0,0.0,0.0,0.0,0.0,0.0,0.0,0.0,0.0,0.0,0.0,0.0,2.1033,0.0,2.1393,2.1657,2.0805,0.0,2.0745,1.9713,1.884,1.8115,1.7511,1.6887,1.6316,1.6459,1.6528,1.6596,1.6596,1.6623,1.6633,1.6892,1.6993,1.7043,1.7362,1.7378,1.7216,0.0,0.0,0.0,0.0,0.0,0.0,0.0,0.2042,0.2154,0.2272,0.233,0.2235,0.2212,0.2226,0.2204,0.2171,0.2222,0.2234,0.2223,0.2194,0.2174,0.2174,0.2233,0.2243,0.221,0.2244,0.2855,0.0,0.0,0.0,0.0,0.0,0.0,0.0,0.0,1.0368,1.1093,1.0773,1.052,1.0303,1.025,1.012,1.0047,1.0371,1.0561,1.0584,1.0221,1.002,0.9834,0.9243,0.9015,0.8865,0.8483,0.8255,0.8115,0.8321,0.8474,0.8626,0.8784,0.9152,0.9465,0.9465,0.9873,1.0285,1.0138,1.0506,1.082,1.0573,1.1351,1.2335,1.3198,1.3847,1.4291,0.0,0.0,0.0,0.0,0.0,0.0,0.0,0.0,0.0,0.0,0.0,0.0,0.0,0.0,0.0,0.0,0.0,0.0,2.1736,0.0,2.089,2.1486,2.0713,2.0373,2.0494,1.9677,1.8484,1.7009,1.7161,1.6923,1.6382,1.6474,1.6528,1.6596,1.6596,1.6596,1.6623,1.6815,1.6892,1.6892,1.7034,1.705,1.6975,0.1896,0.0,0.1829,0.0,0.1717,0.1758,0.1655,0.1824,0.194,0.2009,0.208,0.2149,0.2218,0.218,0.2172,0.2214,0.2218,0.2236,0.2279,0.2241,0.2218,0.2218,0.2177,0.0,0.2173,0.2268,0.2655,0.3415,0.4579,0.0,0.0,0.0,0.0,0.0,0.9772,1.0187,1.0745,1.0449,1.0284,1.0182,1.013,1.0059,1.0047,1.0434,1.0624,1.0571,1.0127,0.9913,0.974,0.921,0.9131,0.9112,0.8521,0.8268,0.8268,0.8268,0.8368,0.8521,0.8521,0.8784,0.9099,0.9099,0.951,0.9909,0.9814,1.0241,1.0667,1.0718,1.1318,1.1999,1.2677,1.3447,1.4035,1.4104,0.0,0.0,0.0,0.0,0.0,0.0,1.7868,1.8464,1.875,0.0,0.0,0.0,0.0,0.0,0.0,0.0,0.0,0.0,0.0,0.0,0.0,2.0573,2.027,2.0304,1.9826,1.85,1.6502,1.6591,1.6552,1.6382,1.6474,1.6528,1.6596,1.6596,1.6623,1.6675,1.6763,1.6815,1.6866,1.6866,1.6866,1.6841,0.1351,0.1338,0.1307,0.1424,0.1404,0.1461,0.1556,0.1615,0.1615,0.1615,0.1751,0.1952,0.2155,0.2221,0.2221,0.2221,0.2223,0.2223,0.2224,0.2223,0.2223,0.0,0.0,0.2183,0.2173,0.2187,0.2215,0.2335,0.0,0.0,0.5009,0.0,0.8519,0.9311,0.9458,0.9717,1.0136,1.0231,1.0182,0.994,1.0261,1.023,1.0047,1.0434,1.0624,1.0544,0.99,0.9873,0.9914,0.8921,0.8883,0.9137,0.8725,0.8527,0.8421,0.8421,0.8421,0.8421,0.8421,0.8573,0.883,0.883,0.9093,0.9458,0.9762,0.9932,1.0249,1.1124,1.1326,1.161,1.2618,1.2909,1.3304,1.4233,0.0,0.0,0.0,0.0,0.0,0.0,1.753,1.8042,1.8202,0.0,0.0,0.0,0.0,0.0,0.0,0.0,0.0,2.0918,2.097,0.0,2.1109,2.0452,2.0185,2.0304,2.0289,1.9192,1.7147,1.5902,1.5733,1.6382,1.6474,1.6528,1.6596,1.6596,1.6686,1.6789,1.6789,1.6892,1.6993,1.6993,1.6993,1.6993,0.1226,0.121,0.1254,0.12,0.1191,0.125,0.135,0.148,0.1614,0.1614,0.1884,0.2087,0.2018,0.2087,0.2221,0.0,0.2221,0.2221,0.0,0.2221,0.2221,0.2221,0.2221,0.2231,0.2183,0.2204,0.2214,0.2211,0.0,0.0,0.0,0.6349,0.7054,0.7838,0.7983,0.8312,0.8659,0.8641,0.857,0.8493,0.8662,0.8744,0.8678,0.9005,0.9087,0.8945,0.8973,0.8957,0.8922,0.8797,0.8811,0.8931,0.8778,0.8633,0.8521,0.8521,0.8474,0.8421,0.8421,0.8474,0.8527,0.8527,0.9242,0.9917,0.9814,1.0241,1.0667,1.0972,1.1326,1.1719,1.2206,1.2939,1.3515,1.381,1.414,0.0,0.0,0.0,0.0,0.0,1.6672,1.7271,0.0,1.8713,0.0,0.0,0.0,0.0,0.0,0.0,0.0,0.0,2.0632,0.0,2.1109,2.0452,2.0185,2.0304,2.0304,1.9439,1.7823,1.6022,1.5666,1.6398,1.6409,1.649,1.6596,1.6596,1.6623,1.6659,1.6763,1.6892,1.6993,1.6892,1.6917,1.6968,0.1176,0.1162,0.114,0.1109,0.1104,0.1097,0.1213,0.1344,0.1412,0.1412,0.1681,0.1817,0.1681,0.1884,0.0,0.2154,0.2221,0.2221,0.2221,0.2221,0.2221,0.2221,0.2221,0.2221,0.2221,0.0,0.0,0.2188,0.3172,0.4237,0.5431,0.5664,0.6164,0.6869,0.7148,0.7394,0.7595,0.7662,0.764,0.7631,0.7821,0.7962,0.8016,0.826,0.8384,0.8516,0.8528,0.8588,0.8682,0.8791,0.8804,0.8804,0.8804,0.8745,0.8685,0.8685,0.8639,0.8533,0.8533,0.8527,0.8474,0.8474,0.919,0.9969,1.0182,1.0557,1.0922,1.1023,1.1326,1.1678,1.2026,1.2745,1.3372,1.3573,1.4046,1.4373,1.4373,0.0,0.0,0.0,0.0,0.0,0.0,1.7877,0.0,0.0,0.0,0.0,0.0,0.0,0.0,2.1008,2.0197,0.0,2.067,2.0259,2.015,2.0304,1.9746,1.9069,1.8146,1.6379,1.586,1.6355,1.6398,1.6463,1.6554,1.6596,1.6623,1.6686,1.6712,1.6815,1.6917,1.6763,1.6789,1.6815,0.1123,0.1118,0.0,0.0,0.1076,0.0,0.1076,0.1076,0.1143,0.1076,0.121,0.1344,0.1277,0.148,0.1749,0.2154,0.0,0.0,0.0,0.2154,0.2154,0.2154,0.2154,0.2154,0.2221,0.2221,0.2181,0.2169,0.286,0.3598,0.4334,0.4923,0.563,0.6339,0.6729,0.6852,0.6844,0.7136,0.7256,0.7256,0.7497,0.7747,0.7916,0.7949,0.841,0.8944,0.8504,0.8713,0.9055,0.8844,0.8804,0.8804,0.8804,0.8804,0.8804,0.8804,0.8804,0.8804,0.8804,0.8692,0.8626,0.8626,0.9047,0.9673,1.0667,1.0922,1.1023,1.1267,1.1326,1.1477,1.1977,1.2491,1.3016,1.3515,1.4046,1.4373,1.4373,0.0,0.0,0.0,0.0,0.0,0.0,1.6892,1.7406,0.0,0.0,0.0,0.0,0.0,2.0867,1.9735,1.969,1.9797,1.997,2.0005,2.0111,2.0289,1.8931,1.8253,1.8161,1.6855,1.628,1.6301,1.6355,1.6436,1.6501,1.6554,1.6659,1.6763,1.6675,1.6686,1.6789,1.6675,1.6623,1.6623,0.0,0.0,0.1084,0.1077,0.1076,0.1076,0.1076,0.121,0.121,0.1143,0.1344,0.148,0.1344,0.148,0.1614,0.1748,0.1884,0.1884,0.1749,0.1884,0.1951,0.1951,0.1951,0.2018,0.2221,0.2221,0.2228,0.2176,0.2378,0.2792,0.3492,0.3671,0.4081,0.4857,0.5158,0.5343,0.5339,0.5704,0.5885,0.5939,0.6454,0.6713,0.6876,0.7355,0.764,0.7747,0.8096,0.8257,0.8284,0.8665,0.8804,0.8804,0.8804,0.8804,0.8804,0.8804,0.8804,0.8804,0.8804,0.8752,0.8752,0.8752,0.9309,1.0028,1.0761,1.1074,1.1276,1.1569,1.1628,1.1728,1.2026,1.2638,1.317,1.3266,1.3894,1.4373,1.4373,1.4419,0.0,0.0,1.5244,1.5468,1.5913,1.6466,1.7102,0.0,0.0,0.0,0.0,1.9904,1.9992,1.9626,1.9654,1.9762,1.9848,1.9955,2.0111,2.0289,1.9456,1.8746,1.8176,1.7347,1.6727,1.6301,1.6355,1.6436,1.6501,1.6554,1.6623,1.6633,1.6712,1.6763,1.6789,1.6763,1.6738,1.6738,0.1054,0.1057,0.1061,0.1074,0.1076,0.1076,0.1076,0.1143,0.121,0.1143,0.1277,0.1344,0.121,0.1277,0.1345,0.1345,0.1614,0.1748,0.1614,0.1681,0.1749,0.1749,0.1749,0.1884,0.2085,0.2085,0.2087,0.2221,0.2221,0.2488,0.2956,0.3159,0.3469,0.4017,0.4412,0.4767,0.5021,0.5091,0.5279,0.5586,0.563,0.5779,0.5936,0.6181,0.6508,0.6899,0.7083,0.7351,0.7563,0.7889,0.8002,0.8049,0.8315,0.8368,0.8421,0.8699,0.8804,0.8804,0.8804,0.8804,0.8857,0.9113,0.9413,0.9873,1.0863,1.1124,1.1276,1.1778,1.1877,1.1927,1.2076,1.2696,1.3218,1.3218,1.3894,1.4373,1.4373,1.4373,0.0,1.4891,1.5017,1.5244,1.5614,1.6076,1.6665,1.7303,0.0,0.0,1.9047,1.9166,1.9334,1.9589,1.9669,1.9726,1.9797,1.9955,2.0131,2.0304,1.9934,1.9208,1.8192,1.7823,1.7175,1.6301,1.6355,1.6436,1.6501,1.6554,1.6596,1.6623,1.6686,1.6727,1.6727,1.6727,1.6727,1.6686,0.1022,0.1027,0.1034,0.1058,0.1062,0.1064,0.1069,0.1069,0.1071,0.1075,0.1072,0.1069,0.1069,0.1065,0.1065,0.1069,0.1337,0.154,0.1546,0.1547,0.1614,0.1547,0.1614,0.1745,0.1872,0.193,0.1993,0.2193,0.2193,0.2391,0.2784,0.3117,0.3403,0.3766,0.4218,0.4718,0.5143,0.485,0.509,0.5623,0.5189,0.5122,0.528,0.518,0.5682,0.6393,0.6225,0.6544,0.7085,0.7085,0.7085,0.7192,0.761,0.7818,0.7984,0.8527,0.8752,0.8804,0.8804,0.8804,0.891,0.9361,0.9361,0.9517,1.0753,1.0913,1.1015,1.1819,1.1977,1.1977,1.2076,1.2647,1.3122,1.317,1.3847,1.4337,1.4384,0.0,1.4466,1.4743,1.4971,1.5244,1.5546,1.5812,1.6207,1.671,1.6837,1.7325,0.0,1.8422,1.8822,1.9465,1.9617,1.9726,1.9848,2.001,2.0185,2.0304,2.0212,1.9454,1.8207,1.8099,1.7421,1.6301,1.6382,1.6463,1.6501,1.6554,1.6596,1.6596,1.6596,1.6596,1.6596,1.6596,1.6596,1.6596,0.0994,0.0995,0.0997,0.1001,0.1002,0.1011,0.1036,0.104,0.1048,0.1072,0.1055,0.104,0.104,0.1017,0.1012,0.1038,0.104,0.1116,0.1141,0.1412,0.1547,0.1344,0.1681,0.1862,0.1818,0.1899,0.2,0.2,0.2,0.2435,0.3301,0.3363,0.3665,0.4265,0.4455,0.4507,0.4366,0.461,0.4789,0.4897,0.5302,0.5591,0.574,0.617,0.6529,0.6797,0.6874,0.6977,0.7085,0.7085,0.7085,0.7139,0.7187,0.7557,0.7925,0.8037,0.8421,0.8804,0.8804,0.8804,0.8804,0.891,0.9061,0.9316,0.9769,1.002,1.0379,1.1267,1.1427,1.1578,1.2026,1.2471,1.2852,1.317,1.361,1.3999,1.4326,0.0,1.4558,1.4971,1.5062,1.5334,1.5856,1.5988,1.6132,1.6436,1.6479,1.6765,1.7352,1.7828,1.8344,1.8898,1.9376,1.972,1.997,2.0045,2.0185,2.0289,1.9734,1.8992,1.8192,1.7682,1.7016,1.6301,1.6421,1.6501,1.6501,1.6554,1.6596,1.6596,1.6596,1.6596,1.6596,1.6596,1.6596,1.6596,0.096,0.0964,0.0969,0.0986,0.0988,0.0993,0.1007,0.1009,0.1014,0.1027,0.1017,0.1009,0.1009,0.0997,0.0994,0.1008,0.1009,0.1015,0.1028,0.1257,0.1277,0.121,0.1412,0.1659,0.1805,0.194,0.2156,0.2463,0.2463,0.2707,0.3134,0.3442,0.3593,0.3535,0.3954,0.4271,0.4432,0.4262,0.4493,0.4887,0.4876,0.496,0.5113,0.5368,0.5555,0.5719,0.5778,0.5832,0.5937,0.5996,0.5996,0.6105,0.6485,0.6799,0.7069,0.7396,0.8103,0.8804,0.8804,0.8804,0.8804,0.8804,0.891,0.9106,0.9517,0.971,1.0072,1.1116,1.1326,1.1477,1.1977,1.2431,1.2774,1.291,1.3238,0.0,0.0,1.3941,1.4233,1.4709,1.496,1.5334,1.5944,1.6044,1.6188,1.6392,1.6436,1.6693,1.7157,1.772,1.8266,1.8784,1.9362,1.9741,1.9884,1.9975,2.0096,2.0185,1.9577,1.8947,1.8285,1.7604,1.6965,1.6421,1.6474,1.6528,1.6554,1.6596,1.6596,1.6596,1.6596,1.6596,1.6596,1.6596,1.6596,1.6596,0.0928,0.0874,0.094,0.0963,0.0967,0.0969,0.0977,0.0977,0.098,0.0987,0.0982,0.0977,0.0977,0.0971,0.097,0.0977,0.0977,0.0981,0.0988,0.103,0.1055,0.1055,0.1245,0.1551,0.1957,0.1962,0.2232,0.2831,0.2711,0.2711,0.2889,0.337,0.3384,0.3016,0.3595,0.4056,0.4401,0.3959,0.4181,0.478,0.4356,0.4301,0.4519,0.4519,0.4632,0.4691,0.4743,0.4849,0.4956,0.5069,0.5128,0.5234,0.5778,0.6046,0.6263,0.6707,0.767,0.8639,0.8752,0.8804,0.8804,0.8804,0.8804,0.891,0.9309,0.9413,0.9718,1.0702,1.1006,1.1259,1.1819,1.2283,1.2578,1.2676,0.0,0.0,0.0,1.3515,1.3894,1.4457,1.4801,1.5277,1.5944,1.6144,1.6275,1.6392,1.6479,1.6723,1.7186,1.7707,1.8305,1.8988,1.9472,1.9762,1.9797,1.9955,2.0061,2.01,1.9375,1.8825,1.8362,1.7678,1.7021,1.6501,1.6716,1.6712,1.6596,1.6596,1.6596,1.6596,1.6596,1.6596,1.6596,1.6596,1.6596,1.6596,0.09,0.0901,0.0902,0.0904,0.0904,0.0913,0.0883,0.0887,0.0956,0.0984,0.0964,0.0887,0.0887,0.0921,0.0915,0.0885,0.0887,0.0958,0.0986,0.0992,0.0994,0.0994,0.127,0.1723,0.2422,0.201,0.2088,0.2701,0.2146,0.2145,0.2701,0.3039,0.3317,0.3527,0.3866,0.3866,0.3694,0.3744,0.3907,0.4076,0.419,0.4301,0.4519,0.4632,0.4688,0.4743,0.4846,0.4956,0.5069,0.5069,0.5183,0.5297,0.5179,0.5668,0.6209,0.6109,0.6966,0.809,0.8639,0.8804,0.8804,0.8804,0.8804,0.8804,0.8857,0.8857,0.9008,0.9621,1.0115,1.0626,1.1267,1.1778,1.2283,1.2627,0.0,0.0,1.317,1.3314,1.3695,1.4411,1.4652,1.5073,1.5901,1.6144,1.6275,1.6392,1.6479,1.671,1.7271,1.7733,1.8461,1.9501,1.9705,1.9797,1.9797,1.9995,2.0115,2.01,1.8866,1.8331,1.8362,1.7753,1.7121,1.6532,1.7279,1.7227,1.6596,1.6596,1.6596,1.6596,1.6596,1.6596,1.6596,1.6596,1.6596,1.6596,0.0898,0.0898,0.0898,0.0898,0.0898,0.0901,0.0913,0.0915,0.0919,0.093,0.0922,0.0915,0.0915,0.0905,0.0902,0.0913,0.0915,0.092,0.0931,0.0932,0.1008,0.1172,0.1259,0.1473,0.1824,0.1712,0.1961,0.2567,0.2404,0.246,0.2681,0.2961,0.3077,0.3077,0.3299,0.3524,0.3585,0.3635,0.3747,0.391,0.4024,0.419,0.4356,0.4522,0.4574,0.4574,0.4625,0.468,0.4739,0.4798,0.4908,0.4908,0.4959,0.5175,0.55,0.5891,0.6426,0.7069,0.7984,0.8527,0.8804,0.8804,0.8804,0.8804,0.8804,0.8804,0.8956,0.9465,0.9762,1.0072,1.0635,1.1209,1.1678,1.1927,0.0,1.252,1.2754,1.2977,1.3304,1.3779,1.4329,1.4926,1.5579,1.5957,1.6275,1.6436,1.6577,1.6705,1.6905,1.7503,1.8266,1.9265,1.9325,1.9508,1.9797,1.9955,2.0045,2.01,1.9315,1.8764,1.8439,1.7856,1.7192,1.657,1.6896,1.6849,1.6596,1.6596,1.6596,1.6596,1.6596,1.6596,1.6623,1.6789,1.6841,1.6841,0.0898,0.0898,0.0898,0.0898,0.0898,0.0898,0.0898,0.0898,0.0898,0.0898,0.0898,0.0898,0.0898,0.0898,0.0898,0.0898,0.0898,0.0898,0.0898,0.0898,0.0973,0.1138,0.1175,0.1277,0.1566,0.1534,0.1849,0.2512,0.2402,0.2348,0.2406,0.2685,0.2742,0.2577,0.2854,0.3135,0.3469,0.3469,0.3577,0.3796,0.391,0.4024,0.4193,0.4356,0.4463,0.4519,0.4519,0.4519,0.4574,0.4688,0.4743,0.4794,0.4849,0.4846,0.5011,0.5618,0.6,0.6367,0.7176,0.7883,0.8533,0.8752,0.8804,0.8804,0.8804,0.8804,0.891,0.9256,0.9614,0.9969,1.0312,1.1049,1.1628,1.1728,1.2076,1.2372,1.248,1.2754,1.3025,1.342,1.4025,1.4617,1.5107,1.568,1.6044,1.6207,1.6534,1.6803,1.7002,1.7598,1.8266,1.8898,1.9026,1.9273,1.969,1.9884,2.0025,2.01,1.961,1.9184,1.8781,1.8199,1.755,1.6943,1.6943,1.6855,1.6712,1.6633,1.6649,1.6712,1.6712,1.6712,1.6763,1.7018,1.7142,1.7117,0.0898,0.0898,0.0898,0.0898,0.0898,0.0898,0.0898,0.0898,0.0898,0.0898,0.0898,0.0898,0.0898,0.0898,0.0898,0.0898,0.0898,0.0898,0.0898,0.0898,0.0898,0.0898,0.101,0.1401,0.1959,0.1514,0.168,0.2512,0.1905,0.1685,0.1797,0.2074,0.2184,0.224,0.2521,0.2856,0.3074,0.3074,0.3352,0.3796,0.3796,0.3965,0.4193,0.4193,0.4301,0.4519,0.4519,0.4574,0.4691,0.4691,0.4794,0.4901,0.4743,0.4794,0.4956,0.5242,0.5727,0.6209,0.6209,0.6907,0.7883,0.8586,0.8804,0.8804,0.8804,0.8804,0.8804,0.8804,0.9666,1.0364,1.0415,1.1451,1.2283,1.2274,1.2431,1.248,1.248,1.2627,1.292,1.3525,1.3716,1.4046,1.4663,1.5266,1.5591,1.5591,1.6262,1.6989,1.7666,1.8173,1.85,1.8486,1.8898,1.9199,1.9406,1.9797,2.0025,2.01,1.9626,1.9432,1.9482,1.8873,1.8273,1.7685,1.7685,1.7422,1.6968,1.6727,1.6763,1.6993,1.6993,1.6993,1.7043,1.7288,1.7384,1.7361,0.028,0.0617,0.0898,0.0898,0.0898,0.0898,0.0898,0.0898,0.0898,0.0898,0.0898,0.0898,0.0898,0.0898,0.0898,0.0898,0.0898,0.0898,0.0898,0.0898,0.0898,0.0898,0.0954,0.1065,0.1233,0.1178,0.1289,0.1512,0.1458,0.1459,0.1685,0.174,0.1906,0.2184,0.2296,0.2521,0.2856,0.3021,0.3186,0.3352,0.3685,0.391,0.4079,0.4138,0.4301,0.4519,0.4519,0.4519,0.4574,0.4574,0.4574,0.4625,0.4574,0.4632,0.4798,0.4853,0.5069,0.5391,0.5828,0.61,0.6597,0.7829,0.8415,0.8685,0.8804,0.8804,0.8804,0.891,0.9211,0.9465,0.9562,1.049,1.1301,1.1384,1.2107,1.2735,1.2881,1.2978,1.3065,1.3276,1.3705,1.4035,1.4305,1.4812,1.5175,1.5355,1.5691,1.6122,1.6744,1.6943,1.6977,1.683,1.7604,1.8273,1.8762,1.9572,2.0061,2.0235,2.019,1.9949,1.9482,1.8903,1.8332,1.7669,1.7149,1.6855,1.6712,1.6633,1.6763,1.6993,1.6993,1.7117,1.7288,1.7361,1.7384,1.7384,0.0336,0.0673,0.0898,0.0898,0.0898,0.0898,0.0898,0.0898,0.0898,0.0898,0.0898,0.0898,0.0842,0.0842,0.0842,0.0842,0.0898,0.0898,0.0842,0.0898,0.0898,0.0898,0.0898,0.0898,0.0898,0.0954,0.1066,0.1122,0.1178,0.1291,0.1459,0.1572,0.174,0.1962,0.2018,0.2186,0.2521,0.28,0.3021,0.313,0.3577,0.3855,0.4024,0.4079,0.4301,0.4519,0.4519,0.4519,0.4519,0.4519,0.4519,0.4519,0.4574,0.4632,0.4688,0.4743,0.4805,0.4912,0.5338,0.5466,0.5807,0.6802,0.7644,0.8307,0.8579,0.8682,0.8727,0.883,0.9036,0.9277,0.9496,1.0285,1.0956,1.104,1.1859,1.2529,1.2676,1.2881,1.3065,1.317,1.3494,1.3742,1.3941,1.4233,1.4573,1.4974,1.527,1.5591,1.6036,1.6036,1.5981,1.5895,1.6756,1.757,1.8291,1.9245,1.994,2.0339,2.046,2.0153,1.9531,1.8964,1.8345,1.7653,1.6912,1.6712,1.6917,1.6789,1.6993,1.7313,1.7191,1.7313,1.7566,1.7566,1.7635,1.7704,0.0729,0.0842,0.0898,0.0898,0.0898,0.0898,0.0898,0.0898,0.0898,0.0898,0.0898,0.0842,0.0729,0.0729,0.0673,0.0673,0.0785,0.0785,0.0673,0.0785,0.0842,0.0842,0.0898,0.0898,0.0898,0.0898,0.0954,0.1066,0.1066,0.1178,0.129,0.1459,0.1572,0.1572,0.1741,0.1908,0.2184,0.2521,0.2856,0.3077,0.3471,0.3749,0.3965,0.4021,0.4187,0.4463,0.4519,0.4519,0.4519,0.4519,0.4519,0.4519,0.4632,0.4688,0.4688,0.4846,0.4789,0.4666,0.4815,0.5031,0.5278,0.5585,0.6569,0.7584,0.8123,0.8323,0.8416,0.8473,0.9018,0.9608,0.9862,1.0501,1.1032,1.1015,1.1569,1.2017,1.2026,1.252,1.291,1.3122,1.317,1.3314,1.3563,1.3697,1.3998,1.4633,1.5005,1.5273,1.55,1.5447,1.5432,1.5454,1.6178,1.6986,1.784,1.8691,1.9518,2.0388,2.0475,2.0186,1.9578,1.8994,1.8345,1.7653,1.6912,1.6892,1.7313,1.7068,1.7264,1.7721,1.7496,1.7566,1.7811,1.7811,1.7966,1.8172,0.0056,0.0561,0.0898,0.0898,0.0898,0.0898,0.0898,0.0898,0.0898,0.0898,0.0898,0.0898,0.0842,0.0785,0.0673,0.0673,0.0561,0.0505,0.0449,0.0505,0.0505,0.0505,0.0673,0.0729,0.0729,0.0842,0.0898,0.0954,0.0954,0.101,0.1122,0.1178,0.129,0.1347,0.1572,0.1684,0.1794,0.2411,0.2747,0.2856,0.336,0.3691,0.3852,0.3965,0.4135,0.4301,0.4463,0.4519,0.4519,0.4519,0.4519,0.4519,0.4519,0.4519,0.4574,0.457,0.4469,0.4302,0.4351,0.43,0.4443,0.5056,0.5447,0.5881,0.673,0.7267,0.7666,0.7804,0.829,0.8875,0.9303,0.986,1.0285,1.0509,1.1006,1.1451,1.1534,1.1999,1.2452,1.2716,1.3112,1.342,1.3563,1.382,1.4303,1.5148,1.4694,1.4697,1.5449,1.5141,1.4752,1.4269,1.5237,1.6018,1.6576,1.7146,1.8419,2.0388,2.0577,2.0268,1.9578,1.8994,1.8345,1.7653,1.6912,1.6675,1.6763,1.6712,1.6892,1.7191,1.7337,1.7566,1.7811,1.7878,1.798,1.8142,0.028,0.0673,0.0898,0.0898,0.0898,0.0898,0.0898,0.0898,0.0898,0.0898,0.0898,0.0898,0.0785,0.0673,0.0505,0.0393,0.0393,0.0393,0.0336,0.0393,0.0393,0.0393,0.0505,0.0561,0.0561,0.0729,0.0842,0.0898,0.0898,0.0954,0.101,0.1066,0.1122,0.1234,0.1403,0.1515,0.1628,0.213,0.2408,0.2521,0.3135,0.3469,0.3633,0.3855,0.3965,0.4135,0.4242,0.4298,0.4356,0.4356,0.4356,0.4356,0.4463,0.4408,0.4343,0.4382,0.4256,0.4124,0.4103,0.4063,0.4077,0.4455,0.4591,0.4887,0.5872,0.652,0.6947,0.718,0.7643,0.8208,0.8772,0.9302,0.9665,0.9784,1.0596,1.1242,1.1366,1.2098,1.2706,1.2967,1.3218,1.3375,1.3356,1.3739,1.4138,1.4416,1.4004,1.4181,1.5184,1.4767,1.4515,1.4492,1.5503,1.6303,1.6781,1.7586,1.8852,2.0543,2.0299,1.983,1.9169,1.8837,1.8155,1.7149,1.6834,1.6763,1.6892,1.6968,1.7191,1.7479,1.7526,1.7749,1.8048,1.8044,1.8156,1.836,0.0673,0.0898,0.0898,0.0898,0.0898,0.0898,0.0898,0.0898,0.0898,0.0898,0.0898,0.0842,0.0729,0.0561,0.028,0.0,0.0224,0.028,0.0168,0.028,0.0336,0.0336,0.0336,0.0393,0.0393,0.0561,0.0729,0.0842,0.0898,0.0898,0.0898,0.101,0.1066,0.1066,0.1178,0.1347,0.1515,0.1849,0.2071,0.224,0.2796,0.3132,0.3302,0.3574,0.3744,0.3913,0.391,0.4024,0.4193,0.4193,0.4193,0.4193,0.4353,0.4301,0.4171,0.4214,0.4127,0.3979,0.4004,0.3978,0.3954,0.3909,0.396,0.4268,0.5171,0.5717,0.618,0.6445,0.693,0.749,0.8154,0.8704,0.9069,0.9175,1.0174,1.099,1.1124,1.1999,1.2764,1.2967,1.317,1.3314,1.323,1.3695,1.3968,1.3731,1.371,1.4108,1.5069,1.4748,1.4755,1.5267,1.618,1.689,1.7459,1.844,1.9491,2.0538,1.9956,1.9404,1.8912,1.8942,1.8273,1.7051,1.7157,1.7284,1.742,1.7535,1.7706,1.7922,1.7822,1.7975,1.8301,1.8318,1.8434,1.8603,0.0841,0.0954,0.0898,0.0898,0.0898,0.0898,0.0898,0.0898,0.0898,0.0898,0.0898,0.0898,0.0898,0.0617,0.028,0.0,0.0056,0.0056,0.0056,0.0056,0.0056,0.0056,0.0168,0.0224,0.0224,0.0393,0.0561,0.0729,0.0842,0.0898,0.0898,0.0898,0.0954,0.0954,0.1066,0.1122,0.1178,0.1736,0.2015,0.2071,0.2577,0.2747,0.2802,0.2963,0.3186,0.3524,0.363,0.3796,0.4024,0.4024,0.4024,0.4024,0.4076,0.4021,0.4076,0.4171,0.4117,0.4,0.414,0.3995,0.3835,0.3811,0.3732,0.3742,0.3906,0.4609,0.5227,0.5315,0.5913,0.6657,0.7322,0.7867,0.845,0.9076,0.9525,0.9873,0.9991,1.0549,1.1049,1.1301,1.2325,1.3246,1.3679,1.3986,1.4404,1.5012,1.4952,1.5196,1.5981,1.5847,1.5874,1.614,1.6324,1.685,1.7637,1.7824,1.8588,1.9909,1.9939,1.9904,1.9824,2.0005,1.9628,1.8852,1.8852,1.8632,1.8251,1.8277,1.802,1.7681,1.801,1.8159,1.8278,1.8717,1.8734,1.8563,0.028,0.0729,0.0898,0.0898,0.0898,0.0898,0.0898,0.0898,0.0898,0.0898,0.0898,0.0898,0.0785,0.0505,0.0224,0.0,0.0,0.0,0.0,0.0,0.0,0.0,0.0056,0.0112,0.0112,0.0224,0.0336,0.0449,0.0673,0.0842,0.0898,0.0898,0.0898,0.0898,0.0954,0.1066,0.1234,0.1514,0.1738,0.1906,0.2298,0.241,0.2464,0.2852,0.313,0.3244,0.3522,0.3744,0.391,0.391,0.3965,0.4024,0.4079,0.4079,0.4009,0.4155,0.4084,0.4013,0.4093,0.4022,0.3897,0.3812,0.3744,0.3722,0.3721,0.4005,0.4424,0.4983,0.543,0.5941,0.6615,0.7474,0.8151,0.8456,0.945,1.019,1.0352,1.0913,1.146,1.176,1.2482,1.3112,1.3314,1.3894,1.4305,1.4674,1.4702,1.5097,1.6048,1.5833,1.5957,1.6542,1.7133,1.7602,1.8037,1.8578,1.9197,1.9958,2.0174,2.0178,1.9999,2.0226,1.9897,1.92,1.9284,1.8958,1.8348,1.8425,1.812,1.7641,1.8035,1.8382,1.8681,1.8894,1.8861,1.8696]}]]